<?xml version="1.0" encoding="UTF-8" standalone="no" ?>
<gpx xmlns="http://www.topografix.com/GPX/1/1" xmlns:xsi="http://www.w3.org/2001/XMLSchema-instance" xsi:schemaLocation="http://www.topografix.com/GPX/1/1 http://www.topografix.com/GPX/1/1/gpx.xsd" version="1.1" creator="VisuGPX - https://www.visugpx.com">
  <metadata>
    <name>Vercors encore !</name>
    <desc><![CDATA[Rejoindre les parisiens à Villard !]]></desc>
  </metadata>
  <trk>
    <name><![CDATA[J2 Meaudre 2018]]></name>
    <trkseg>
      <trkpt lat="45.07381" lon="5.56047">
        <ele>1033</ele>
      </trkpt>
      <trkpt lat="45.07308" lon="5.55957">
        <ele>1028</ele>
      </trkpt>
      <trkpt lat="45.07312" lon="5.55668">
        <ele>1028</ele>
      </trkpt>
      <trkpt lat="45.07257" lon="5.55642">
        <ele>1029</ele>
      </trkpt>
      <trkpt lat="45.07169" lon="5.55526">
        <ele>1032</ele>
      </trkpt>
      <trkpt lat="45.07008" lon="5.55462">
        <ele>1035</ele>
      </trkpt>
      <trkpt lat="45.07033" lon="5.55097">
        <ele>1027</ele>
      </trkpt>
      <trkpt lat="45.06996" lon="5.5505">
        <ele>1023</ele>
      </trkpt>
      <trkpt lat="45.06975" lon="5.55007">
        <ele>1022</ele>
      </trkpt>
      <trkpt lat="45.06924" lon="5.54964">
        <ele>1017</ele>
      </trkpt>
      <trkpt lat="45.06921" lon="5.54887">
        <ele>1011</ele>
      </trkpt>
      <trkpt lat="45.06948" lon="5.54801">
        <ele>999</ele>
      </trkpt>
      <trkpt lat="45.07081" lon="5.54809">
        <ele>1002</ele>
      </trkpt>
      <trkpt lat="45.07208" lon="5.54848">
        <ele>999</ele>
      </trkpt>
      <trkpt lat="45.07295" lon="5.54878">
        <ele>990</ele>
      </trkpt>
      <trkpt lat="45.07465" lon="5.55016">
        <ele>984</ele>
      </trkpt>
      <trkpt lat="45.07488" lon="5.5496">
        <ele>976</ele>
      </trkpt>
      <trkpt lat="45.07383" lon="5.54827">
        <ele>970</ele>
      </trkpt>
      <trkpt lat="45.07361" lon="5.54726">
        <ele>965</ele>
      </trkpt>
      <trkpt lat="45.07394" lon="5.54606">
        <ele>972</ele>
      </trkpt>
      <trkpt lat="45.07374" lon="5.54501">
        <ele>984</ele>
      </trkpt>
      <trkpt lat="45.07309" lon="5.54404">
        <ele>982</ele>
      </trkpt>
      <trkpt lat="45.07342" lon="5.54342">
        <ele>974</ele>
      </trkpt>
      <trkpt lat="45.07392" lon="5.54209">
        <ele>967</ele>
        <time>2008-05-04T11:34:01Z</time>
      </trkpt>
      <trkpt lat="45.07408" lon="5.54153">
        <ele>965</ele>
        <time>2008-05-04T11:34:07Z</time>
      </trkpt>
      <trkpt lat="45.07393" lon="5.54084">
        <ele>966</ele>
        <time>2008-05-04T11:34:15Z</time>
      </trkpt>
      <trkpt lat="45.07371" lon="5.54071">
        <ele>959</ele>
        <time>2008-05-04T11:34:19Z</time>
      </trkpt>
      <trkpt lat="45.07346" lon="5.54066">
        <ele>956</ele>
        <time>2008-05-04T11:34:23Z</time>
      </trkpt>
      <trkpt lat="45.07332" lon="5.54025">
        <ele>959</ele>
        <time>2008-05-04T11:34:30Z</time>
      </trkpt>
      <trkpt lat="45.07342" lon="5.54015">
        <ele>953</ele>
        <time>2008-05-04T11:34:32Z</time>
      </trkpt>
      <trkpt lat="45.07379" lon="5.53989">
        <ele>951</ele>
        <time>2008-05-04T11:34:39Z</time>
      </trkpt>
      <trkpt lat="45.07403" lon="5.53985">
        <ele>952</ele>
        <time>2008-05-04T11:34:43Z</time>
      </trkpt>
      <trkpt lat="45.0745" lon="5.53981">
        <ele>958</ele>
        <time>2008-05-04T11:34:56Z</time>
      </trkpt>
      <trkpt lat="45.075" lon="5.53975">
        <ele>972</ele>
        <time>2008-05-04T11:35:17Z</time>
      </trkpt>
      <trkpt lat="45.07537" lon="5.53951">
        <ele>971</ele>
        <time>2008-05-04T11:35:35Z</time>
      </trkpt>
      <trkpt lat="45.07542" lon="5.53948">
        <ele>970</ele>
        <time>2008-05-04T11:35:38Z</time>
      </trkpt>
      <trkpt lat="45.07564" lon="5.53933">
        <ele>970</ele>
        <time>2008-05-04T11:35:52Z</time>
      </trkpt>
      <trkpt lat="45.07591" lon="5.53927">
        <ele>976</ele>
        <time>2008-05-04T11:36:07Z</time>
      </trkpt>
      <trkpt lat="45.0762" lon="5.53921">
        <ele>986</ele>
        <time>2008-05-04T11:36:24Z</time>
      </trkpt>
      <trkpt lat="45.0765" lon="5.53911">
        <ele>977</ele>
        <time>2008-05-04T11:36:42Z</time>
      </trkpt>
      <trkpt lat="45.07682" lon="5.53889">
        <ele>987</ele>
        <time>2008-05-04T11:37:02Z</time>
      </trkpt>
      <trkpt lat="45.07709" lon="5.53861">
        <ele>988</ele>
        <time>2008-05-04T11:37:22Z</time>
      </trkpt>
      <trkpt lat="45.07724" lon="5.53826">
        <ele>980</ele>
        <time>2008-05-04T11:37:38Z</time>
      </trkpt>
      <trkpt lat="45.07757" lon="5.53805">
        <ele>994</ele>
        <time>2008-05-04T11:37:59Z</time>
      </trkpt>
      <trkpt lat="45.07776" lon="5.53793">
        <ele>994</ele>
        <time>2008-05-04T11:38:11Z</time>
      </trkpt>
      <trkpt lat="45.07802" lon="5.53768">
        <ele>995</ele>
        <time>2008-05-04T11:38:29Z</time>
      </trkpt>
      <trkpt lat="45.07825" lon="5.53746">
        <ele>987</ele>
        <time>2008-05-04T11:38:46Z</time>
      </trkpt>
      <trkpt lat="45.0785" lon="5.53744">
        <ele>995</ele>
        <time>2008-05-04T11:39:02Z</time>
      </trkpt>
      <trkpt lat="45.07871" lon="5.5375">
        <ele>1011</ele>
        <time>2008-05-04T11:39:14Z</time>
      </trkpt>
      <trkpt lat="45.07907" lon="5.53746">
        <ele>1007</ele>
        <time>2008-05-04T11:39:35Z</time>
      </trkpt>
      <trkpt lat="45.07927" lon="5.53721">
        <ele>1017</ele>
        <time>2008-05-04T11:39:50Z</time>
      </trkpt>
      <trkpt lat="45.07928" lon="5.53689">
        <ele>1013</ele>
        <time>2008-05-04T11:40:03Z</time>
      </trkpt>
      <trkpt lat="45.07933" lon="5.53647">
        <ele>1005</ele>
        <time>2008-05-04T11:40:22Z</time>
      </trkpt>
      <trkpt lat="45.07942" lon="5.53635">
        <ele>1006</ele>
        <time>2008-05-04T11:40:30Z</time>
      </trkpt>
      <trkpt lat="45.0797" lon="5.5362">
        <ele>1009</ele>
        <time>2008-05-04T11:40:48Z</time>
      </trkpt>
      <trkpt lat="45.08003" lon="5.53622">
        <ele>1026</ele>
        <time>2008-05-04T11:41:08Z</time>
      </trkpt>
      <trkpt lat="45.08031" lon="5.53611">
        <ele>1027</ele>
        <time>2008-05-04T11:41:27Z</time>
      </trkpt>
      <trkpt lat="45.08047" lon="5.53587">
        <ele>1028</ele>
        <time>2008-05-04T11:41:41Z</time>
      </trkpt>
      <trkpt lat="45.08066" lon="5.53566">
        <ele>1018</ele>
        <time>2008-05-04T11:41:56Z</time>
      </trkpt>
      <trkpt lat="45.08101" lon="5.53551">
        <ele>1028</ele>
        <time>2008-05-04T11:42:18Z</time>
      </trkpt>
      <trkpt lat="45.08132" lon="5.53541">
        <ele>1029</ele>
        <time>2008-05-04T11:42:36Z</time>
      </trkpt>
      <trkpt lat="45.08165" lon="5.53535">
        <ele>1031</ele>
        <time>2008-05-04T11:42:54Z</time>
      </trkpt>
      <trkpt lat="45.08202" lon="5.53514">
        <ele>1041</ele>
        <time>2008-05-04T11:43:15Z</time>
      </trkpt>
      <trkpt lat="45.0825" lon="5.53492">
        <ele>1045</ele>
        <time>2008-05-04T11:43:39Z</time>
      </trkpt>
      <trkpt lat="45.08279" lon="5.53482">
        <ele>1045</ele>
        <time>2008-05-04T11:43:55Z</time>
      </trkpt>
      <trkpt lat="45.08312" lon="5.53461">
        <ele>1047</ele>
        <time>2008-05-04T11:44:15Z</time>
      </trkpt>
      <trkpt lat="45.08336" lon="5.53442">
        <ele>1053</ele>
        <time>2008-05-04T11:44:33Z</time>
      </trkpt>
      <trkpt lat="45.08353" lon="5.53459">
        <ele>1056</ele>
        <time>2008-05-04T11:44:47Z</time>
      </trkpt>
      <trkpt lat="45.0837" lon="5.53476">
        <ele>1058</ele>
        <time>2008-05-04T11:45:03Z</time>
      </trkpt>
      <trkpt lat="45.08372" lon="5.53478">
        <ele>1058</ele>
        <time>2008-05-04T11:45:15Z</time>
      </trkpt>
      <trkpt lat="45.08391" lon="5.53483">
        <ele>1059</ele>
        <time>2008-05-04T11:45:32Z</time>
      </trkpt>
      <trkpt lat="45.08421" lon="5.53485">
        <ele>1061</ele>
        <time>2008-05-04T11:45:55Z</time>
      </trkpt>
      <trkpt lat="45.08442" lon="5.53502">
        <ele>1071</ele>
        <time>2008-05-04T11:46:14Z</time>
      </trkpt>
      <trkpt lat="45.08459" lon="5.53521">
        <ele>1073</ele>
        <time>2008-05-04T11:46:32Z</time>
      </trkpt>
      <trkpt lat="45.0847" lon="5.53539">
        <ele>1075</ele>
        <time>2008-05-04T11:46:48Z</time>
      </trkpt>
      <trkpt lat="45.0849" lon="5.53557">
        <ele>1079</ele>
        <time>2008-05-04T11:47:06Z</time>
      </trkpt>
      <trkpt lat="45.085" lon="5.53569">
        <ele>1082</ele>
        <time>2008-05-04T11:47:16Z</time>
      </trkpt>
      <trkpt lat="45.08505" lon="5.53577">
        <ele>1083</ele>
        <time>2008-05-04T11:47:29Z</time>
      </trkpt>
      <trkpt lat="45.0851" lon="5.53581">
        <ele>1082</ele>
        <time>2008-05-04T11:47:44Z</time>
      </trkpt>
      <trkpt lat="45.08518" lon="5.53589">
        <ele>1096</ele>
        <time>2008-05-04T11:48:03Z</time>
      </trkpt>
      <trkpt lat="45.0852" lon="5.53592">
        <ele>1097</ele>
        <time>2008-05-04T11:48:24Z</time>
      </trkpt>
      <trkpt lat="45.08528" lon="5.53603">
        <ele>1100</ele>
        <time>2008-05-04T11:48:39Z</time>
      </trkpt>
      <trkpt lat="45.08538" lon="5.53611">
        <ele>1101</ele>
        <time>2008-05-04T11:48:57Z</time>
      </trkpt>
      <trkpt lat="45.08548" lon="5.5362">
        <ele>1103</ele>
        <time>2008-05-04T11:49:12Z</time>
      </trkpt>
      <trkpt lat="45.08555" lon="5.53625">
        <ele>1104</ele>
        <time>2008-05-04T11:49:27Z</time>
      </trkpt>
      <trkpt lat="45.08568" lon="5.53646">
        <ele>1109</ele>
        <time>2008-05-04T11:49:42Z</time>
      </trkpt>
      <trkpt lat="45.08577" lon="5.53659">
        <ele>1114</ele>
        <time>2008-05-04T11:49:56Z</time>
      </trkpt>
      <trkpt lat="45.08584" lon="5.53666">
        <ele>1117</ele>
        <time>2008-05-04T11:50:08Z</time>
      </trkpt>
      <trkpt lat="45.08595" lon="5.53682">
        <ele>1129</ele>
        <time>2008-05-04T11:50:24Z</time>
      </trkpt>
      <trkpt lat="45.08597" lon="5.53689">
        <ele>1131</ele>
        <time>2008-05-04T11:50:37Z</time>
      </trkpt>
      <trkpt lat="45.08605" lon="5.53697">
        <ele>1134</ele>
        <time>2008-05-04T11:50:51Z</time>
      </trkpt>
      <trkpt lat="45.08616" lon="5.53708">
        <ele>1137</ele>
        <time>2008-05-04T11:51:10Z</time>
      </trkpt>
      <trkpt lat="45.08622" lon="5.53716">
        <ele>1139</ele>
        <time>2008-05-04T11:51:25Z</time>
      </trkpt>
      <trkpt lat="45.08626" lon="5.53711">
        <ele>1138</ele>
        <time>2008-05-04T11:51:40Z</time>
      </trkpt>
      <trkpt lat="45.08636" lon="5.537">
        <ele>1136</ele>
        <time>2008-05-04T11:52:00Z</time>
      </trkpt>
      <trkpt lat="45.08643" lon="5.53689">
        <ele>1134</ele>
        <time>2008-05-04T11:52:18Z</time>
      </trkpt>
      <trkpt lat="45.08647" lon="5.5369">
        <ele>1134</ele>
        <time>2008-05-04T11:53:01Z</time>
      </trkpt>
      <trkpt lat="45.08647" lon="5.53688">
        <ele>1134</ele>
        <time>2008-05-04T11:53:50Z</time>
      </trkpt>
      <trkpt lat="45.08648" lon="5.53684">
        <ele>1133</ele>
        <time>2008-05-04T11:54:05Z</time>
      </trkpt>
      <trkpt lat="45.08653" lon="5.53678">
        <ele>1132</ele>
        <time>2008-05-04T11:54:20Z</time>
      </trkpt>
      <trkpt lat="45.08655" lon="5.53674">
        <ele>1130</ele>
        <time>2008-05-04T11:54:33Z</time>
      </trkpt>
      <trkpt lat="45.08661" lon="5.53666">
        <ele>1122</ele>
        <time>2008-05-04T11:54:39Z</time>
      </trkpt>
      <trkpt lat="45.08662" lon="5.53663">
        <ele>1122</ele>
        <time>2008-05-04T11:54:41Z</time>
      </trkpt>
      <trkpt lat="45.08667" lon="5.53656">
        <ele>1127</ele>
        <time>2008-05-04T11:54:46Z</time>
      </trkpt>
      <trkpt lat="45.08675" lon="5.53645">
        <ele>1128</ele>
        <time>2008-05-04T11:54:55Z</time>
      </trkpt>
      <trkpt lat="45.0869" lon="5.5363">
        <ele>1128</ele>
        <time>2008-05-04T11:55:09Z</time>
      </trkpt>
      <trkpt lat="45.08692" lon="5.53629">
        <ele>1128</ele>
        <time>2008-05-04T11:55:10Z</time>
      </trkpt>
      <trkpt lat="45.08703" lon="5.53625">
        <ele>1130</ele>
        <time>2008-05-04T11:55:17Z</time>
      </trkpt>
      <trkpt lat="45.08704" lon="5.53624">
        <ele>1130</ele>
        <time>2008-05-04T11:55:29Z</time>
      </trkpt>
      <trkpt lat="45.0871" lon="5.53624">
        <ele>1132</ele>
        <time>2008-05-04T11:55:48Z</time>
      </trkpt>
      <trkpt lat="45.08707" lon="5.53626">
        <ele>1131</ele>
        <time>2008-05-04T11:56:16Z</time>
      </trkpt>
      <trkpt lat="45.08712" lon="5.5363">
        <ele>1133</ele>
        <time>2008-05-04T11:56:59Z</time>
      </trkpt>
      <trkpt lat="45.08724" lon="5.53623">
        <ele>1135</ele>
        <time>2008-05-04T11:57:14Z</time>
      </trkpt>
      <trkpt lat="45.08737" lon="5.53619">
        <ele>1136</ele>
        <time>2008-05-04T11:57:34Z</time>
      </trkpt>
      <trkpt lat="45.08746" lon="5.53619">
        <ele>1138</ele>
        <time>2008-05-04T11:57:48Z</time>
      </trkpt>
      <trkpt lat="45.08756" lon="5.53614">
        <ele>1160</ele>
        <time>2008-05-04T11:58:04Z</time>
      </trkpt>
      <trkpt lat="45.08768" lon="5.5361">
        <ele>1161</ele>
        <time>2008-05-04T11:58:21Z</time>
      </trkpt>
      <trkpt lat="45.08777" lon="5.53604">
        <ele>1162</ele>
        <time>2008-05-04T11:58:35Z</time>
      </trkpt>
      <trkpt lat="45.08791" lon="5.53587">
        <ele>1164</ele>
        <time>2008-05-04T11:58:51Z</time>
      </trkpt>
      <trkpt lat="45.08805" lon="5.53572">
        <ele>1154</ele>
        <time>2008-05-04T11:59:05Z</time>
      </trkpt>
      <trkpt lat="45.08823" lon="5.53554">
        <ele>1156</ele>
        <time>2008-05-04T11:59:20Z</time>
      </trkpt>
      <trkpt lat="45.08836" lon="5.53539">
        <ele>1181</ele>
        <time>2008-05-04T11:59:34Z</time>
      </trkpt>
      <trkpt lat="45.08845" lon="5.53531">
        <ele>1181</ele>
        <time>2008-05-04T11:59:48Z</time>
      </trkpt>
      <trkpt lat="45.0885" lon="5.53523">
        <ele>1180</ele>
        <time>2008-05-04T12:00:16Z</time>
      </trkpt>
      <trkpt lat="45.08861" lon="5.53497">
        <ele>1179</ele>
        <time>2008-05-04T12:00:32Z</time>
      </trkpt>
      <trkpt lat="45.08867" lon="5.53474">
        <ele>1183</ele>
        <time>2008-05-04T12:00:46Z</time>
      </trkpt>
      <trkpt lat="45.08869" lon="5.53468">
        <ele>1184</ele>
        <time>2008-05-04T12:00:59Z</time>
      </trkpt>
      <trkpt lat="45.0887" lon="5.53455">
        <ele>1184</ele>
        <time>2008-05-04T12:01:22Z</time>
      </trkpt>
      <trkpt lat="45.08869" lon="5.53448">
        <ele>1184</ele>
        <time>2008-05-04T12:01:40Z</time>
      </trkpt>
      <trkpt lat="45.08867" lon="5.53426">
        <ele>1183</ele>
        <time>2008-05-04T12:02:00Z</time>
      </trkpt>
      <trkpt lat="45.08866" lon="5.53409">
        <ele>1187</ele>
        <time>2008-05-04T12:02:16Z</time>
      </trkpt>
      <trkpt lat="45.08864" lon="5.53388">
        <ele>1189</ele>
        <time>2008-05-04T12:02:36Z</time>
      </trkpt>
      <trkpt lat="45.08864" lon="5.53369">
        <ele>1190</ele>
        <time>2008-05-04T12:02:55Z</time>
      </trkpt>
      <trkpt lat="45.08865" lon="5.53355">
        <ele>1191</ele>
        <time>2008-05-04T12:03:12Z</time>
      </trkpt>
      <trkpt lat="45.08865" lon="5.53332">
        <ele>1194</ele>
        <time>2008-05-04T12:03:32Z</time>
      </trkpt>
      <trkpt lat="45.08867" lon="5.53313">
        <ele>1195</ele>
        <time>2008-05-04T12:03:49Z</time>
      </trkpt>
      <trkpt lat="45.08871" lon="5.53293">
        <ele>1196</ele>
        <time>2008-05-04T12:04:06Z</time>
      </trkpt>
      <trkpt lat="45.08875" lon="5.53278">
        <ele>1197</ele>
        <time>2008-05-04T12:04:21Z</time>
      </trkpt>
      <trkpt lat="45.08881" lon="5.53262">
        <ele>1199</ele>
        <time>2008-05-04T12:04:37Z</time>
      </trkpt>
      <trkpt lat="45.08891" lon="5.53245">
        <ele>1201</ele>
        <time>2008-05-04T12:04:54Z</time>
      </trkpt>
      <trkpt lat="45.08896" lon="5.53234">
        <ele>1202</ele>
        <time>2008-05-04T12:05:08Z</time>
      </trkpt>
      <trkpt lat="45.08902" lon="5.53223">
        <ele>1201</ele>
        <time>2008-05-04T12:05:23Z</time>
      </trkpt>
      <trkpt lat="45.08908" lon="5.53213">
        <ele>1201</ele>
        <time>2008-05-04T12:05:41Z</time>
      </trkpt>
      <trkpt lat="45.08912" lon="5.53201">
        <ele>1201</ele>
        <time>2008-05-04T12:05:56Z</time>
      </trkpt>
      <trkpt lat="45.08916" lon="5.53186">
        <ele>1203</ele>
        <time>2008-05-04T12:06:12Z</time>
      </trkpt>
      <trkpt lat="45.08918" lon="5.53167">
        <ele>1212</ele>
        <time>2008-05-04T12:06:30Z</time>
      </trkpt>
      <trkpt lat="45.08919" lon="5.53138">
        <ele>1214</ele>
        <time>2008-05-04T12:06:46Z</time>
      </trkpt>
      <trkpt lat="45.0892" lon="5.53119">
        <ele>1214</ele>
        <time>2008-05-04T12:07:00Z</time>
      </trkpt>
      <trkpt lat="45.08927" lon="5.53113">
        <ele>1214</ele>
        <time>2008-05-04T12:07:19Z</time>
      </trkpt>
      <trkpt lat="45.08932" lon="5.53112">
        <ele>1214</ele>
        <time>2008-05-04T12:07:39Z</time>
      </trkpt>
      <trkpt lat="45.08932" lon="5.53112">
        <ele>1214</ele>
        <time>2008-05-04T12:07:58Z</time>
      </trkpt>
      <trkpt lat="45.08933" lon="5.53112">
        <ele>1214</ele>
        <time>2008-05-04T12:08:02Z</time>
      </trkpt>
      <trkpt lat="45.08941" lon="5.53114">
        <ele>1215</ele>
        <time>2008-05-04T12:08:09Z</time>
      </trkpt>
      <trkpt lat="45.0896" lon="5.53122">
        <ele>1217</ele>
        <time>2008-05-04T12:08:25Z</time>
      </trkpt>
      <trkpt lat="45.08974" lon="5.5313">
        <ele>1219</ele>
        <time>2008-05-04T12:08:36Z</time>
      </trkpt>
      <trkpt lat="45.08998" lon="5.53138">
        <ele>1222</ele>
        <time>2008-05-04T12:08:53Z</time>
      </trkpt>
      <trkpt lat="45.09025" lon="5.53149">
        <ele>1225</ele>
        <time>2008-05-04T12:09:06Z</time>
      </trkpt>
      <trkpt lat="45.09051" lon="5.5316">
        <ele>1224</ele>
        <time>2008-05-04T12:09:18Z</time>
      </trkpt>
      <trkpt lat="45.09073" lon="5.53172">
        <ele>1236</ele>
        <time>2008-05-04T12:09:30Z</time>
      </trkpt>
      <trkpt lat="45.09082" lon="5.53173">
        <ele>1234</ele>
        <time>2008-05-04T12:09:49Z</time>
      </trkpt>
      <trkpt lat="45.09093" lon="5.5318">
        <ele>1235</ele>
        <time>2008-05-04T12:09:55Z</time>
      </trkpt>
      <trkpt lat="45.0912" lon="5.53199">
        <ele>1237</ele>
        <time>2008-05-04T12:10:05Z</time>
      </trkpt>
      <trkpt lat="45.09146" lon="5.53211">
        <ele>1238</ele>
        <time>2008-05-04T12:10:10Z</time>
      </trkpt>
      <trkpt lat="45.09178" lon="5.53219">
        <ele>1229</ele>
        <time>2008-05-04T12:10:15Z</time>
      </trkpt>
      <trkpt lat="45.09212" lon="5.53224">
        <ele>1227</ele>
        <time>2008-05-04T12:10:20Z</time>
      </trkpt>
      <trkpt lat="45.09234" lon="5.53231">
        <ele>1228</ele>
        <time>2008-05-04T12:10:25Z</time>
      </trkpt>
      <trkpt lat="45.09252" lon="5.53236">
        <ele>1224</ele>
        <time>2008-05-04T12:10:29Z</time>
      </trkpt>
      <trkpt lat="45.09273" lon="5.53239">
        <ele>1220</ele>
        <time>2008-05-04T12:10:34Z</time>
      </trkpt>
      <trkpt lat="45.09299" lon="5.53238">
        <ele>1216</ele>
        <time>2008-05-04T12:10:38Z</time>
      </trkpt>
      <trkpt lat="45.09312" lon="5.53236">
        <ele>1215</ele>
        <time>2008-05-04T12:10:40Z</time>
      </trkpt>
      <trkpt lat="45.09324" lon="5.53237">
        <ele>1216</ele>
        <time>2008-05-04T12:10:42Z</time>
      </trkpt>
      <trkpt lat="45.09349" lon="5.53233">
        <ele>1208</ele>
        <time>2008-05-04T12:10:46Z</time>
      </trkpt>
      <trkpt lat="45.09364" lon="5.5323">
        <ele>1205</ele>
        <time>2008-05-04T12:10:48Z</time>
      </trkpt>
      <trkpt lat="45.09395" lon="5.53232">
        <ele>1203</ele>
        <time>2008-05-04T12:10:52Z</time>
      </trkpt>
      <trkpt lat="45.09402" lon="5.53233">
        <ele>1204</ele>
        <time>2008-05-04T12:10:53Z</time>
      </trkpt>
      <trkpt lat="45.0941" lon="5.53236">
        <ele>1205</ele>
        <time>2008-05-04T12:10:54Z</time>
      </trkpt>
      <trkpt lat="45.09424" lon="5.53243">
        <ele>1203</ele>
        <time>2008-05-04T12:10:56Z</time>
      </trkpt>
      <trkpt lat="45.09446" lon="5.53255">
        <ele>1220</ele>
        <time>2008-05-04T12:10:59Z</time>
      </trkpt>
      <trkpt lat="45.09466" lon="5.53269">
        <ele>1222</ele>
        <time>2008-05-04T12:11:02Z</time>
      </trkpt>
      <trkpt lat="45.09507" lon="5.53279">
        <ele>1222</ele>
        <time>2008-05-04T12:11:12Z</time>
      </trkpt>
      <trkpt lat="45.09521" lon="5.53268">
        <ele>1220</ele>
        <time>2008-05-04T12:11:23Z</time>
      </trkpt>
      <trkpt lat="45.09527" lon="5.53263">
        <ele>1220</ele>
        <time>2008-05-04T12:11:40Z</time>
      </trkpt>
      <trkpt lat="45.09541" lon="5.53254">
        <ele>1221</ele>
        <time>2008-05-04T12:11:58Z</time>
      </trkpt>
      <trkpt lat="45.09557" lon="5.53252">
        <ele>1221</ele>
        <time>2008-05-04T12:12:12Z</time>
      </trkpt>
      <trkpt lat="45.09566" lon="5.53246">
        <ele>1201</ele>
        <time>2008-05-04T12:12:23Z</time>
      </trkpt>
      <trkpt lat="45.09576" lon="5.53238">
        <ele>1203</ele>
        <time>2008-05-04T12:12:37Z</time>
      </trkpt>
      <trkpt lat="45.09591" lon="5.53234">
        <ele>1205</ele>
        <time>2008-05-04T12:12:54Z</time>
      </trkpt>
      <trkpt lat="45.09608" lon="5.53236">
        <ele>1204</ele>
        <time>2008-05-04T12:13:09Z</time>
      </trkpt>
      <trkpt lat="45.09615" lon="5.53234">
        <ele>1203</ele>
        <time>2008-05-04T12:13:21Z</time>
      </trkpt>
      <trkpt lat="45.09622" lon="5.53236">
        <ele>1204</ele>
        <time>2008-05-04T12:13:42Z</time>
      </trkpt>
      <trkpt lat="45.09637" lon="5.53233">
        <ele>1204</ele>
        <time>2008-05-04T12:13:47Z</time>
      </trkpt>
      <trkpt lat="45.09667" lon="5.53235">
        <ele>1213</ele>
        <time>2008-05-04T12:13:52Z</time>
      </trkpt>
      <trkpt lat="45.0969" lon="5.53228">
        <ele>1210</ele>
        <time>2008-05-04T12:13:56Z</time>
      </trkpt>
      <trkpt lat="45.09694" lon="5.53191">
        <ele>1202</ele>
        <time>2008-05-04T12:14:00Z</time>
      </trkpt>
      <trkpt lat="45.09692" lon="5.53164">
        <ele>1183</ele>
        <time>2008-05-04T12:14:04Z</time>
      </trkpt>
      <trkpt lat="45.09692" lon="5.5316">
        <ele>1182</ele>
        <time>2008-05-04T12:14:05Z</time>
      </trkpt>
      <trkpt lat="45.09703" lon="5.53159">
        <ele>1183</ele>
        <time>2008-05-04T12:14:09Z</time>
      </trkpt>
      <trkpt lat="45.09734" lon="5.53166">
        <ele>1188</ele>
        <time>2008-05-04T12:14:18Z</time>
      </trkpt>
      <trkpt lat="45.09748" lon="5.53174">
        <ele>1199</ele>
        <time>2008-05-04T12:14:27Z</time>
      </trkpt>
      <trkpt lat="45.09765" lon="5.53183">
        <ele>1202</ele>
        <time>2008-05-04T12:14:40Z</time>
      </trkpt>
      <trkpt lat="45.09789" lon="5.53194">
        <ele>1204</ele>
        <time>2008-05-04T12:14:57Z</time>
      </trkpt>
      <trkpt lat="45.0982" lon="5.53209">
        <ele>1205</ele>
        <time>2008-05-04T12:15:09Z</time>
      </trkpt>
      <trkpt lat="45.0984" lon="5.53217">
        <ele>1196</ele>
        <time>2008-05-04T12:15:13Z</time>
      </trkpt>
      <trkpt lat="45.09864" lon="5.53223">
        <ele>1194</ele>
        <time>2008-05-04T12:15:18Z</time>
      </trkpt>
      <trkpt lat="45.09869" lon="5.53224">
        <ele>1193</ele>
        <time>2008-05-04T12:15:20Z</time>
      </trkpt>
      <trkpt lat="45.09883" lon="5.53229">
        <ele>1192</ele>
        <time>2008-05-04T12:15:25Z</time>
      </trkpt>
      <trkpt lat="45.09895" lon="5.53232">
        <ele>1190</ele>
        <time>2008-05-04T12:15:28Z</time>
      </trkpt>
      <trkpt lat="45.09902" lon="5.53236">
        <ele>1190</ele>
        <time>2008-05-04T12:15:30Z</time>
      </trkpt>
      <trkpt lat="45.0991" lon="5.53239">
        <ele>1190</ele>
        <time>2008-05-04T12:15:32Z</time>
      </trkpt>
      <trkpt lat="45.0992" lon="5.53241">
        <ele>1182</ele>
        <time>2008-05-04T12:15:35Z</time>
      </trkpt>
      <trkpt lat="45.0993" lon="5.53243">
        <ele>1178</ele>
        <time>2008-05-04T12:15:38Z</time>
      </trkpt>
      <trkpt lat="45.0994" lon="5.53245">
        <ele>1172</ele>
        <time>2008-05-04T12:15:41Z</time>
      </trkpt>
      <trkpt lat="45.09965" lon="5.5326">
        <ele>1180</ele>
        <time>2008-05-04T12:15:45Z</time>
      </trkpt>
      <trkpt lat="45.09987" lon="5.5328">
        <ele>1177</ele>
        <time>2008-05-04T12:15:49Z</time>
      </trkpt>
      <trkpt lat="45.09997" lon="5.53288">
        <ele>1178</ele>
        <time>2008-05-04T12:15:51Z</time>
      </trkpt>
      <trkpt lat="45.1001" lon="5.53296">
        <ele>1157</ele>
        <time>2008-05-04T12:15:55Z</time>
      </trkpt>
      <trkpt lat="45.10021" lon="5.53307">
        <ele>1157</ele>
        <time>2008-05-04T12:15:59Z</time>
      </trkpt>
      <trkpt lat="45.10029" lon="5.53312">
        <ele>1156</ele>
        <time>2008-05-04T12:16:02Z</time>
      </trkpt>
      <trkpt lat="45.10039" lon="5.53315">
        <ele>1154</ele>
        <time>2008-05-04T12:16:05Z</time>
      </trkpt>
      <trkpt lat="45.10049" lon="5.53315">
        <ele>1152</ele>
        <time>2008-05-04T12:16:08Z</time>
      </trkpt>
      <trkpt lat="45.10054" lon="5.53316">
        <ele>1151</ele>
        <time>2008-05-04T12:16:09Z</time>
      </trkpt>
      <trkpt lat="45.10065" lon="5.53315">
        <ele>1149</ele>
        <time>2008-05-04T12:16:11Z</time>
      </trkpt>
      <trkpt lat="45.10116" lon="5.53337">
        <ele>1152</ele>
        <time>2008-05-04T12:16:18Z</time>
      </trkpt>
      <trkpt lat="45.10161" lon="5.53347">
        <ele>1143</ele>
        <time>2008-05-04T12:16:26Z</time>
      </trkpt>
      <trkpt lat="45.10186" lon="5.53352">
        <ele>1139</ele>
        <time>2008-05-04T12:16:37Z</time>
      </trkpt>
      <trkpt lat="45.10213" lon="5.53351">
        <ele>1138</ele>
        <time>2008-05-04T12:16:48Z</time>
      </trkpt>
      <trkpt lat="45.10221" lon="5.53351">
        <ele>1137</ele>
        <time>2008-05-04T12:16:50Z</time>
      </trkpt>
      <trkpt lat="45.10245" lon="5.53352">
        <ele>1133</ele>
        <time>2008-05-04T12:16:54Z</time>
      </trkpt>
      <trkpt lat="45.10274" lon="5.53358">
        <ele>1127</ele>
        <time>2008-05-04T12:16:58Z</time>
      </trkpt>
      <trkpt lat="45.10307" lon="5.53377">
        <ele>1128</ele>
        <time>2008-05-04T12:17:02Z</time>
      </trkpt>
      <trkpt lat="45.10325" lon="5.53396">
        <ele>1130</ele>
        <time>2008-05-04T12:17:05Z</time>
      </trkpt>
      <trkpt lat="45.10337" lon="5.53405">
        <ele>1131</ele>
        <time>2008-05-04T12:17:07Z</time>
      </trkpt>
      <trkpt lat="45.10357" lon="5.53403">
        <ele>1130</ele>
        <time>2008-05-04T12:17:11Z</time>
      </trkpt>
      <trkpt lat="45.10384" lon="5.53363">
        <ele>1126</ele>
        <time>2008-05-04T12:17:27Z</time>
      </trkpt>
      <trkpt lat="45.10405" lon="5.53328">
        <ele>1114</ele>
        <time>2008-05-04T12:17:42Z</time>
      </trkpt>
      <trkpt lat="45.10411" lon="5.53295">
        <ele>1108</ele>
        <time>2008-05-04T12:17:54Z</time>
      </trkpt>
      <trkpt lat="45.10431" lon="5.53288">
        <ele>1106</ele>
        <time>2008-05-04T12:18:10Z</time>
      </trkpt>
      <trkpt lat="45.10438" lon="5.53288">
        <ele>1106</ele>
        <time>2008-05-04T12:18:24Z</time>
      </trkpt>
      <trkpt lat="45.10471" lon="5.53302">
        <ele>1107</ele>
        <time>2008-05-04T12:18:38Z</time>
      </trkpt>
      <trkpt lat="45.1049" lon="5.53308">
        <ele>1110</ele>
        <time>2008-05-04T12:18:48Z</time>
      </trkpt>
      <trkpt lat="45.10491" lon="5.53309">
        <ele>1110</ele>
        <time>2008-05-04T12:19:00Z</time>
      </trkpt>
      <trkpt lat="45.10499" lon="5.5331">
        <ele>1110</ele>
        <time>2008-05-04T12:19:04Z</time>
      </trkpt>
      <trkpt lat="45.10507" lon="5.53312">
        <ele>1105</ele>
        <time>2008-05-04T12:19:06Z</time>
      </trkpt>
      <trkpt lat="45.10545" lon="5.5333">
        <ele>1101</ele>
        <time>2008-05-04T12:19:14Z</time>
      </trkpt>
      <trkpt lat="45.10571" lon="5.53348">
        <ele>1119</ele>
        <time>2008-05-04T12:19:25Z</time>
      </trkpt>
      <trkpt lat="45.106" lon="5.53363">
        <ele>1119</ele>
        <time>2008-05-04T12:19:39Z</time>
      </trkpt>
      <trkpt lat="45.10625" lon="5.53367">
        <ele>1120</ele>
        <time>2008-05-04T12:19:50Z</time>
      </trkpt>
      <trkpt lat="45.1064" lon="5.53367">
        <ele>1120</ele>
        <time>2008-05-04T12:19:56Z</time>
      </trkpt>
      <trkpt lat="45.10655" lon="5.5337">
        <ele>1120</ele>
        <time>2008-05-04T12:20:03Z</time>
      </trkpt>
      <trkpt lat="45.10695" lon="5.53373">
        <ele>1115</ele>
        <time>2008-05-04T12:20:17Z</time>
      </trkpt>
      <trkpt lat="45.10723" lon="5.53383">
        <ele>1115</ele>
        <time>2008-05-04T12:20:29Z</time>
      </trkpt>
      <trkpt lat="45.10758" lon="5.53399">
        <ele>1110</ele>
        <time>2008-05-04T12:20:46Z</time>
      </trkpt>
      <trkpt lat="45.10787" lon="5.53412">
        <ele>1105</ele>
        <time>2008-05-04T12:21:01Z</time>
      </trkpt>
      <trkpt lat="45.10817" lon="5.53427">
        <ele>1117</ele>
        <time>2008-05-04T12:21:13Z</time>
      </trkpt>
      <trkpt lat="45.10845" lon="5.53445">
        <ele>1105</ele>
        <time>2008-05-04T12:21:27Z</time>
      </trkpt>
      <trkpt lat="45.10866" lon="5.53453">
        <ele>1104</ele>
        <time>2008-05-04T12:21:41Z</time>
      </trkpt>
      <trkpt lat="45.1088" lon="5.53467">
        <ele>1104</ele>
        <time>2008-05-04T12:22:04Z</time>
      </trkpt>
      <trkpt lat="45.10889" lon="5.53474">
        <ele>1103</ele>
        <time>2008-05-04T12:22:15Z</time>
      </trkpt>
      <trkpt lat="45.10893" lon="5.53471">
        <ele>1103</ele>
        <time>2008-05-04T12:22:28Z</time>
      </trkpt>
      <trkpt lat="45.10893" lon="5.53464">
        <ele>1101</ele>
        <time>2008-05-04T12:22:50Z</time>
      </trkpt>
      <trkpt lat="45.10908" lon="5.53471">
        <ele>1101</ele>
        <time>2008-05-04T12:22:56Z</time>
      </trkpt>
      <trkpt lat="45.10921" lon="5.53478">
        <ele>1086</ele>
        <time>2008-05-04T12:22:59Z</time>
      </trkpt>
      <trkpt lat="45.10936" lon="5.53493">
        <ele>1086</ele>
        <time>2008-05-04T12:23:03Z</time>
      </trkpt>
      <trkpt lat="45.10941" lon="5.535">
        <ele>1096</ele>
        <time>2008-05-04T12:23:06Z</time>
      </trkpt>
      <trkpt lat="45.10942" lon="5.53502">
        <ele>1095</ele>
        <time>2008-05-04T12:23:07Z</time>
      </trkpt>
      <trkpt lat="45.10948" lon="5.53515">
        <ele>1094</ele>
        <time>2008-05-04T12:23:14Z</time>
      </trkpt>
      <trkpt lat="45.10962" lon="5.53531">
        <ele>1092</ele>
        <time>2008-05-04T12:23:21Z</time>
      </trkpt>
      <trkpt lat="45.10974" lon="5.53539">
        <ele>1090</ele>
        <time>2008-05-04T12:23:25Z</time>
      </trkpt>
      <trkpt lat="45.1098" lon="5.53541">
        <ele>1090</ele>
        <time>2008-05-04T12:23:28Z</time>
      </trkpt>
      <trkpt lat="45.10983" lon="5.53541">
        <ele>1089</ele>
        <time>2008-05-04T12:23:41Z</time>
      </trkpt>
      <trkpt lat="45.10984" lon="5.53531">
        <ele>1087</ele>
        <time>2008-05-04T12:23:58Z</time>
      </trkpt>
      <trkpt lat="45.10985" lon="5.53528">
        <ele>1087</ele>
        <time>2008-05-04T12:24:13Z</time>
      </trkpt>
      <trkpt lat="45.10992" lon="5.53528">
        <ele>1085</ele>
        <time>2008-05-04T12:24:17Z</time>
      </trkpt>
      <trkpt lat="45.10996" lon="5.53528">
        <ele>1085</ele>
        <time>2008-05-04T12:24:20Z</time>
      </trkpt>
      <trkpt lat="45.10997" lon="5.53528">
        <ele>1085</ele>
        <time>2008-05-04T12:24:21Z</time>
      </trkpt>
      <trkpt lat="45.10997" lon="5.53528">
        <ele>1085</ele>
        <time>2008-05-04T12:24:22Z</time>
      </trkpt>
      <trkpt lat="45.10999" lon="5.53532">
        <ele>1085</ele>
        <time>2008-05-04T12:24:26Z</time>
      </trkpt>
      <trkpt lat="45.11" lon="5.53535">
        <ele>1086</ele>
        <time>2008-05-04T12:24:45Z</time>
      </trkpt>
      <trkpt lat="45.10999" lon="5.53541">
        <ele>1087</ele>
        <time>2008-05-04T12:24:59Z</time>
      </trkpt>
      <trkpt lat="45.11005" lon="5.53553">
        <ele>1070</ele>
        <time>2008-05-04T12:25:05Z</time>
      </trkpt>
      <trkpt lat="45.11015" lon="5.5356">
        <ele>1070</ele>
        <time>2008-05-04T12:25:09Z</time>
      </trkpt>
      <trkpt lat="45.11027" lon="5.53567">
        <ele>1068</ele>
        <time>2008-05-04T12:25:13Z</time>
      </trkpt>
      <trkpt lat="45.11032" lon="5.53569">
        <ele>1067</ele>
        <time>2008-05-04T12:25:16Z</time>
      </trkpt>
      <trkpt lat="45.11047" lon="5.53576">
        <ele>1064</ele>
        <time>2008-05-04T12:25:22Z</time>
      </trkpt>
      <trkpt lat="45.11051" lon="5.53577">
        <ele>1063</ele>
        <time>2008-05-04T12:25:23Z</time>
      </trkpt>
      <trkpt lat="45.1107" lon="5.53582">
        <ele>1060</ele>
        <time>2008-05-04T12:25:26Z</time>
      </trkpt>
      <trkpt lat="45.11076" lon="5.53583">
        <ele>1059</ele>
        <time>2008-05-04T12:25:27Z</time>
      </trkpt>
      <trkpt lat="45.11097" lon="5.53591">
        <ele>1053</ele>
        <time>2008-05-04T12:25:31Z</time>
      </trkpt>
      <trkpt lat="45.11119" lon="5.53581">
        <ele>1038</ele>
        <time>2008-05-04T12:25:36Z</time>
      </trkpt>
      <trkpt lat="45.11122" lon="5.53579">
        <ele>1037</ele>
        <time>2008-05-04T12:25:37Z</time>
      </trkpt>
      <trkpt lat="45.1113" lon="5.53575">
        <ele>1035</ele>
        <time>2008-05-04T12:25:40Z</time>
      </trkpt>
      <trkpt lat="45.11134" lon="5.53575">
        <ele>1034</ele>
        <time>2008-05-04T12:25:42Z</time>
      </trkpt>
      <trkpt lat="45.11144" lon="5.53575">
        <ele>1031</ele>
        <time>2008-05-04T12:25:47Z</time>
      </trkpt>
      <trkpt lat="45.11149" lon="5.53579">
        <ele>1030</ele>
        <time>2008-05-04T12:25:51Z</time>
      </trkpt>
      <trkpt lat="45.11152" lon="5.53581">
        <ele>1030</ele>
        <time>2008-05-04T12:25:53Z</time>
      </trkpt>
      <trkpt lat="45.1116" lon="5.53588">
        <ele>1032</ele>
        <time>2008-05-04T12:25:58Z</time>
      </trkpt>
      <trkpt lat="45.11165" lon="5.53592">
        <ele>1032</ele>
        <time>2008-05-04T12:26:01Z</time>
      </trkpt>
      <trkpt lat="45.11166" lon="5.53595">
        <ele>1034</ele>
        <time>2008-05-04T12:26:16Z</time>
      </trkpt>
      <trkpt lat="45.11168" lon="5.53596">
        <ele>1025</ele>
        <time>2008-05-04T12:26:21Z</time>
      </trkpt>
      <trkpt lat="45.1117" lon="5.53598">
        <ele>1025</ele>
        <time>2008-05-04T12:26:23Z</time>
      </trkpt>
      <trkpt lat="45.11181" lon="5.53605">
        <ele>1024</ele>
        <time>2008-05-04T12:26:29Z</time>
      </trkpt>
      <trkpt lat="45.1119" lon="5.53611">
        <ele>1023</ele>
        <time>2008-05-04T12:26:35Z</time>
      </trkpt>
      <trkpt lat="45.11192" lon="5.53616">
        <ele>1023</ele>
        <time>2008-05-04T12:26:38Z</time>
      </trkpt>
      <trkpt lat="45.11191" lon="5.53621">
        <ele>1024</ele>
        <time>2008-05-04T12:26:40Z</time>
      </trkpt>
      <trkpt lat="45.1119" lon="5.53636">
        <ele>1025</ele>
        <time>2008-05-04T12:26:44Z</time>
      </trkpt>
      <trkpt lat="45.11202" lon="5.53639">
        <ele>1024</ele>
        <time>2008-05-04T12:26:49Z</time>
      </trkpt>
      <trkpt lat="45.11204" lon="5.53637">
        <ele>1024</ele>
        <time>2008-05-04T12:26:50Z</time>
      </trkpt>
      <trkpt lat="45.11218" lon="5.53626">
        <ele>1021</ele>
        <time>2008-05-04T12:27:03Z</time>
      </trkpt>
      <trkpt lat="45.11229" lon="5.53618">
        <ele>1019</ele>
        <time>2008-05-04T12:27:18Z</time>
      </trkpt>
      <trkpt lat="45.11238" lon="5.53609">
        <ele>1017</ele>
        <time>2008-05-04T12:27:27Z</time>
      </trkpt>
      <trkpt lat="45.11236" lon="5.53614">
        <ele>1018</ele>
        <time>2008-05-04T12:27:42Z</time>
      </trkpt>
      <trkpt lat="45.11237" lon="5.53612">
        <ele>1018</ele>
        <time>2008-05-04T12:28:06Z</time>
      </trkpt>
      <trkpt lat="45.11239" lon="5.53615">
        <ele>1018</ele>
        <time>2008-05-04T12:28:23Z</time>
      </trkpt>
      <trkpt lat="45.11256" lon="5.53591">
        <ele>1010</ele>
        <time>2008-05-04T12:28:33Z</time>
      </trkpt>
      <trkpt lat="45.11263" lon="5.53575">
        <ele>1004</ele>
        <time>2008-05-04T12:28:37Z</time>
      </trkpt>
      <trkpt lat="45.1127" lon="5.53551">
        <ele>1001</ele>
        <time>2008-05-04T12:28:49Z</time>
      </trkpt>
      <trkpt lat="45.11273" lon="5.5355">
        <ele>1000</ele>
        <time>2008-05-04T12:29:02Z</time>
      </trkpt>
      <trkpt lat="45.11273" lon="5.53555">
        <ele>1001</ele>
        <time>2008-05-04T12:29:22Z</time>
      </trkpt>
      <trkpt lat="45.11276" lon="5.53554">
        <ele>1001</ele>
        <time>2008-05-04T12:29:33Z</time>
      </trkpt>
      <trkpt lat="45.11275" lon="5.53553">
        <ele>1001</ele>
        <time>2008-05-04T12:29:38Z</time>
      </trkpt>
      <trkpt lat="45.11272" lon="5.53542">
        <ele>1000</ele>
        <time>2008-05-04T12:29:43Z</time>
      </trkpt>
      <trkpt lat="45.1126" lon="5.53464">
        <ele>983</ele>
        <time>2008-05-04T12:29:57Z</time>
      </trkpt>
      <trkpt lat="45.11247" lon="5.53414">
        <ele>979</ele>
        <time>2008-05-04T12:30:03Z</time>
      </trkpt>
      <trkpt lat="45.11228" lon="5.53324">
        <ele>978</ele>
        <time>2008-05-04T12:30:15Z</time>
      </trkpt>
      <trkpt lat="45.11238" lon="5.53287">
        <ele>977</ele>
        <time>2008-05-04T12:30:24Z</time>
      </trkpt>
      <trkpt lat="45.11242" lon="5.53274">
        <ele>975</ele>
        <time>2008-05-04T12:30:35Z</time>
      </trkpt>
      <trkpt lat="45.11242" lon="5.53273">
        <ele>975</ele>
        <time>2008-05-04T12:30:56Z</time>
      </trkpt>
      <trkpt lat="45.11242" lon="5.53273">
        <ele>975</ele>
        <time>2008-05-04T12:30:57Z</time>
      </trkpt>
      <trkpt lat="45.11278" lon="5.53278">
        <ele>964</ele>
        <time>2008-05-04T12:31:07Z</time>
      </trkpt>
      <trkpt lat="45.11301" lon="5.53282">
        <ele>964</ele>
        <time>2008-05-04T12:31:10Z</time>
      </trkpt>
      <trkpt lat="45.11327" lon="5.53297">
        <ele>964</ele>
        <time>2008-05-04T12:31:13Z</time>
      </trkpt>
      <trkpt lat="45.11335" lon="5.53303">
        <ele>962</ele>
        <time>2008-05-04T12:31:14Z</time>
      </trkpt>
      <trkpt lat="45.1136" lon="5.53354">
        <ele>962</ele>
        <time>2008-05-04T12:31:20Z</time>
      </trkpt>
      <trkpt lat="45.11368" lon="5.53367">
        <ele>961</ele>
        <time>2008-05-04T12:31:22Z</time>
      </trkpt>
      <trkpt lat="45.11384" lon="5.53386">
        <ele>961</ele>
        <time>2008-05-04T12:31:26Z</time>
      </trkpt>
      <trkpt lat="45.11455" lon="5.53423">
        <ele>963</ele>
        <time>2008-05-04T12:31:44Z</time>
      </trkpt>
      <trkpt lat="45.11502" lon="5.53409">
        <ele>958</ele>
        <time>2008-05-04T12:31:57Z</time>
      </trkpt>
      <trkpt lat="45.11546" lon="5.53375">
        <ele>960</ele>
        <time>2008-05-04T12:32:11Z</time>
      </trkpt>
      <trkpt lat="45.11603" lon="5.534">
        <ele>961</ele>
        <time>2008-05-04T12:32:28Z</time>
      </trkpt>
      <trkpt lat="45.11658" lon="5.53153">
        <ele>966</ele>
      </trkpt>
      <trkpt lat="45.12251" lon="5.53058">
        <ele>974</ele>
      </trkpt>
      <trkpt lat="45.12482" lon="5.52975">
        <ele>980</ele>
      </trkpt>
      <trkpt lat="45.12608" lon="5.52819">
        <ele>991</ele>
      </trkpt>
      <trkpt lat="45.12661" lon="5.52766">
        <ele>993</ele>
      </trkpt>
      <trkpt lat="45.12727" lon="5.52716">
        <ele>992</ele>
      </trkpt>
      <trkpt lat="45.12817" lon="5.52146">
        <ele>1004</ele>
      </trkpt>
      <trkpt lat="45.12856" lon="5.52068">
        <ele>1002</ele>
      </trkpt>
      <trkpt lat="45.12959" lon="5.52004">
        <ele>1002</ele>
      </trkpt>
      <trkpt lat="45.13259" lon="5.51901">
        <ele>1006</ele>
      </trkpt>
      <trkpt lat="45.13344" lon="5.51914">
        <ele>1004</ele>
      </trkpt>
      <trkpt lat="45.13753" lon="5.51772">
        <ele>1002</ele>
      </trkpt>
      <trkpt lat="45.13856" lon="5.5166">
        <ele>1023</ele>
      </trkpt>
      <trkpt lat="45.14114" lon="5.51617">
        <ele>1018</ele>
      </trkpt>
      <trkpt lat="45.14259" lon="5.51532">
        <ele>1033</ele>
      </trkpt>
      <trkpt lat="45.143" lon="5.51512">
        <ele>1035</ele>
        <time>2017-06-11T08:22:50.000Z</time>
      </trkpt>
      <trkpt lat="45.14274" lon="5.51505">
        <ele>1036</ele>
        <time>2017-06-11T08:23:02.000Z</time>
      </trkpt>
      <trkpt lat="45.14273" lon="5.51506">
        <ele>1036</ele>
        <time>2017-06-11T08:23:15.000Z</time>
      </trkpt>
      <trkpt lat="45.14271" lon="5.51505">
        <ele>1036</ele>
        <time>2017-06-11T08:23:30.000Z</time>
      </trkpt>
      <trkpt lat="45.14267" lon="5.51505">
        <ele>1037</ele>
        <time>2017-06-11T08:23:48.000Z</time>
      </trkpt>
      <trkpt lat="45.14264" lon="5.51506">
        <ele>1037</ele>
        <time>2017-06-11T08:24:05.000Z</time>
      </trkpt>
      <trkpt lat="45.14261" lon="5.51504">
        <ele>1038</ele>
        <time>2017-06-11T08:24:12.000Z</time>
      </trkpt>
      <trkpt lat="45.14236" lon="5.51503">
        <ele>1038</ele>
        <time>2017-06-11T08:24:26.000Z</time>
      </trkpt>
      <trkpt lat="45.14209" lon="5.51497">
        <ele>1048</ele>
        <time>2017-06-11T08:24:40.000Z</time>
      </trkpt>
      <trkpt lat="45.14187" lon="5.51477">
        <ele>1049</ele>
        <time>2017-06-11T08:24:55.000Z</time>
      </trkpt>
      <trkpt lat="45.14185" lon="5.51483">
        <ele>1048</ele>
        <time>2017-06-11T08:25:09.000Z</time>
      </trkpt>
      <trkpt lat="45.14181" lon="5.51476">
        <ele>1049</ele>
        <time>2017-06-11T08:25:53.000Z</time>
      </trkpt>
      <trkpt lat="45.14185" lon="5.51472">
        <ele>1049</ele>
        <time>2017-06-11T08:26:36.000Z</time>
      </trkpt>
      <trkpt lat="45.14169" lon="5.51463">
        <ele>1050</ele>
        <time>2017-06-11T08:26:49.000Z</time>
      </trkpt>
      <trkpt lat="45.14147" lon="5.51469">
        <ele>1051</ele>
        <time>2017-06-11T08:27:02.000Z</time>
      </trkpt>
      <trkpt lat="45.14126" lon="5.51469">
        <ele>1052</ele>
        <time>2017-06-11T08:27:14.000Z</time>
      </trkpt>
      <trkpt lat="45.14124" lon="5.51468">
        <ele>1052</ele>
        <time>2017-06-11T08:27:16.000Z</time>
      </trkpt>
      <trkpt lat="45.14117" lon="5.51463">
        <ele>1053</ele>
        <time>2017-06-11T08:27:21.000Z</time>
      </trkpt>
      <trkpt lat="45.14105" lon="5.5146">
        <ele>1054</ele>
        <time>2017-06-11T08:27:33.000Z</time>
      </trkpt>
      <trkpt lat="45.14096" lon="5.51455">
        <ele>1054</ele>
        <time>2017-06-11T08:27:54.000Z</time>
      </trkpt>
      <trkpt lat="45.14091" lon="5.51453">
        <ele>1055</ele>
        <time>2017-06-11T08:27:57.000Z</time>
      </trkpt>
      <trkpt lat="45.14083" lon="5.51445">
        <ele>1060</ele>
        <time>2017-06-11T08:28:03.000Z</time>
      </trkpt>
      <trkpt lat="45.14069" lon="5.5143">
        <ele>1062</ele>
        <time>2017-06-11T08:28:13.000Z</time>
      </trkpt>
      <trkpt lat="45.14065" lon="5.51423">
        <ele>1062</ele>
        <time>2017-06-11T08:28:19.000Z</time>
      </trkpt>
      <trkpt lat="45.14056" lon="5.51423">
        <ele>1062</ele>
        <time>2017-06-11T08:28:29.000Z</time>
      </trkpt>
      <trkpt lat="45.14035" lon="5.51417">
        <ele>1064</ele>
        <time>2017-06-11T08:28:45.000Z</time>
      </trkpt>
      <trkpt lat="45.14031" lon="5.51407">
        <ele>1074</ele>
        <time>2017-06-11T08:28:55.000Z</time>
      </trkpt>
      <trkpt lat="45.14042" lon="5.5139">
        <ele>1075</ele>
        <time>2017-06-11T08:29:07.000Z</time>
      </trkpt>
      <trkpt lat="45.1404" lon="5.5137">
        <ele>1077</ele>
        <time>2017-06-11T08:29:18.000Z</time>
      </trkpt>
      <trkpt lat="45.14039" lon="5.51361">
        <ele>1078</ele>
        <time>2017-06-11T08:29:23.000Z</time>
      </trkpt>
      <trkpt lat="45.14036" lon="5.51339">
        <ele>1079</ele>
        <time>2017-06-11T08:29:37.000Z</time>
      </trkpt>
      <trkpt lat="45.14036" lon="5.5133">
        <ele>1088</ele>
        <time>2017-06-11T08:29:42.000Z</time>
      </trkpt>
      <trkpt lat="45.14035" lon="5.51323">
        <ele>1088</ele>
        <time>2017-06-11T08:29:46.000Z</time>
      </trkpt>
      <trkpt lat="45.14037" lon="5.51308">
        <ele>1089</ele>
        <time>2017-06-11T08:29:53.000Z</time>
      </trkpt>
      <trkpt lat="45.14036" lon="5.51303">
        <ele>1090</ele>
        <time>2017-06-11T08:29:56.000Z</time>
      </trkpt>
      <trkpt lat="45.14033" lon="5.51286">
        <ele>1091</ele>
        <time>2017-06-11T08:30:07.000Z</time>
      </trkpt>
      <trkpt lat="45.14033" lon="5.51282">
        <ele>1091</ele>
        <time>2017-06-11T08:30:10.000Z</time>
      </trkpt>
      <trkpt lat="45.14031" lon="5.51276">
        <ele>1091</ele>
        <time>2017-06-11T08:30:13.000Z</time>
      </trkpt>
      <trkpt lat="45.14023" lon="5.51251">
        <ele>1093</ele>
        <time>2017-06-11T08:30:27.000Z</time>
      </trkpt>
      <trkpt lat="45.14023" lon="5.51248">
        <ele>1099</ele>
        <time>2017-06-11T08:30:28.000Z</time>
      </trkpt>
      <trkpt lat="45.14018" lon="5.51237">
        <ele>1100</ele>
        <time>2017-06-11T08:30:40.000Z</time>
      </trkpt>
      <trkpt lat="45.14018" lon="5.51234">
        <ele>1100</ele>
        <time>2017-06-11T08:30:43.000Z</time>
      </trkpt>
      <trkpt lat="45.14013" lon="5.51219">
        <ele>1101</ele>
        <time>2017-06-11T08:30:50.000Z</time>
      </trkpt>
      <trkpt lat="45.14011" lon="5.51215">
        <ele>1101</ele>
        <time>2017-06-11T08:30:53.000Z</time>
      </trkpt>
      <trkpt lat="45.14009" lon="5.51209">
        <ele>1102</ele>
        <time>2017-06-11T08:30:57.000Z</time>
      </trkpt>
      <trkpt lat="45.14007" lon="5.51203">
        <ele>1102</ele>
        <time>2017-06-11T08:31:01.000Z</time>
      </trkpt>
      <trkpt lat="45.14004" lon="5.5119">
        <ele>1102</ele>
        <time>2017-06-11T08:31:09.000Z</time>
      </trkpt>
      <trkpt lat="45.14" lon="5.51187">
        <ele>1105</ele>
        <time>2017-06-11T08:31:12.000Z</time>
      </trkpt>
      <trkpt lat="45.13997" lon="5.51187">
        <ele>1105</ele>
        <time>2017-06-11T08:31:13.000Z</time>
      </trkpt>
      <trkpt lat="45.13996" lon="5.51187">
        <ele>1105</ele>
        <time>2017-06-11T08:31:14.000Z</time>
      </trkpt>
      <trkpt lat="45.1399" lon="5.51182">
        <ele>1105</ele>
        <time>2017-06-11T08:31:19.000Z</time>
      </trkpt>
      <trkpt lat="45.13993" lon="5.5117">
        <ele>1104</ele>
        <time>2017-06-11T08:31:23.000Z</time>
      </trkpt>
      <trkpt lat="45.13997" lon="5.51147">
        <ele>1108</ele>
        <time>2017-06-11T08:31:33.000Z</time>
      </trkpt>
      <trkpt lat="45.14" lon="5.51139">
        <ele>1109</ele>
        <time>2017-06-11T08:31:37.000Z</time>
      </trkpt>
      <trkpt lat="45.13998" lon="5.51127">
        <ele>1110</ele>
        <time>2017-06-11T08:31:43.000Z</time>
      </trkpt>
      <trkpt lat="45.13999" lon="5.51101">
        <ele>1109</ele>
        <time>2017-06-11T08:31:55.000Z</time>
      </trkpt>
      <trkpt lat="45.13999" lon="5.51092">
        <ele>1108</ele>
        <time>2017-06-11T08:32:00.000Z</time>
      </trkpt>
      <trkpt lat="45.13998" lon="5.51082">
        <ele>1107</ele>
        <time>2017-06-11T08:32:06.000Z</time>
      </trkpt>
      <trkpt lat="45.14004" lon="5.51074">
        <ele>1111</ele>
        <time>2017-06-11T08:32:17.000Z</time>
      </trkpt>
      <trkpt lat="45.14013" lon="5.51067">
        <ele>1114</ele>
        <time>2017-06-11T08:32:29.000Z</time>
      </trkpt>
      <trkpt lat="45.14021" lon="5.51059">
        <ele>1117</ele>
        <time>2017-06-11T08:32:40.000Z</time>
      </trkpt>
      <trkpt lat="45.1403" lon="5.51034">
        <ele>1120</ele>
        <time>2017-06-11T08:32:55.000Z</time>
      </trkpt>
      <trkpt lat="45.14031" lon="5.51025">
        <ele>1121</ele>
        <time>2017-06-11T08:33:00.000Z</time>
      </trkpt>
      <trkpt lat="45.14024" lon="5.51012">
        <ele>1121</ele>
        <time>2017-06-11T08:33:10.000Z</time>
      </trkpt>
      <trkpt lat="45.14021" lon="5.51009">
        <ele>1121</ele>
        <time>2017-06-11T08:33:13.000Z</time>
      </trkpt>
      <trkpt lat="45.14014" lon="5.51004">
        <ele>1121</ele>
        <time>2017-06-11T08:33:24.000Z</time>
      </trkpt>
      <trkpt lat="45.14009" lon="5.51009">
        <ele>1121</ele>
        <time>2017-06-11T08:33:37.000Z</time>
      </trkpt>
      <trkpt lat="45.13997" lon="5.5102">
        <ele>1120</ele>
        <time>2017-06-11T08:33:49.000Z</time>
      </trkpt>
      <trkpt lat="45.13991" lon="5.51023">
        <ele>1120</ele>
        <time>2017-06-11T08:33:53.000Z</time>
      </trkpt>
      <trkpt lat="45.13986" lon="5.51024">
        <ele>1120</ele>
        <time>2017-06-11T08:33:57.000Z</time>
      </trkpt>
      <trkpt lat="45.13982" lon="5.51026">
        <ele>1120</ele>
        <time>2017-06-11T08:34:00.000Z</time>
      </trkpt>
      <trkpt lat="45.13979" lon="5.51025">
        <ele>1120</ele>
        <time>2017-06-11T08:34:03.000Z</time>
      </trkpt>
      <trkpt lat="45.13966" lon="5.51025">
        <ele>1120</ele>
        <time>2017-06-11T08:34:14.000Z</time>
      </trkpt>
      <trkpt lat="45.13965" lon="5.51022">
        <ele>1121</ele>
        <time>2017-06-11T08:34:16.000Z</time>
      </trkpt>
      <trkpt lat="45.13952" lon="5.51016">
        <ele>1122</ele>
        <time>2017-06-11T08:34:27.000Z</time>
      </trkpt>
      <trkpt lat="45.13933" lon="5.51022">
        <ele>1123</ele>
        <time>2017-06-11T08:34:38.000Z</time>
      </trkpt>
      <trkpt lat="45.1393" lon="5.51015">
        <ele>1124</ele>
        <time>2017-06-11T08:34:43.000Z</time>
      </trkpt>
      <trkpt lat="45.13927" lon="5.51002">
        <ele>1126</ele>
        <time>2017-06-11T08:34:51.000Z</time>
      </trkpt>
      <trkpt lat="45.13921" lon="5.50994">
        <ele>1131</ele>
        <time>2017-06-11T08:34:57.000Z</time>
      </trkpt>
      <trkpt lat="45.13914" lon="5.50992">
        <ele>1134</ele>
        <time>2017-06-11T08:35:02.000Z</time>
      </trkpt>
      <trkpt lat="45.13912" lon="5.50991">
        <ele>1135</ele>
        <time>2017-06-11T08:35:04.000Z</time>
      </trkpt>
      <trkpt lat="45.13905" lon="5.5099">
        <ele>1137</ele>
        <time>2017-06-11T08:35:10.000Z</time>
      </trkpt>
      <trkpt lat="45.1389" lon="5.50982">
        <ele>1141</ele>
        <time>2017-06-11T08:35:24.000Z</time>
      </trkpt>
      <trkpt lat="45.13885" lon="5.5098">
        <ele>1142</ele>
        <time>2017-06-11T08:35:27.000Z</time>
      </trkpt>
      <trkpt lat="45.13879" lon="5.50968">
        <ele>1144</ele>
        <time>2017-06-11T08:35:37.000Z</time>
      </trkpt>
      <trkpt lat="45.13859" lon="5.50969">
        <ele>1146</ele>
        <time>2017-06-11T08:35:46.000Z</time>
      </trkpt>
      <trkpt lat="45.13851" lon="5.50967">
        <ele>1146</ele>
        <time>2017-06-11T08:35:51.000Z</time>
      </trkpt>
      <trkpt lat="45.13846" lon="5.50963">
        <ele>1147</ele>
        <time>2017-06-11T08:35:55.000Z</time>
      </trkpt>
      <trkpt lat="45.13825" lon="5.50959">
        <ele>1160</ele>
        <time>2017-06-11T08:36:12.000Z</time>
      </trkpt>
      <trkpt lat="45.13814" lon="5.50953">
        <ele>1161</ele>
        <time>2017-06-11T08:36:23.000Z</time>
      </trkpt>
      <trkpt lat="45.13808" lon="5.50941">
        <ele>1163</ele>
        <time>2017-06-11T08:36:35.000Z</time>
      </trkpt>
      <trkpt lat="45.13806" lon="5.50938">
        <ele>1163</ele>
        <time>2017-06-11T08:36:41.000Z</time>
      </trkpt>
      <trkpt lat="45.13796" lon="5.50947">
        <ele>1163</ele>
        <time>2017-06-11T08:36:53.000Z</time>
      </trkpt>
      <trkpt lat="45.13795" lon="5.50957">
        <ele>1163</ele>
        <time>2017-06-11T08:37:02.000Z</time>
      </trkpt>
      <trkpt lat="45.13795" lon="5.50983">
        <ele>1161</ele>
        <time>2017-06-11T08:37:14.000Z</time>
      </trkpt>
      <trkpt lat="45.13791" lon="5.51002">
        <ele>1156</ele>
        <time>2017-06-11T08:37:26.000Z</time>
      </trkpt>
      <trkpt lat="45.13785" lon="5.51023">
        <ele>1157</ele>
        <time>2017-06-11T08:37:39.000Z</time>
      </trkpt>
      <trkpt lat="45.13779" lon="5.51046">
        <ele>1157</ele>
        <time>2017-06-11T08:37:52.000Z</time>
      </trkpt>
      <trkpt lat="45.13776" lon="5.51051">
        <ele>1157</ele>
        <time>2017-06-11T08:37:56.000Z</time>
      </trkpt>
      <trkpt lat="45.13763" lon="5.51066">
        <ele>1159</ele>
        <time>2017-06-11T08:38:07.000Z</time>
      </trkpt>
      <trkpt lat="45.13759" lon="5.51067">
        <ele>1160</ele>
        <time>2017-06-11T08:38:10.000Z</time>
      </trkpt>
      <trkpt lat="45.1375" lon="5.51073">
        <ele>1161</ele>
        <time>2017-06-11T08:38:16.000Z</time>
      </trkpt>
      <trkpt lat="45.13747" lon="5.51075">
        <ele>1168</ele>
        <time>2017-06-11T08:38:18.000Z</time>
      </trkpt>
      <trkpt lat="45.13733" lon="5.51086">
        <ele>1165</ele>
        <time>2017-06-11T08:38:32.000Z</time>
      </trkpt>
      <trkpt lat="45.13711" lon="5.511">
        <ele>1167</ele>
        <time>2017-06-11T08:38:44.000Z</time>
      </trkpt>
      <trkpt lat="45.13704" lon="5.51103">
        <ele>1168</ele>
        <time>2017-06-11T08:38:49.000Z</time>
      </trkpt>
      <trkpt lat="45.13693" lon="5.51107">
        <ele>1169</ele>
        <time>2017-06-11T08:38:54.000Z</time>
      </trkpt>
      <trkpt lat="45.13665" lon="5.51109">
        <ele>1176</ele>
        <time>2017-06-11T08:39:10.000Z</time>
      </trkpt>
      <trkpt lat="45.13643" lon="5.51106">
        <ele>1176</ele>
        <time>2017-06-11T08:39:22.000Z</time>
      </trkpt>
      <trkpt lat="45.13639" lon="5.51104">
        <ele>1176</ele>
        <time>2017-06-11T08:39:25.000Z</time>
      </trkpt>
      <trkpt lat="45.13633" lon="5.51103">
        <ele>1176</ele>
        <time>2017-06-11T08:39:28.000Z</time>
      </trkpt>
      <trkpt lat="45.13631" lon="5.51103">
        <ele>1176</ele>
        <time>2017-06-11T08:39:29.000Z</time>
      </trkpt>
      <trkpt lat="45.1363" lon="5.51103">
        <ele>1176</ele>
        <time>2017-06-11T08:39:30.000Z</time>
      </trkpt>
      <trkpt lat="45.13628" lon="5.51103">
        <ele>1176</ele>
        <time>2017-06-11T08:39:31.000Z</time>
      </trkpt>
      <trkpt lat="45.13626" lon="5.51102">
        <ele>1176</ele>
        <time>2017-06-11T08:39:32.000Z</time>
      </trkpt>
      <trkpt lat="45.13624" lon="5.51101">
        <ele>1177</ele>
        <time>2017-06-11T08:39:33.000Z</time>
      </trkpt>
      <trkpt lat="45.13622" lon="5.511">
        <ele>1177</ele>
        <time>2017-06-11T08:39:34.000Z</time>
      </trkpt>
      <trkpt lat="45.13621" lon="5.51099">
        <ele>1177</ele>
        <time>2017-06-11T08:39:35.000Z</time>
      </trkpt>
      <trkpt lat="45.13619" lon="5.51098">
        <ele>1177</ele>
        <time>2017-06-11T08:39:36.000Z</time>
      </trkpt>
      <trkpt lat="45.13618" lon="5.51097">
        <ele>1177</ele>
        <time>2017-06-11T08:39:37.000Z</time>
      </trkpt>
      <trkpt lat="45.13616" lon="5.51096">
        <ele>1178</ele>
        <time>2017-06-11T08:39:38.000Z</time>
      </trkpt>
      <trkpt lat="45.13614" lon="5.51095">
        <ele>1178</ele>
        <time>2017-06-11T08:39:39.000Z</time>
      </trkpt>
      <trkpt lat="45.13612" lon="5.51094">
        <ele>1178</ele>
        <time>2017-06-11T08:39:40.000Z</time>
      </trkpt>
      <trkpt lat="45.13611" lon="5.51093">
        <ele>1178</ele>
        <time>2017-06-11T08:39:41.000Z</time>
      </trkpt>
      <trkpt lat="45.13606" lon="5.51086">
        <ele>1179</ele>
        <time>2017-06-11T08:39:45.000Z</time>
      </trkpt>
      <trkpt lat="45.13604" lon="5.51085">
        <ele>1179</ele>
        <time>2017-06-11T08:39:46.000Z</time>
      </trkpt>
      <trkpt lat="45.13602" lon="5.51084">
        <ele>1180</ele>
        <time>2017-06-11T08:39:47.000Z</time>
      </trkpt>
      <trkpt lat="45.136" lon="5.51083">
        <ele>1186</ele>
        <time>2017-06-11T08:39:48.000Z</time>
      </trkpt>
      <trkpt lat="45.13597" lon="5.51081">
        <ele>1186</ele>
        <time>2017-06-11T08:39:49.000Z</time>
      </trkpt>
      <trkpt lat="45.13592" lon="5.51073">
        <ele>1186</ele>
        <time>2017-06-11T08:39:54.000Z</time>
      </trkpt>
      <trkpt lat="45.1358" lon="5.51066">
        <ele>1188</ele>
        <time>2017-06-11T08:40:00.000Z</time>
      </trkpt>
      <trkpt lat="45.13579" lon="5.51065">
        <ele>1188</ele>
        <time>2017-06-11T08:40:01.000Z</time>
      </trkpt>
      <trkpt lat="45.13578" lon="5.51063">
        <ele>1188</ele>
        <time>2017-06-11T08:40:02.000Z</time>
      </trkpt>
      <trkpt lat="45.13574" lon="5.51059">
        <ele>1189</ele>
        <time>2017-06-11T08:40:05.000Z</time>
      </trkpt>
      <trkpt lat="45.13573" lon="5.51058">
        <ele>1189</ele>
        <time>2017-06-11T08:40:06.000Z</time>
      </trkpt>
      <trkpt lat="45.13572" lon="5.51057">
        <ele>1189</ele>
        <time>2017-06-11T08:40:07.000Z</time>
      </trkpt>
      <trkpt lat="45.13571" lon="5.51055">
        <ele>1189</ele>
        <time>2017-06-11T08:40:08.000Z</time>
      </trkpt>
      <trkpt lat="45.1357" lon="5.51054">
        <ele>1189</ele>
        <time>2017-06-11T08:40:09.000Z</time>
      </trkpt>
      <trkpt lat="45.13568" lon="5.51054">
        <ele>1190</ele>
        <time>2017-06-11T08:40:10.000Z</time>
      </trkpt>
      <trkpt lat="45.13566" lon="5.51052">
        <ele>1190</ele>
        <time>2017-06-11T08:40:11.000Z</time>
      </trkpt>
      <trkpt lat="45.13565" lon="5.51051">
        <ele>1190</ele>
        <time>2017-06-11T08:40:12.000Z</time>
      </trkpt>
      <trkpt lat="45.13563" lon="5.5105">
        <ele>1190</ele>
        <time>2017-06-11T08:40:13.000Z</time>
      </trkpt>
      <trkpt lat="45.13561" lon="5.51049">
        <ele>1190</ele>
        <time>2017-06-11T08:40:14.000Z</time>
      </trkpt>
      <trkpt lat="45.13559" lon="5.51048">
        <ele>1190</ele>
        <time>2017-06-11T08:40:15.000Z</time>
      </trkpt>
      <trkpt lat="45.13557" lon="5.51047">
        <ele>1190</ele>
        <time>2017-06-11T08:40:16.000Z</time>
      </trkpt>
      <trkpt lat="45.13555" lon="5.51046">
        <ele>1190</ele>
        <time>2017-06-11T08:40:17.000Z</time>
      </trkpt>
      <trkpt lat="45.13552" lon="5.51045">
        <ele>1190</ele>
        <time>2017-06-11T08:40:18.000Z</time>
      </trkpt>
      <trkpt lat="45.13517" lon="5.51043">
        <ele>1191</ele>
        <time>2017-06-11T08:40:31.000Z</time>
      </trkpt>
      <trkpt lat="45.13501" lon="5.51039">
        <ele>1191</ele>
        <time>2017-06-11T08:40:41.000Z</time>
      </trkpt>
      <trkpt lat="45.13499" lon="5.51038">
        <ele>1193</ele>
        <time>2017-06-11T08:40:43.000Z</time>
      </trkpt>
      <trkpt lat="45.13497" lon="5.51039">
        <ele>1192</ele>
        <time>2017-06-11T08:40:44.000Z</time>
      </trkpt>
      <trkpt lat="45.13496" lon="5.51039">
        <ele>1192</ele>
        <time>2017-06-11T08:40:45.000Z</time>
      </trkpt>
      <trkpt lat="45.13494" lon="5.51039">
        <ele>1192</ele>
        <time>2017-06-11T08:40:46.000Z</time>
      </trkpt>
      <trkpt lat="45.13492" lon="5.51039">
        <ele>1192</ele>
        <time>2017-06-11T08:40:47.000Z</time>
      </trkpt>
      <trkpt lat="45.1349" lon="5.5104">
        <ele>1192</ele>
        <time>2017-06-11T08:40:48.000Z</time>
      </trkpt>
      <trkpt lat="45.13476" lon="5.51042">
        <ele>1192</ele>
        <time>2017-06-11T08:40:54.000Z</time>
      </trkpt>
      <trkpt lat="45.13466" lon="5.51039">
        <ele>1193</ele>
        <time>2017-06-11T08:40:59.000Z</time>
      </trkpt>
      <trkpt lat="45.13465" lon="5.51039">
        <ele>1193</ele>
        <time>2017-06-11T08:41:00.000Z</time>
      </trkpt>
      <trkpt lat="45.13463" lon="5.51039">
        <ele>1193</ele>
        <time>2017-06-11T08:41:01.000Z</time>
      </trkpt>
      <trkpt lat="45.13441" lon="5.5104">
        <ele>1193</ele>
        <time>2017-06-11T08:41:11.000Z</time>
      </trkpt>
      <trkpt lat="45.13415" lon="5.51042">
        <ele>1193</ele>
        <time>2017-06-11T08:41:24.000Z</time>
      </trkpt>
      <trkpt lat="45.13392" lon="5.51041">
        <ele>1193</ele>
        <time>2017-06-11T08:41:38.000Z</time>
      </trkpt>
      <trkpt lat="45.1337" lon="5.51034">
        <ele>1194</ele>
        <time>2017-06-11T08:41:50.000Z</time>
      </trkpt>
      <trkpt lat="45.13369" lon="5.51033">
        <ele>1194</ele>
        <time>2017-06-11T08:41:51.000Z</time>
      </trkpt>
      <trkpt lat="45.13367" lon="5.5103">
        <ele>1194</ele>
        <time>2017-06-11T08:41:53.000Z</time>
      </trkpt>
      <trkpt lat="45.13366" lon="5.51028">
        <ele>1194</ele>
        <time>2017-06-11T08:41:54.000Z</time>
      </trkpt>
      <trkpt lat="45.13364" lon="5.51025">
        <ele>1194</ele>
        <time>2017-06-11T08:41:56.000Z</time>
      </trkpt>
      <trkpt lat="45.13362" lon="5.51024">
        <ele>1194</ele>
        <time>2017-06-11T08:41:57.000Z</time>
      </trkpt>
      <trkpt lat="45.13355" lon="5.51018">
        <ele>1195</ele>
        <time>2017-06-11T08:42:02.000Z</time>
      </trkpt>
      <trkpt lat="45.13354" lon="5.51016">
        <ele>1196</ele>
        <time>2017-06-11T08:42:03.000Z</time>
      </trkpt>
      <trkpt lat="45.13353" lon="5.51015">
        <ele>1196</ele>
        <time>2017-06-11T08:42:04.000Z</time>
      </trkpt>
      <trkpt lat="45.13351" lon="5.51009">
        <ele>1196</ele>
        <time>2017-06-11T08:42:07.000Z</time>
      </trkpt>
      <trkpt lat="45.1335" lon="5.51007">
        <ele>1197</ele>
        <time>2017-06-11T08:42:08.000Z</time>
      </trkpt>
      <trkpt lat="45.13349" lon="5.51005">
        <ele>1197</ele>
        <time>2017-06-11T08:42:09.000Z</time>
      </trkpt>
      <trkpt lat="45.13348" lon="5.51002">
        <ele>1197</ele>
        <time>2017-06-11T08:42:10.000Z</time>
      </trkpt>
      <trkpt lat="45.13348" lon="5.51">
        <ele>1203</ele>
        <time>2017-06-11T08:42:11.000Z</time>
      </trkpt>
      <trkpt lat="45.13347" lon="5.50997">
        <ele>1203</ele>
        <time>2017-06-11T08:42:12.000Z</time>
      </trkpt>
      <trkpt lat="45.13347" lon="5.50995">
        <ele>1203</ele>
        <time>2017-06-11T08:42:13.000Z</time>
      </trkpt>
      <trkpt lat="45.13346" lon="5.50993">
        <ele>1203</ele>
        <time>2017-06-11T08:42:14.000Z</time>
      </trkpt>
      <trkpt lat="45.13347" lon="5.5099">
        <ele>1203</ele>
        <time>2017-06-11T08:42:15.000Z</time>
      </trkpt>
      <trkpt lat="45.13332" lon="5.50971">
        <ele>1204</ele>
        <time>2017-06-11T08:42:25.000Z</time>
      </trkpt>
      <trkpt lat="45.13327" lon="5.50954">
        <ele>1206</ele>
        <time>2017-06-11T08:42:33.000Z</time>
      </trkpt>
      <trkpt lat="45.13327" lon="5.50951">
        <ele>1206</ele>
        <time>2017-06-11T08:42:34.000Z</time>
      </trkpt>
      <trkpt lat="45.13326" lon="5.50948">
        <ele>1206</ele>
        <time>2017-06-11T08:42:35.000Z</time>
      </trkpt>
      <trkpt lat="45.13325" lon="5.50946">
        <ele>1206</ele>
        <time>2017-06-11T08:42:36.000Z</time>
      </trkpt>
      <trkpt lat="45.13325" lon="5.50944">
        <ele>1207</ele>
        <time>2017-06-11T08:42:37.000Z</time>
      </trkpt>
      <trkpt lat="45.13324" lon="5.50941">
        <ele>1207</ele>
        <time>2017-06-11T08:42:38.000Z</time>
      </trkpt>
      <trkpt lat="45.13323" lon="5.50939">
        <ele>1207</ele>
        <time>2017-06-11T08:42:39.000Z</time>
      </trkpt>
      <trkpt lat="45.13319" lon="5.50915">
        <ele>1213</ele>
        <time>2017-06-11T08:42:49.000Z</time>
      </trkpt>
      <trkpt lat="45.13314" lon="5.50917">
        <ele>1208</ele>
        <time>2017-06-11T08:42:55.000Z</time>
      </trkpt>
      <trkpt lat="45.13312" lon="5.50919">
        <ele>1208</ele>
        <time>2017-06-11T08:42:56.000Z</time>
      </trkpt>
      <trkpt lat="45.1331" lon="5.5092">
        <ele>1208</ele>
        <time>2017-06-11T08:42:57.000Z</time>
      </trkpt>
      <trkpt lat="45.13288" lon="5.50955">
        <ele>1206</ele>
        <time>2017-06-11T08:43:07.000Z</time>
      </trkpt>
      <trkpt lat="45.13286" lon="5.5096">
        <ele>1205</ele>
        <time>2017-06-11T08:43:08.000Z</time>
      </trkpt>
      <trkpt lat="45.13284" lon="5.50966">
        <ele>1205</ele>
        <time>2017-06-11T08:43:09.000Z</time>
      </trkpt>
      <trkpt lat="45.13282" lon="5.50972">
        <ele>1205</ele>
        <time>2017-06-11T08:43:10.000Z</time>
      </trkpt>
      <trkpt lat="45.1328" lon="5.50978">
        <ele>1204</ele>
        <time>2017-06-11T08:43:11.000Z</time>
      </trkpt>
      <trkpt lat="45.13274" lon="5.50983">
        <ele>1204</ele>
        <time>2017-06-11T08:43:12.000Z</time>
      </trkpt>
      <trkpt lat="45.1327" lon="5.50986">
        <ele>1204</ele>
        <time>2017-06-11T08:43:13.000Z</time>
      </trkpt>
      <trkpt lat="45.13268" lon="5.50987">
        <ele>1204</ele>
        <time>2017-06-11T08:43:14.000Z</time>
      </trkpt>
      <trkpt lat="45.13266" lon="5.50987">
        <ele>1203</ele>
        <time>2017-06-11T08:43:15.000Z</time>
      </trkpt>
      <trkpt lat="45.1325" lon="5.50992">
        <ele>1203</ele>
        <time>2017-06-11T08:43:22.000Z</time>
      </trkpt>
      <trkpt lat="45.13248" lon="5.50991">
        <ele>1203</ele>
        <time>2017-06-11T08:43:23.000Z</time>
      </trkpt>
      <trkpt lat="45.13236" lon="5.50989">
        <ele>1204</ele>
        <time>2017-06-11T08:43:29.000Z</time>
      </trkpt>
      <trkpt lat="45.13235" lon="5.50985">
        <ele>1205</ele>
        <time>2017-06-11T08:43:31.000Z</time>
      </trkpt>
      <trkpt lat="45.13235" lon="5.50983">
        <ele>1205</ele>
        <time>2017-06-11T08:43:32.000Z</time>
      </trkpt>
      <trkpt lat="45.13235" lon="5.5098">
        <ele>1205</ele>
        <time>2017-06-11T08:43:33.000Z</time>
      </trkpt>
      <trkpt lat="45.13236" lon="5.50959">
        <ele>1207</ele>
        <time>2017-06-11T08:43:46.000Z</time>
      </trkpt>
      <trkpt lat="45.13243" lon="5.50939">
        <ele>1209</ele>
        <time>2017-06-11T08:44:00.000Z</time>
      </trkpt>
      <trkpt lat="45.13244" lon="5.50937">
        <ele>1209</ele>
        <time>2017-06-11T08:44:01.000Z</time>
      </trkpt>
      <trkpt lat="45.13245" lon="5.50935">
        <ele>1209</ele>
        <time>2017-06-11T08:44:02.000Z</time>
      </trkpt>
      <trkpt lat="45.13245" lon="5.50934">
        <ele>1209</ele>
        <time>2017-06-11T08:44:03.000Z</time>
      </trkpt>
      <trkpt lat="45.13246" lon="5.50933">
        <ele>1209</ele>
        <time>2017-06-11T08:44:04.000Z</time>
      </trkpt>
      <trkpt lat="45.13247" lon="5.50932">
        <ele>1209</ele>
        <time>2017-06-11T08:44:05.000Z</time>
      </trkpt>
      <trkpt lat="45.13248" lon="5.50931">
        <ele>1210</ele>
        <time>2017-06-11T08:44:06.000Z</time>
      </trkpt>
      <trkpt lat="45.13249" lon="5.5093">
        <ele>1210</ele>
        <time>2017-06-11T08:44:07.000Z</time>
      </trkpt>
      <trkpt lat="45.13261" lon="5.50913">
        <ele>1213</ele>
        <time>2017-06-11T08:44:20.000Z</time>
      </trkpt>
      <trkpt lat="45.13277" lon="5.50891">
        <ele>1216</ele>
        <time>2017-06-11T08:44:34.000Z</time>
      </trkpt>
      <trkpt lat="45.13286" lon="5.50881">
        <ele>1217</ele>
        <time>2017-06-11T08:44:41.000Z</time>
      </trkpt>
      <trkpt lat="45.13286" lon="5.5088">
        <ele>1217</ele>
        <time>2017-06-11T08:44:42.000Z</time>
      </trkpt>
      <trkpt lat="45.13286" lon="5.50877">
        <ele>1217</ele>
        <time>2017-06-11T08:44:43.000Z</time>
      </trkpt>
      <trkpt lat="45.13285" lon="5.50876">
        <ele>1217</ele>
        <time>2017-06-11T08:44:44.000Z</time>
      </trkpt>
      <trkpt lat="45.13284" lon="5.50875">
        <ele>1217</ele>
        <time>2017-06-11T08:44:45.000Z</time>
      </trkpt>
      <trkpt lat="45.13283" lon="5.50875">
        <ele>1217</ele>
        <time>2017-06-11T08:44:47.000Z</time>
      </trkpt>
      <trkpt lat="45.13282" lon="5.50875">
        <ele>1217</ele>
        <time>2017-06-11T08:44:48.000Z</time>
      </trkpt>
      <trkpt lat="45.13281" lon="5.50876">
        <ele>1217</ele>
        <time>2017-06-11T08:44:49.000Z</time>
      </trkpt>
      <trkpt lat="45.13279" lon="5.50877">
        <ele>1217</ele>
        <time>2017-06-11T08:44:50.000Z</time>
      </trkpt>
      <trkpt lat="45.13277" lon="5.50877">
        <ele>1217</ele>
        <time>2017-06-11T08:44:51.000Z</time>
      </trkpt>
      <trkpt lat="45.13258" lon="5.50878">
        <ele>1217</ele>
        <time>2017-06-11T08:45:03.000Z</time>
      </trkpt>
      <trkpt lat="45.13241" lon="5.50861">
        <ele>1221</ele>
        <time>2017-06-11T08:45:14.000Z</time>
      </trkpt>
      <trkpt lat="45.1324" lon="5.50858">
        <ele>1222</ele>
        <time>2017-06-11T08:45:15.000Z</time>
      </trkpt>
      <trkpt lat="45.13238" lon="5.5085">
        <ele>1222</ele>
        <time>2017-06-11T08:45:18.000Z</time>
      </trkpt>
      <trkpt lat="45.13238" lon="5.50847">
        <ele>1223</ele>
        <time>2017-06-11T08:45:19.000Z</time>
      </trkpt>
      <trkpt lat="45.13238" lon="5.50844">
        <ele>1223</ele>
        <time>2017-06-11T08:45:20.000Z</time>
      </trkpt>
      <trkpt lat="45.13237" lon="5.50841">
        <ele>1223</ele>
        <time>2017-06-11T08:45:21.000Z</time>
      </trkpt>
      <trkpt lat="45.13237" lon="5.50838">
        <ele>1223</ele>
        <time>2017-06-11T08:45:22.000Z</time>
      </trkpt>
      <trkpt lat="45.13229" lon="5.50814">
        <ele>1234</ele>
        <time>2017-06-11T08:45:32.000Z</time>
      </trkpt>
      <trkpt lat="45.13228" lon="5.50812">
        <ele>1234</ele>
        <time>2017-06-11T08:45:33.000Z</time>
      </trkpt>
      <trkpt lat="45.13225" lon="5.50811">
        <ele>1235</ele>
        <time>2017-06-11T08:45:34.000Z</time>
      </trkpt>
      <trkpt lat="45.13222" lon="5.5081">
        <ele>1235</ele>
        <time>2017-06-11T08:45:35.000Z</time>
      </trkpt>
      <trkpt lat="45.13221" lon="5.50809">
        <ele>1235</ele>
        <time>2017-06-11T08:45:36.000Z</time>
      </trkpt>
      <trkpt lat="45.13218" lon="5.50808">
        <ele>1235</ele>
        <time>2017-06-11T08:45:37.000Z</time>
      </trkpt>
      <trkpt lat="45.13216" lon="5.50807">
        <ele>1236</ele>
        <time>2017-06-11T08:45:38.000Z</time>
      </trkpt>
      <trkpt lat="45.13215" lon="5.50806">
        <ele>1236</ele>
        <time>2017-06-11T08:45:39.000Z</time>
      </trkpt>
      <trkpt lat="45.13214" lon="5.50804">
        <ele>1236</ele>
        <time>2017-06-11T08:45:40.000Z</time>
      </trkpt>
      <trkpt lat="45.13213" lon="5.50803">
        <ele>1236</ele>
        <time>2017-06-11T08:45:41.000Z</time>
      </trkpt>
      <trkpt lat="45.13211" lon="5.50803">
        <ele>1236</ele>
        <time>2017-06-11T08:45:42.000Z</time>
      </trkpt>
      <trkpt lat="45.1321" lon="5.50803">
        <ele>1236</ele>
        <time>2017-06-11T08:45:43.000Z</time>
      </trkpt>
      <trkpt lat="45.13208" lon="5.50802">
        <ele>1236</ele>
        <time>2017-06-11T08:45:44.000Z</time>
      </trkpt>
      <trkpt lat="45.13207" lon="5.50803">
        <ele>1236</ele>
        <time>2017-06-11T08:45:45.000Z</time>
      </trkpt>
      <trkpt lat="45.13206" lon="5.50803">
        <ele>1236</ele>
        <time>2017-06-11T08:45:46.000Z</time>
      </trkpt>
      <trkpt lat="45.13204" lon="5.50805">
        <ele>1236</ele>
        <time>2017-06-11T08:45:47.000Z</time>
      </trkpt>
      <trkpt lat="45.13202" lon="5.50806">
        <ele>1236</ele>
        <time>2017-06-11T08:45:48.000Z</time>
      </trkpt>
      <trkpt lat="45.13199" lon="5.50808">
        <ele>1236</ele>
        <time>2017-06-11T08:45:49.000Z</time>
      </trkpt>
      <trkpt lat="45.13197" lon="5.50809">
        <ele>1236</ele>
        <time>2017-06-11T08:45:50.000Z</time>
      </trkpt>
      <trkpt lat="45.13196" lon="5.5081">
        <ele>1236</ele>
        <time>2017-06-11T08:45:51.000Z</time>
      </trkpt>
      <trkpt lat="45.13195" lon="5.50811">
        <ele>1236</ele>
        <time>2017-06-11T08:45:52.000Z</time>
      </trkpt>
      <trkpt lat="45.13193" lon="5.50813">
        <ele>1235</ele>
        <time>2017-06-11T08:45:53.000Z</time>
      </trkpt>
      <trkpt lat="45.13191" lon="5.50816">
        <ele>1235</ele>
        <time>2017-06-11T08:45:54.000Z</time>
      </trkpt>
      <trkpt lat="45.13168" lon="5.50844">
        <ele>1227</ele>
        <time>2017-06-11T08:46:06.000Z</time>
      </trkpt>
      <trkpt lat="45.13144" lon="5.50861">
        <ele>1227</ele>
        <time>2017-06-11T08:46:14.000Z</time>
      </trkpt>
      <trkpt lat="45.13107" lon="5.50858">
        <ele>1229</ele>
        <time>2017-06-11T08:46:30.000Z</time>
      </trkpt>
      <trkpt lat="45.13077" lon="5.50846">
        <ele>1233</ele>
        <time>2017-06-11T08:46:44.000Z</time>
      </trkpt>
      <trkpt lat="45.13063" lon="5.50838">
        <ele>1231</ele>
        <time>2017-06-11T08:46:51.000Z</time>
      </trkpt>
      <trkpt lat="45.13061" lon="5.50838">
        <ele>1231</ele>
        <time>2017-06-11T08:46:52.000Z</time>
      </trkpt>
      <trkpt lat="45.13058" lon="5.50837">
        <ele>1230</ele>
        <time>2017-06-11T08:46:53.000Z</time>
      </trkpt>
      <trkpt lat="45.13056" lon="5.50836">
        <ele>1230</ele>
        <time>2017-06-11T08:46:54.000Z</time>
      </trkpt>
      <trkpt lat="45.13053" lon="5.50835">
        <ele>1229</ele>
        <time>2017-06-11T08:46:55.000Z</time>
      </trkpt>
      <trkpt lat="45.13051" lon="5.50834">
        <ele>1229</ele>
        <time>2017-06-11T08:46:56.000Z</time>
      </trkpt>
      <trkpt lat="45.13049" lon="5.50832">
        <ele>1239</ele>
        <time>2017-06-11T08:46:57.000Z</time>
      </trkpt>
      <trkpt lat="45.13047" lon="5.50831">
        <ele>1239</ele>
        <time>2017-06-11T08:46:58.000Z</time>
      </trkpt>
      <trkpt lat="45.13032" lon="5.50805">
        <ele>1240</ele>
        <time>2017-06-11T08:47:09.000Z</time>
      </trkpt>
      <trkpt lat="45.13023" lon="5.50774">
        <ele>1244</ele>
        <time>2017-06-11T08:47:20.000Z</time>
      </trkpt>
      <trkpt lat="45.13005" lon="5.50742">
        <ele>1252</ele>
        <time>2017-06-11T08:47:33.000Z</time>
      </trkpt>
      <trkpt lat="45.1298" lon="5.5075">
        <ele>1244</ele>
        <time>2017-06-11T08:47:43.000Z</time>
      </trkpt>
      <trkpt lat="45.12956" lon="5.50771">
        <ele>1242</ele>
        <time>2017-06-11T08:47:53.000Z</time>
      </trkpt>
      <trkpt lat="45.12929" lon="5.50778">
        <ele>1242</ele>
        <time>2017-06-11T08:48:03.000Z</time>
      </trkpt>
      <trkpt lat="45.12909" lon="5.50773">
        <ele>1245</ele>
        <time>2017-06-11T08:48:12.000Z</time>
      </trkpt>
      <trkpt lat="45.12907" lon="5.50773">
        <ele>1245</ele>
        <time>2017-06-11T08:48:13.000Z</time>
      </trkpt>
      <trkpt lat="45.12905" lon="5.50771">
        <ele>1245</ele>
        <time>2017-06-11T08:48:14.000Z</time>
      </trkpt>
      <trkpt lat="45.12904" lon="5.50769">
        <ele>1246</ele>
        <time>2017-06-11T08:48:15.000Z</time>
      </trkpt>
      <trkpt lat="45.12902" lon="5.50767">
        <ele>1246</ele>
        <time>2017-06-11T08:48:16.000Z</time>
      </trkpt>
      <trkpt lat="45.12889" lon="5.50746">
        <ele>1257</ele>
        <time>2017-06-11T08:48:26.000Z</time>
      </trkpt>
      <trkpt lat="45.12887" lon="5.50744">
        <ele>1258</ele>
        <time>2017-06-11T08:48:27.000Z</time>
      </trkpt>
      <trkpt lat="45.12885" lon="5.50742">
        <ele>1258</ele>
        <time>2017-06-11T08:48:28.000Z</time>
      </trkpt>
      <trkpt lat="45.12882" lon="5.50741">
        <ele>1258</ele>
        <time>2017-06-11T08:48:29.000Z</time>
      </trkpt>
      <trkpt lat="45.1288" lon="5.5074">
        <ele>1258</ele>
        <time>2017-06-11T08:48:30.000Z</time>
      </trkpt>
      <trkpt lat="45.12877" lon="5.50738">
        <ele>1258</ele>
        <time>2017-06-11T08:48:31.000Z</time>
      </trkpt>
      <trkpt lat="45.12875" lon="5.50737">
        <ele>1259</ele>
        <time>2017-06-11T08:48:32.000Z</time>
      </trkpt>
      <trkpt lat="45.12852" lon="5.5075">
        <ele>1258</ele>
        <time>2017-06-11T08:48:42.000Z</time>
      </trkpt>
      <trkpt lat="45.12829" lon="5.50779">
        <ele>1250</ele>
        <time>2017-06-11T08:48:54.000Z</time>
      </trkpt>
      <trkpt lat="45.12788" lon="5.50807">
        <ele>1248</ele>
        <time>2017-06-11T08:49:10.000Z</time>
      </trkpt>
      <trkpt lat="45.12751" lon="5.50813">
        <ele>1247</ele>
        <time>2017-06-11T08:49:25.000Z</time>
      </trkpt>
      <trkpt lat="45.12716" lon="5.50812">
        <ele>1251</ele>
        <time>2017-06-11T08:49:40.000Z</time>
      </trkpt>
      <trkpt lat="45.12687" lon="5.50803">
        <ele>1252</ele>
        <time>2017-06-11T08:49:53.000Z</time>
      </trkpt>
      <trkpt lat="45.12662" lon="5.50798">
        <ele>1251</ele>
        <time>2017-06-11T08:50:04.000Z</time>
      </trkpt>
      <trkpt lat="45.12659" lon="5.50798">
        <ele>1251</ele>
        <time>2017-06-11T08:50:05.000Z</time>
      </trkpt>
      <trkpt lat="45.12624" lon="5.5079">
        <ele>1252</ele>
        <time>2017-06-11T08:50:19.000Z</time>
      </trkpt>
      <trkpt lat="45.12618" lon="5.50755">
        <ele>1253</ele>
        <time>2017-06-11T08:50:32.000Z</time>
      </trkpt>
      <trkpt lat="45.12621" lon="5.50709">
        <ele>1265</ele>
        <time>2017-06-11T08:50:47.000Z</time>
      </trkpt>
      <trkpt lat="45.12593" lon="5.50694">
        <ele>1266</ele>
        <time>2017-06-11T08:51:01.000Z</time>
      </trkpt>
      <trkpt lat="45.12592" lon="5.50692">
        <ele>1266</ele>
        <time>2017-06-11T08:51:10.000Z</time>
      </trkpt>
      <trkpt lat="45.12593" lon="5.5069">
        <ele>1266</ele>
        <time>2017-06-11T08:51:25.000Z</time>
      </trkpt>
      <trkpt lat="45.1259" lon="5.50689">
        <ele>1266</ele>
        <time>2017-06-11T08:51:45.000Z</time>
      </trkpt>
      <trkpt lat="45.12587" lon="5.50688">
        <ele>1266</ele>
        <time>2017-06-11T08:52:07.000Z</time>
      </trkpt>
      <trkpt lat="45.12588" lon="5.50692">
        <ele>1266</ele>
        <time>2017-06-11T08:52:32.000Z</time>
      </trkpt>
      <trkpt lat="45.12584" lon="5.50689">
        <ele>1266</ele>
        <time>2017-06-11T08:52:54.000Z</time>
      </trkpt>
      <trkpt lat="45.12584" lon="5.50693">
        <ele>1266</ele>
        <time>2017-06-11T08:53:22.000Z</time>
      </trkpt>
      <trkpt lat="45.12583" lon="5.50685">
        <ele>1263</ele>
        <time>2017-06-11T08:53:45.000Z</time>
      </trkpt>
      <trkpt lat="45.12589" lon="5.5069">
        <ele>1266</ele>
        <time>2017-06-11T08:54:08.000Z</time>
      </trkpt>
      <trkpt lat="45.1259" lon="5.5069">
        <ele>1266</ele>
        <time>2017-06-11T08:54:31.000Z</time>
      </trkpt>
      <trkpt lat="45.12592" lon="5.50695">
        <ele>1265</ele>
        <time>2017-06-11T08:55:00.000Z</time>
      </trkpt>
      <trkpt lat="45.12592" lon="5.50695">
        <ele>1266</ele>
        <time>2017-06-11T08:55:28.000Z</time>
      </trkpt>
      <trkpt lat="45.1259" lon="5.5069">
        <ele>1266</ele>
        <time>2017-06-11T08:55:58.000Z</time>
      </trkpt>
      <trkpt lat="45.12593" lon="5.5069">
        <ele>1266</ele>
        <time>2017-06-11T08:56:21.000Z</time>
      </trkpt>
      <trkpt lat="45.12596" lon="5.50694">
        <ele>1266</ele>
        <time>2017-06-11T08:56:35.000Z</time>
      </trkpt>
      <trkpt lat="45.12611" lon="5.50701">
        <ele>1265</ele>
        <time>2017-06-11T08:56:40.000Z</time>
      </trkpt>
      <trkpt lat="45.12615" lon="5.50704">
        <ele>1265</ele>
        <time>2017-06-11T08:56:41.000Z</time>
      </trkpt>
      <trkpt lat="45.12618" lon="5.50708">
        <ele>1265</ele>
        <time>2017-06-11T08:56:42.000Z</time>
      </trkpt>
      <trkpt lat="45.12622" lon="5.50713">
        <ele>1265</ele>
        <time>2017-06-11T08:56:43.000Z</time>
      </trkpt>
      <trkpt lat="45.12624" lon="5.50721">
        <ele>1264</ele>
        <time>2017-06-11T08:56:44.000Z</time>
      </trkpt>
      <trkpt lat="45.12624" lon="5.50729">
        <ele>1263</ele>
        <time>2017-06-11T08:56:45.000Z</time>
      </trkpt>
      <trkpt lat="45.12623" lon="5.50737">
        <ele>1263</ele>
        <time>2017-06-11T08:56:46.000Z</time>
      </trkpt>
      <trkpt lat="45.1262" lon="5.50745">
        <ele>1262</ele>
        <time>2017-06-11T08:56:47.000Z</time>
      </trkpt>
      <trkpt lat="45.12618" lon="5.50753">
        <ele>1253</ele>
        <time>2017-06-11T08:56:48.000Z</time>
      </trkpt>
      <trkpt lat="45.12615" lon="5.50761">
        <ele>1253</ele>
        <time>2017-06-11T08:56:49.000Z</time>
      </trkpt>
      <trkpt lat="45.12611" lon="5.50778">
        <ele>1252</ele>
        <time>2017-06-11T08:56:51.000Z</time>
      </trkpt>
      <trkpt lat="45.12606" lon="5.50785">
        <ele>1252</ele>
        <time>2017-06-11T08:56:52.000Z</time>
      </trkpt>
      <trkpt lat="45.12602" lon="5.5079">
        <ele>1251</ele>
        <time>2017-06-11T08:56:53.000Z</time>
      </trkpt>
      <trkpt lat="45.12581" lon="5.50807">
        <ele>1247</ele>
        <time>2017-06-11T08:56:57.000Z</time>
      </trkpt>
      <trkpt lat="45.12571" lon="5.50812">
        <ele>1246</ele>
        <time>2017-06-11T08:56:59.000Z</time>
      </trkpt>
      <trkpt lat="45.12558" lon="5.50824">
        <ele>1246</ele>
        <time>2017-06-11T08:57:03.000Z</time>
      </trkpt>
      <trkpt lat="45.12554" lon="5.5083">
        <ele>1245</ele>
        <time>2017-06-11T08:57:05.000Z</time>
      </trkpt>
      <trkpt lat="45.12536" lon="5.50844">
        <ele>1238</ele>
        <time>2017-06-11T08:57:09.000Z</time>
      </trkpt>
      <trkpt lat="45.12527" lon="5.50862">
        <ele>1237</ele>
        <time>2017-06-11T08:57:13.000Z</time>
      </trkpt>
      <trkpt lat="45.12553" lon="5.50873">
        <ele>1238</ele>
        <time>2017-06-11T08:57:22.000Z</time>
      </trkpt>
      <trkpt lat="45.12557" lon="5.50879">
        <ele>1237</ele>
        <time>2017-06-11T08:57:25.000Z</time>
      </trkpt>
      <trkpt lat="45.12555" lon="5.50887">
        <ele>1237</ele>
        <time>2017-06-11T08:57:27.000Z</time>
      </trkpt>
      <trkpt lat="45.12544" lon="5.50911">
        <ele>1235</ele>
        <time>2017-06-11T08:57:33.000Z</time>
      </trkpt>
      <trkpt lat="45.12528" lon="5.5094">
        <ele>1226</ele>
        <time>2017-06-11T08:57:39.000Z</time>
      </trkpt>
      <trkpt lat="45.1256" lon="5.5096">
        <ele>1224</ele>
        <time>2017-06-11T08:57:46.000Z</time>
      </trkpt>
      <trkpt lat="45.12571" lon="5.50967">
        <ele>1224</ele>
        <time>2017-06-11T08:57:51.000Z</time>
      </trkpt>
      <trkpt lat="45.12568" lon="5.50969">
        <ele>1223</ele>
        <time>2017-06-11T08:57:52.000Z</time>
      </trkpt>
      <trkpt lat="45.1253" lon="5.50991">
        <ele>1221</ele>
        <time>2017-06-11T08:58:01.000Z</time>
      </trkpt>
      <trkpt lat="45.12528" lon="5.50998">
        <ele>1221</ele>
        <time>2017-06-11T08:58:03.000Z</time>
      </trkpt>
      <trkpt lat="45.12533" lon="5.51003">
        <ele>1212</ele>
        <time>2017-06-11T08:58:05.000Z</time>
      </trkpt>
      <trkpt lat="45.12549" lon="5.51011">
        <ele>1212</ele>
        <time>2017-06-11T08:58:11.000Z</time>
      </trkpt>
      <trkpt lat="45.12546" lon="5.51029">
        <ele>1210</ele>
        <time>2017-06-11T08:58:16.000Z</time>
      </trkpt>
      <trkpt lat="45.12574" lon="5.51029">
        <ele>1211</ele>
        <time>2017-06-11T08:58:21.000Z</time>
      </trkpt>
      <trkpt lat="45.12591" lon="5.51024">
        <ele>1209</ele>
        <time>2017-06-11T08:58:24.000Z</time>
      </trkpt>
      <trkpt lat="45.12583" lon="5.51041">
        <ele>1207</ele>
        <time>2017-06-11T08:58:30.000Z</time>
      </trkpt>
      <trkpt lat="45.12596" lon="5.51056">
        <ele>1204</ele>
        <time>2017-06-11T08:58:36.000Z</time>
      </trkpt>
      <trkpt lat="45.12608" lon="5.51059">
        <ele>1204</ele>
        <time>2017-06-11T08:58:38.000Z</time>
      </trkpt>
      <trkpt lat="45.12611" lon="5.51098">
        <ele>1193</ele>
        <time>2017-06-11T08:58:44.000Z</time>
      </trkpt>
      <trkpt lat="45.12614" lon="5.51106">
        <ele>1192</ele>
        <time>2017-06-11T08:58:45.000Z</time>
      </trkpt>
      <trkpt lat="45.12619" lon="5.51113">
        <ele>1191</ele>
        <time>2017-06-11T08:58:56.000Z</time>
      </trkpt>
      <trkpt lat="45.1262" lon="5.51114">
        <ele>1191</ele>
        <time>2017-06-11T08:59:01.000Z</time>
      </trkpt>
      <trkpt lat="45.12622" lon="5.51151">
        <ele>1188</ele>
        <time>2017-06-11T08:59:09.000Z</time>
      </trkpt>
      <trkpt lat="45.12614" lon="5.51157">
        <ele>1187</ele>
        <time>2017-06-11T08:59:15.000Z</time>
      </trkpt>
      <trkpt lat="45.12615" lon="5.51177">
        <ele>1177</ele>
        <time>2017-06-11T08:59:21.000Z</time>
      </trkpt>
      <trkpt lat="45.12616" lon="5.51188">
        <ele>1176</ele>
        <time>2017-06-11T08:59:23.000Z</time>
      </trkpt>
      <trkpt lat="45.12617" lon="5.51198">
        <ele>1175</ele>
        <time>2017-06-11T08:59:25.000Z</time>
      </trkpt>
      <trkpt lat="45.12614" lon="5.5123">
        <ele>1172</ele>
        <time>2017-06-11T08:59:32.000Z</time>
      </trkpt>
      <trkpt lat="45.12603" lon="5.51255">
        <ele>1163</ele>
        <time>2017-06-11T08:59:37.000Z</time>
      </trkpt>
      <trkpt lat="45.12608" lon="5.51284">
        <ele>1161</ele>
        <time>2017-06-11T08:59:42.000Z</time>
      </trkpt>
      <trkpt lat="45.1261" lon="5.513">
        <ele>1159</ele>
        <time>2017-06-11T08:59:44.000Z</time>
      </trkpt>
      <trkpt lat="45.12599" lon="5.51362">
        <ele>1151</ele>
        <time>2017-06-11T08:59:53.000Z</time>
      </trkpt>
      <trkpt lat="45.126" lon="5.51376">
        <ele>1150</ele>
        <time>2017-06-11T08:59:55.000Z</time>
      </trkpt>
      <trkpt lat="45.12585" lon="5.51408">
        <ele>1148</ele>
        <time>2017-06-11T09:00:02.000Z</time>
      </trkpt>
      <trkpt lat="45.12575" lon="5.51433">
        <ele>1144</ele>
        <time>2017-06-11T09:00:08.000Z</time>
      </trkpt>
      <trkpt lat="45.12573" lon="5.51464">
        <ele>1141</ele>
        <time>2017-06-11T09:00:14.000Z</time>
      </trkpt>
      <trkpt lat="45.12563" lon="5.51484">
        <ele>1140</ele>
        <time>2017-06-11T09:00:19.000Z</time>
      </trkpt>
      <trkpt lat="45.12562" lon="5.51506">
        <ele>1131</ele>
        <time>2017-06-11T09:00:23.000Z</time>
      </trkpt>
      <trkpt lat="45.12568" lon="5.51519">
        <ele>1130</ele>
        <time>2017-06-11T09:00:25.000Z</time>
      </trkpt>
      <trkpt lat="45.1257" lon="5.5154">
        <ele>1127</ele>
        <time>2017-06-11T09:00:28.000Z</time>
      </trkpt>
      <trkpt lat="45.1258" lon="5.51565">
        <ele>1123</ele>
        <time>2017-06-11T09:00:32.000Z</time>
      </trkpt>
      <trkpt lat="45.12592" lon="5.51593">
        <ele>1112</ele>
        <time>2017-06-11T09:00:39.000Z</time>
      </trkpt>
      <trkpt lat="45.12563" lon="5.51615">
        <ele>1108</ele>
        <time>2017-06-11T09:00:46.000Z</time>
      </trkpt>
      <trkpt lat="45.12571" lon="5.51642">
        <ele>1104</ele>
        <time>2017-06-11T09:00:52.000Z</time>
      </trkpt>
      <trkpt lat="45.12555" lon="5.51658">
        <ele>1102</ele>
        <time>2017-06-11T09:00:57.000Z</time>
      </trkpt>
      <trkpt lat="45.12535" lon="5.51668">
        <ele>1087</ele>
        <time>2017-06-11T09:01:03.000Z</time>
      </trkpt>
      <trkpt lat="45.12534" lon="5.51664">
        <ele>1102</ele>
        <time>2017-06-11T09:01:05.000Z</time>
      </trkpt>
      <trkpt lat="45.12528" lon="5.51649">
        <ele>1103</ele>
        <time>2017-06-11T09:01:15.000Z</time>
      </trkpt>
      <trkpt lat="45.12528" lon="5.5165">
        <ele>1103</ele>
        <time>2017-06-11T09:01:32.000Z</time>
      </trkpt>
      <trkpt lat="45.12528" lon="5.51652">
        <ele>1102</ele>
        <time>2017-06-11T09:01:34.000Z</time>
      </trkpt>
      <trkpt lat="45.12532" lon="5.51693">
        <ele>1084</ele>
        <time>2017-06-11T09:01:43.000Z</time>
      </trkpt>
      <trkpt lat="45.12531" lon="5.51714">
        <ele>1081</ele>
        <time>2017-06-11T09:01:47.000Z</time>
      </trkpt>
      <trkpt lat="45.1253" lon="5.51741">
        <ele>1077</ele>
        <time>2017-06-11T09:01:54.000Z</time>
      </trkpt>
      <trkpt lat="45.12546" lon="5.51779">
        <ele>1059</ele>
        <time>2017-06-11T09:02:03.000Z</time>
      </trkpt>
      <trkpt lat="45.12548" lon="5.51781">
        <ele>1059</ele>
        <time>2017-06-11T09:02:04.000Z</time>
      </trkpt>
      <trkpt lat="45.12557" lon="5.51798">
        <ele>1057</ele>
        <time>2017-06-11T09:02:08.000Z</time>
      </trkpt>
      <trkpt lat="45.12587" lon="5.51839">
        <ele>1045</ele>
        <time>2017-06-11T09:02:16.000Z</time>
      </trkpt>
      <trkpt lat="45.12598" lon="5.5184">
        <ele>1043</ele>
        <time>2017-06-11T09:02:19.000Z</time>
      </trkpt>
      <trkpt lat="45.12638" lon="5.51862">
        <ele>1039</ele>
        <time>2017-06-11T09:02:27.000Z</time>
      </trkpt>
      <trkpt lat="45.12643" lon="5.51865">
        <ele>1039</ele>
        <time>2017-06-11T09:02:28.000Z</time>
      </trkpt>
      <trkpt lat="45.12705" lon="5.51883">
        <ele>1035</ele>
        <time>2017-06-11T09:02:37.000Z</time>
      </trkpt>
      <trkpt lat="45.12723" lon="5.51895">
        <ele>1033</ele>
        <time>2017-06-11T09:02:41.000Z</time>
      </trkpt>
      <trkpt lat="45.12735" lon="5.51936">
        <ele>1020</ele>
        <time>2017-06-11T09:02:46.000Z</time>
      </trkpt>
      <trkpt lat="45.12738" lon="5.51975">
        <ele>1015</ele>
        <time>2017-06-11T09:02:50.000Z</time>
      </trkpt>
      <trkpt lat="45.12725" lon="5.52028">
        <ele>1010</ele>
        <time>2017-06-11T09:02:57.000Z</time>
      </trkpt>
      <trkpt lat="45.12721" lon="5.52031">
        <ele>1010</ele>
        <time>2017-06-11T09:02:58.000Z</time>
      </trkpt>
      <trkpt lat="45.12717" lon="5.52031">
        <ele>1010</ele>
        <time>2017-06-11T09:02:59.000Z</time>
      </trkpt>
      <trkpt lat="45.12713" lon="5.5203">
        <ele>1010</ele>
        <time>2017-06-11T09:03:00.000Z</time>
      </trkpt>
      <trkpt lat="45.1271" lon="5.52027">
        <ele>1010</ele>
        <time>2017-06-11T09:03:01.000Z</time>
      </trkpt>
      <trkpt lat="45.12707" lon="5.52025">
        <ele>1010</ele>
        <time>2017-06-11T09:03:02.000Z</time>
      </trkpt>
      <trkpt lat="45.12705" lon="5.52022">
        <ele>1010</ele>
        <time>2017-06-11T09:03:03.000Z</time>
      </trkpt>
      <trkpt lat="45.12671" lon="5.51997">
        <ele>1012</ele>
        <time>2017-06-11T09:03:18.000Z</time>
      </trkpt>
      <trkpt lat="45.12672" lon="5.51994">
        <ele>1013</ele>
        <time>2017-06-11T09:03:28.000Z</time>
      </trkpt>
      <trkpt lat="45.12673" lon="5.51995">
        <ele>1013</ele>
        <time>2017-06-11T09:03:51.000Z</time>
      </trkpt>
      <trkpt lat="45.12672" lon="5.51993">
        <ele>1013</ele>
        <time>2017-06-11T09:04:10.000Z</time>
      </trkpt>
      <trkpt lat="45.12671" lon="5.51992">
        <ele>1013</ele>
        <time>2017-06-11T09:04:37.000Z</time>
      </trkpt>
      <trkpt lat="45.12673" lon="5.51993">
        <ele>1013</ele>
        <time>2017-06-11T09:05:01.000Z</time>
      </trkpt>
      <trkpt lat="45.12672" lon="5.51995">
        <ele>1013</ele>
        <time>2017-06-11T09:05:24.000Z</time>
      </trkpt>
      <trkpt lat="45.12671" lon="5.51996">
        <ele>1012</ele>
        <time>2017-06-11T09:05:49.000Z</time>
      </trkpt>
      <trkpt lat="45.1267" lon="5.52">
        <ele>1012</ele>
        <time>2017-06-11T09:06:09.000Z</time>
      </trkpt>
      <trkpt lat="45.12671" lon="5.51997">
        <ele>1012</ele>
        <time>2017-06-11T09:06:27.000Z</time>
      </trkpt>
      <trkpt lat="45.12671" lon="5.51996">
        <ele>1012</ele>
        <time>2017-06-11T09:06:45.000Z</time>
      </trkpt>
      <trkpt lat="45.12671" lon="5.51994">
        <ele>1013</ele>
        <time>2017-06-11T09:07:04.000Z</time>
      </trkpt>
      <trkpt lat="45.12671" lon="5.51995">
        <ele>1013</ele>
        <time>2017-06-11T09:07:15.000Z</time>
      </trkpt>
      <trkpt lat="45.1267" lon="5.51996">
        <ele>1012</ele>
        <time>2017-06-11T09:07:16.000Z</time>
      </trkpt>
      <trkpt lat="45.12669" lon="5.51997">
        <ele>1012</ele>
        <time>2017-06-11T09:07:17.000Z</time>
      </trkpt>
      <trkpt lat="45.12668" lon="5.51998">
        <ele>1012</ele>
        <time>2017-06-11T09:07:18.000Z</time>
      </trkpt>
      <trkpt lat="45.12667" lon="5.51999">
        <ele>1011</ele>
        <time>2017-06-11T09:07:19.000Z</time>
      </trkpt>
      <trkpt lat="45.12647" lon="5.51997">
        <ele>1016</ele>
        <time>2017-06-11T09:07:30.000Z</time>
      </trkpt>
      <trkpt lat="45.12613" lon="5.51981">
        <ele>1020</ele>
        <time>2017-06-11T09:07:46.000Z</time>
      </trkpt>
      <trkpt lat="45.12576" lon="5.51959">
        <ele>1026</ele>
        <time>2017-06-11T09:08:04.000Z</time>
      </trkpt>
      <trkpt lat="45.12541" lon="5.51928">
        <ele>1028</ele>
        <time>2017-06-11T09:08:22.000Z</time>
      </trkpt>
      <trkpt lat="45.12517" lon="5.51906">
        <ele>1035</ele>
        <time>2017-06-11T09:08:35.000Z</time>
      </trkpt>
      <trkpt lat="45.12493" lon="5.51884">
        <ele>1043</ele>
        <time>2017-06-11T09:08:48.000Z</time>
      </trkpt>
      <trkpt lat="45.12469" lon="5.51864">
        <ele>1047</ele>
        <time>2017-06-11T09:09:01.000Z</time>
      </trkpt>
      <trkpt lat="45.12448" lon="5.51835">
        <ele>1048</ele>
        <time>2017-06-11T09:09:14.000Z</time>
      </trkpt>
      <trkpt lat="45.12427" lon="5.51804">
        <ele>1054</ele>
        <time>2017-06-11T09:09:28.000Z</time>
      </trkpt>
      <trkpt lat="45.12411" lon="5.51758">
        <ele>1060</ele>
        <time>2017-06-11T09:09:44.000Z</time>
      </trkpt>
      <trkpt lat="45.12395" lon="5.51723">
        <ele>1070</ele>
        <time>2017-06-11T09:09:59.000Z</time>
      </trkpt>
      <trkpt lat="45.12388" lon="5.51711">
        <ele>1072</ele>
        <time>2017-06-11T09:10:04.000Z</time>
      </trkpt>
      <trkpt lat="45.12387" lon="5.51709">
        <ele>1072</ele>
        <time>2017-06-11T09:10:05.000Z</time>
      </trkpt>
      <trkpt lat="45.12386" lon="5.51707">
        <ele>1072</ele>
        <time>2017-06-11T09:10:06.000Z</time>
      </trkpt>
      <trkpt lat="45.12385" lon="5.51706">
        <ele>1073</ele>
        <time>2017-06-11T09:10:07.000Z</time>
      </trkpt>
      <trkpt lat="45.12386" lon="5.517">
        <ele>1073</ele>
        <time>2017-06-11T09:10:22.000Z</time>
      </trkpt>
      <trkpt lat="45.12381" lon="5.51697">
        <ele>1073</ele>
        <time>2017-06-11T09:10:31.000Z</time>
      </trkpt>
      <trkpt lat="45.12379" lon="5.51696">
        <ele>1073</ele>
        <time>2017-06-11T09:10:32.000Z</time>
      </trkpt>
      <trkpt lat="45.12378" lon="5.51694">
        <ele>1074</ele>
        <time>2017-06-11T09:10:33.000Z</time>
      </trkpt>
      <trkpt lat="45.12376" lon="5.51692">
        <ele>1074</ele>
        <time>2017-06-11T09:10:34.000Z</time>
      </trkpt>
      <trkpt lat="45.12375" lon="5.5169">
        <ele>1074</ele>
        <time>2017-06-11T09:10:35.000Z</time>
      </trkpt>
      <trkpt lat="45.12373" lon="5.51688">
        <ele>1074</ele>
        <time>2017-06-11T09:10:36.000Z</time>
      </trkpt>
      <trkpt lat="45.12351" lon="5.5166">
        <ele>1081</ele>
        <time>2017-06-11T09:10:50.000Z</time>
      </trkpt>
      <trkpt lat="45.12326" lon="5.51637">
        <ele>1086</ele>
        <time>2017-06-11T09:11:04.000Z</time>
      </trkpt>
      <trkpt lat="45.1232" lon="5.51627">
        <ele>1088</ele>
        <time>2017-06-11T09:11:09.000Z</time>
      </trkpt>
      <trkpt lat="45.12311" lon="5.51611">
        <ele>1089</ele>
        <time>2017-06-11T09:11:16.000Z</time>
      </trkpt>
      <trkpt lat="45.12309" lon="5.51608">
        <ele>1089</ele>
        <time>2017-06-11T09:11:17.000Z</time>
      </trkpt>
      <trkpt lat="45.12308" lon="5.51605">
        <ele>1089</ele>
        <time>2017-06-11T09:11:18.000Z</time>
      </trkpt>
      <trkpt lat="45.12296" lon="5.5158">
        <ele>1091</ele>
        <time>2017-06-11T09:11:28.000Z</time>
      </trkpt>
      <trkpt lat="45.12296" lon="5.51578">
        <ele>1091</ele>
        <time>2017-06-11T09:11:29.000Z</time>
      </trkpt>
      <trkpt lat="45.12295" lon="5.51574">
        <ele>1091</ele>
        <time>2017-06-11T09:11:30.000Z</time>
      </trkpt>
      <trkpt lat="45.12295" lon="5.51571">
        <ele>1091</ele>
        <time>2017-06-11T09:11:31.000Z</time>
      </trkpt>
      <trkpt lat="45.12294" lon="5.51569">
        <ele>1092</ele>
        <time>2017-06-11T09:11:32.000Z</time>
      </trkpt>
      <trkpt lat="45.12293" lon="5.51566">
        <ele>1092</ele>
        <time>2017-06-11T09:11:33.000Z</time>
      </trkpt>
      <trkpt lat="45.12292" lon="5.51563">
        <ele>1092</ele>
        <time>2017-06-11T09:11:34.000Z</time>
      </trkpt>
      <trkpt lat="45.12292" lon="5.5156">
        <ele>1092</ele>
        <time>2017-06-11T09:11:35.000Z</time>
      </trkpt>
      <trkpt lat="45.12291" lon="5.51557">
        <ele>1092</ele>
        <time>2017-06-11T09:11:36.000Z</time>
      </trkpt>
      <trkpt lat="45.1229" lon="5.51554">
        <ele>1092</ele>
        <time>2017-06-11T09:11:37.000Z</time>
      </trkpt>
      <trkpt lat="45.12287" lon="5.51544">
        <ele>1092</ele>
        <time>2017-06-11T09:11:41.000Z</time>
      </trkpt>
      <trkpt lat="45.12287" lon="5.51541">
        <ele>1092</ele>
        <time>2017-06-11T09:11:42.000Z</time>
      </trkpt>
      <trkpt lat="45.12287" lon="5.51539">
        <ele>1092</ele>
        <time>2017-06-11T09:11:43.000Z</time>
      </trkpt>
      <trkpt lat="45.12286" lon="5.51537">
        <ele>1092</ele>
        <time>2017-06-11T09:11:44.000Z</time>
      </trkpt>
      <trkpt lat="45.12286" lon="5.51535">
        <ele>1092</ele>
        <time>2017-06-11T09:11:45.000Z</time>
      </trkpt>
      <trkpt lat="45.12286" lon="5.51533">
        <ele>1092</ele>
        <time>2017-06-11T09:11:46.000Z</time>
      </trkpt>
      <trkpt lat="45.12286" lon="5.51531">
        <ele>1092</ele>
        <time>2017-06-11T09:11:47.000Z</time>
      </trkpt>
      <trkpt lat="45.12285" lon="5.51529">
        <ele>1092</ele>
        <time>2017-06-11T09:11:48.000Z</time>
      </trkpt>
      <trkpt lat="45.12285" lon="5.51527">
        <ele>1093</ele>
        <time>2017-06-11T09:11:49.000Z</time>
      </trkpt>
      <trkpt lat="45.12278" lon="5.51518">
        <ele>1092</ele>
        <time>2017-06-11T09:11:59.000Z</time>
      </trkpt>
      <trkpt lat="45.12275" lon="5.51516">
        <ele>1091</ele>
        <time>2017-06-11T09:12:00.000Z</time>
      </trkpt>
      <trkpt lat="45.12272" lon="5.51515">
        <ele>1091</ele>
        <time>2017-06-11T09:12:01.000Z</time>
      </trkpt>
      <trkpt lat="45.12271" lon="5.51514">
        <ele>1091</ele>
        <time>2017-06-11T09:12:02.000Z</time>
      </trkpt>
      <trkpt lat="45.12269" lon="5.51513">
        <ele>1091</ele>
        <time>2017-06-11T09:12:03.000Z</time>
      </trkpt>
      <trkpt lat="45.12268" lon="5.51512">
        <ele>1090</ele>
        <time>2017-06-11T09:12:04.000Z</time>
      </trkpt>
      <trkpt lat="45.12257" lon="5.51504">
        <ele>1088</ele>
        <time>2017-06-11T09:12:14.000Z</time>
      </trkpt>
      <trkpt lat="45.12243" lon="5.51493">
        <ele>1092</ele>
        <time>2017-06-11T09:12:26.000Z</time>
      </trkpt>
      <trkpt lat="45.12225" lon="5.51483">
        <ele>1099</ele>
        <time>2017-06-11T09:12:40.000Z</time>
      </trkpt>
      <trkpt lat="45.1221" lon="5.51474">
        <ele>1102</ele>
        <time>2017-06-11T09:12:52.000Z</time>
      </trkpt>
      <trkpt lat="45.12201" lon="5.51461">
        <ele>1103</ele>
        <time>2017-06-11T09:12:59.000Z</time>
      </trkpt>
      <trkpt lat="45.12188" lon="5.51443">
        <ele>1104</ele>
        <time>2017-06-11T09:13:10.000Z</time>
      </trkpt>
      <trkpt lat="45.12187" lon="5.51441">
        <ele>1104</ele>
        <time>2017-06-11T09:13:11.000Z</time>
      </trkpt>
      <trkpt lat="45.12183" lon="5.51438">
        <ele>1103</ele>
        <time>2017-06-11T09:13:14.000Z</time>
      </trkpt>
      <trkpt lat="45.12182" lon="5.51436">
        <ele>1103</ele>
        <time>2017-06-11T09:13:15.000Z</time>
      </trkpt>
      <trkpt lat="45.1218" lon="5.51435">
        <ele>1103</ele>
        <time>2017-06-11T09:13:16.000Z</time>
      </trkpt>
      <trkpt lat="45.12179" lon="5.51434">
        <ele>1103</ele>
        <time>2017-06-11T09:13:17.000Z</time>
      </trkpt>
      <trkpt lat="45.12178" lon="5.51433">
        <ele>1103</ele>
        <time>2017-06-11T09:13:18.000Z</time>
      </trkpt>
      <trkpt lat="45.12165" lon="5.5142">
        <ele>1106</ele>
        <time>2017-06-11T09:13:29.000Z</time>
      </trkpt>
      <trkpt lat="45.12164" lon="5.51418">
        <ele>1105</ele>
        <time>2017-06-11T09:13:30.000Z</time>
      </trkpt>
      <trkpt lat="45.12163" lon="5.51417">
        <ele>1106</ele>
        <time>2017-06-11T09:13:31.000Z</time>
      </trkpt>
      <trkpt lat="45.12161" lon="5.51415">
        <ele>1106</ele>
        <time>2017-06-11T09:13:32.000Z</time>
      </trkpt>
      <trkpt lat="45.1216" lon="5.51414">
        <ele>1107</ele>
        <time>2017-06-11T09:13:33.000Z</time>
      </trkpt>
      <trkpt lat="45.12151" lon="5.51399">
        <ele>1115</ele>
        <time>2017-06-11T09:13:45.000Z</time>
      </trkpt>
      <trkpt lat="45.12146" lon="5.51392">
        <ele>1117</ele>
        <time>2017-06-11T09:13:51.000Z</time>
      </trkpt>
      <trkpt lat="45.12144" lon="5.51391">
        <ele>1118</ele>
        <time>2017-06-11T09:13:52.000Z</time>
      </trkpt>
      <trkpt lat="45.12143" lon="5.51389">
        <ele>1118</ele>
        <time>2017-06-11T09:13:53.000Z</time>
      </trkpt>
      <trkpt lat="45.12141" lon="5.51386">
        <ele>1119</ele>
        <time>2017-06-11T09:13:55.000Z</time>
      </trkpt>
      <trkpt lat="45.1214" lon="5.51385">
        <ele>1119</ele>
        <time>2017-06-11T09:13:56.000Z</time>
      </trkpt>
      <trkpt lat="45.12138" lon="5.51382">
        <ele>1120</ele>
        <time>2017-06-11T09:13:58.000Z</time>
      </trkpt>
      <trkpt lat="45.12125" lon="5.51367">
        <ele>1122</ele>
        <time>2017-06-11T09:14:10.000Z</time>
      </trkpt>
      <trkpt lat="45.12117" lon="5.51359">
        <ele>1122</ele>
        <time>2017-06-11T09:14:20.000Z</time>
      </trkpt>
      <trkpt lat="45.12106" lon="5.51342">
        <ele>1121</ele>
        <time>2017-06-11T09:14:34.000Z</time>
      </trkpt>
      <trkpt lat="45.12103" lon="5.51338">
        <ele>1121</ele>
        <time>2017-06-11T09:14:37.000Z</time>
      </trkpt>
      <trkpt lat="45.12102" lon="5.51336">
        <ele>1121</ele>
        <time>2017-06-11T09:14:38.000Z</time>
      </trkpt>
      <trkpt lat="45.12092" lon="5.51322">
        <ele>1126</ele>
        <time>2017-06-11T09:14:50.000Z</time>
      </trkpt>
      <trkpt lat="45.12079" lon="5.51301">
        <ele>1130</ele>
        <time>2017-06-11T09:15:03.000Z</time>
      </trkpt>
      <trkpt lat="45.12073" lon="5.51295">
        <ele>1131</ele>
        <time>2017-06-11T09:15:07.000Z</time>
      </trkpt>
      <trkpt lat="45.12071" lon="5.51293">
        <ele>1131</ele>
        <time>2017-06-11T09:15:08.000Z</time>
      </trkpt>
      <trkpt lat="45.1207" lon="5.51292">
        <ele>1131</ele>
        <time>2017-06-11T09:15:09.000Z</time>
      </trkpt>
      <trkpt lat="45.12069" lon="5.51291">
        <ele>1132</ele>
        <time>2017-06-11T09:15:10.000Z</time>
      </trkpt>
      <trkpt lat="45.12067" lon="5.51289">
        <ele>1132</ele>
        <time>2017-06-11T09:15:11.000Z</time>
      </trkpt>
      <trkpt lat="45.12062" lon="5.51282">
        <ele>1133</ele>
        <time>2017-06-11T09:15:15.000Z</time>
      </trkpt>
      <trkpt lat="45.1206" lon="5.51281">
        <ele>1133</ele>
        <time>2017-06-11T09:15:16.000Z</time>
      </trkpt>
      <trkpt lat="45.12059" lon="5.5128">
        <ele>1133</ele>
        <time>2017-06-11T09:15:17.000Z</time>
      </trkpt>
      <trkpt lat="45.12057" lon="5.51279">
        <ele>1133</ele>
        <time>2017-06-11T09:15:18.000Z</time>
      </trkpt>
      <trkpt lat="45.12056" lon="5.51278">
        <ele>1133</ele>
        <time>2017-06-11T09:15:19.000Z</time>
      </trkpt>
      <trkpt lat="45.12054" lon="5.51277">
        <ele>1133</ele>
        <time>2017-06-11T09:15:20.000Z</time>
      </trkpt>
      <trkpt lat="45.12053" lon="5.51276">
        <ele>1133</ele>
        <time>2017-06-11T09:15:21.000Z</time>
      </trkpt>
      <trkpt lat="45.12052" lon="5.51275">
        <ele>1133</ele>
        <time>2017-06-11T09:15:22.000Z</time>
      </trkpt>
      <trkpt lat="45.12049" lon="5.51274">
        <ele>1133</ele>
        <time>2017-06-11T09:15:24.000Z</time>
      </trkpt>
      <trkpt lat="45.12045" lon="5.51271">
        <ele>1133</ele>
        <time>2017-06-11T09:15:28.000Z</time>
      </trkpt>
      <trkpt lat="45.1204" lon="5.51268">
        <ele>1133</ele>
        <time>2017-06-11T09:15:32.000Z</time>
      </trkpt>
      <trkpt lat="45.12036" lon="5.51267">
        <ele>1133</ele>
        <time>2017-06-11T09:15:35.000Z</time>
      </trkpt>
      <trkpt lat="45.12034" lon="5.51267">
        <ele>1133</ele>
        <time>2017-06-11T09:15:36.000Z</time>
      </trkpt>
      <trkpt lat="45.12032" lon="5.51265">
        <ele>1133</ele>
        <time>2017-06-11T09:15:38.000Z</time>
      </trkpt>
      <trkpt lat="45.12031" lon="5.51264">
        <ele>1133</ele>
        <time>2017-06-11T09:15:39.000Z</time>
      </trkpt>
      <trkpt lat="45.12029" lon="5.51263">
        <ele>1133</ele>
        <time>2017-06-11T09:15:40.000Z</time>
      </trkpt>
      <trkpt lat="45.12017" lon="5.51252">
        <ele>1132</ele>
        <time>2017-06-11T09:15:50.000Z</time>
      </trkpt>
      <trkpt lat="45.12015" lon="5.51249">
        <ele>1137</ele>
        <time>2017-06-11T09:15:52.000Z</time>
      </trkpt>
      <trkpt lat="45.12014" lon="5.51248">
        <ele>1137</ele>
        <time>2017-06-11T09:15:53.000Z</time>
      </trkpt>
      <trkpt lat="45.12012" lon="5.51247">
        <ele>1136</ele>
        <time>2017-06-11T09:15:54.000Z</time>
      </trkpt>
      <trkpt lat="45.12011" lon="5.51245">
        <ele>1136</ele>
        <time>2017-06-11T09:15:55.000Z</time>
      </trkpt>
      <trkpt lat="45.1201" lon="5.51244">
        <ele>1136</ele>
        <time>2017-06-11T09:15:56.000Z</time>
      </trkpt>
      <trkpt lat="45.12009" lon="5.51243">
        <ele>1136</ele>
        <time>2017-06-11T09:15:57.000Z</time>
      </trkpt>
      <trkpt lat="45.12007" lon="5.51241">
        <ele>1136</ele>
        <time>2017-06-11T09:15:58.000Z</time>
      </trkpt>
      <trkpt lat="45.12006" lon="5.5124">
        <ele>1136</ele>
        <time>2017-06-11T09:15:59.000Z</time>
      </trkpt>
      <trkpt lat="45.12005" lon="5.51239">
        <ele>1136</ele>
        <time>2017-06-11T09:16:00.000Z</time>
      </trkpt>
      <trkpt lat="45.12004" lon="5.51238">
        <ele>1136</ele>
        <time>2017-06-11T09:16:01.000Z</time>
      </trkpt>
      <trkpt lat="45.12002" lon="5.51237">
        <ele>1137</ele>
        <time>2017-06-11T09:16:02.000Z</time>
      </trkpt>
      <trkpt lat="45.12001" lon="5.51236">
        <ele>1137</ele>
        <time>2017-06-11T09:16:03.000Z</time>
      </trkpt>
      <trkpt lat="45.11994" lon="5.51231">
        <ele>1139</ele>
        <time>2017-06-11T09:16:09.000Z</time>
      </trkpt>
      <trkpt lat="45.11992" lon="5.51225">
        <ele>1141</ele>
        <time>2017-06-11T09:16:13.000Z</time>
      </trkpt>
      <trkpt lat="45.11983" lon="5.51219">
        <ele>1143</ele>
        <time>2017-06-11T09:16:20.000Z</time>
      </trkpt>
      <trkpt lat="45.11971" lon="5.51212">
        <ele>1145</ele>
        <time>2017-06-11T09:16:34.000Z</time>
      </trkpt>
      <trkpt lat="45.11951" lon="5.51199">
        <ele>1146</ele>
        <time>2017-06-11T09:16:46.000Z</time>
      </trkpt>
      <trkpt lat="45.11944" lon="5.51189">
        <ele>1146</ele>
        <time>2017-06-11T09:16:52.000Z</time>
      </trkpt>
      <trkpt lat="45.11931" lon="5.51175">
        <ele>1146</ele>
        <time>2017-06-11T09:17:01.000Z</time>
      </trkpt>
      <trkpt lat="45.1193" lon="5.51173">
        <ele>1146</ele>
        <time>2017-06-11T09:17:02.000Z</time>
      </trkpt>
      <trkpt lat="45.11929" lon="5.51172">
        <ele>1146</ele>
        <time>2017-06-11T09:17:03.000Z</time>
      </trkpt>
      <trkpt lat="45.11928" lon="5.51171">
        <ele>1146</ele>
        <time>2017-06-11T09:17:04.000Z</time>
      </trkpt>
      <trkpt lat="45.11927" lon="5.5117">
        <ele>1146</ele>
        <time>2017-06-11T09:17:05.000Z</time>
      </trkpt>
      <trkpt lat="45.11916" lon="5.51157">
        <ele>1151</ele>
        <time>2017-06-11T09:17:15.000Z</time>
      </trkpt>
      <trkpt lat="45.11909" lon="5.51145">
        <ele>1155</ele>
        <time>2017-06-11T09:17:25.000Z</time>
      </trkpt>
      <trkpt lat="45.11899" lon="5.51138">
        <ele>1158</ele>
        <time>2017-06-11T09:17:36.000Z</time>
      </trkpt>
      <trkpt lat="45.11896" lon="5.51135">
        <ele>1158</ele>
        <time>2017-06-11T09:17:39.000Z</time>
      </trkpt>
      <trkpt lat="45.11895" lon="5.51134">
        <ele>1158</ele>
        <time>2017-06-11T09:17:40.000Z</time>
      </trkpt>
      <trkpt lat="45.11882" lon="5.51125">
        <ele>1160</ele>
        <time>2017-06-11T09:17:52.000Z</time>
      </trkpt>
      <trkpt lat="45.11867" lon="5.51114">
        <ele>1161</ele>
        <time>2017-06-11T09:18:04.000Z</time>
      </trkpt>
      <trkpt lat="45.11865" lon="5.51114">
        <ele>1161</ele>
        <time>2017-06-11T09:18:05.000Z</time>
      </trkpt>
      <trkpt lat="45.1186" lon="5.5111">
        <ele>1161</ele>
        <time>2017-06-11T09:18:10.000Z</time>
      </trkpt>
      <trkpt lat="45.11855" lon="5.51107">
        <ele>1161</ele>
        <time>2017-06-11T09:18:17.000Z</time>
      </trkpt>
      <trkpt lat="45.11851" lon="5.51104">
        <ele>1161</ele>
        <time>2017-06-11T09:18:20.000Z</time>
      </trkpt>
      <trkpt lat="45.1185" lon="5.51104">
        <ele>1161</ele>
        <time>2017-06-11T09:18:21.000Z</time>
      </trkpt>
      <trkpt lat="45.11844" lon="5.51096">
        <ele>1160</ele>
        <time>2017-06-11T09:18:27.000Z</time>
      </trkpt>
      <trkpt lat="45.11832" lon="5.51079">
        <ele>1161</ele>
        <time>2017-06-11T09:18:40.000Z</time>
      </trkpt>
      <trkpt lat="45.11829" lon="5.51077">
        <ele>1163</ele>
        <time>2017-06-11T09:18:42.000Z</time>
      </trkpt>
      <trkpt lat="45.11827" lon="5.51075">
        <ele>1164</ele>
        <time>2017-06-11T09:18:43.000Z</time>
      </trkpt>
      <trkpt lat="45.11825" lon="5.51074">
        <ele>1165</ele>
        <time>2017-06-11T09:18:44.000Z</time>
      </trkpt>
      <trkpt lat="45.11824" lon="5.51072">
        <ele>1165</ele>
        <time>2017-06-11T09:18:45.000Z</time>
      </trkpt>
      <trkpt lat="45.11822" lon="5.51071">
        <ele>1166</ele>
        <time>2017-06-11T09:18:46.000Z</time>
      </trkpt>
      <trkpt lat="45.11821" lon="5.51071">
        <ele>1166</ele>
        <time>2017-06-11T09:18:47.000Z</time>
      </trkpt>
      <trkpt lat="45.11816" lon="5.51067">
        <ele>1168</ele>
        <time>2017-06-11T09:18:51.000Z</time>
      </trkpt>
      <trkpt lat="45.11799" lon="5.51059">
        <ele>1171</ele>
        <time>2017-06-11T09:19:04.000Z</time>
      </trkpt>
      <trkpt lat="45.11781" lon="5.5105">
        <ele>1172</ele>
        <time>2017-06-11T09:19:17.000Z</time>
      </trkpt>
      <trkpt lat="45.11779" lon="5.51048">
        <ele>1173</ele>
        <time>2017-06-11T09:19:18.000Z</time>
      </trkpt>
      <trkpt lat="45.11777" lon="5.51047">
        <ele>1173</ele>
        <time>2017-06-11T09:19:19.000Z</time>
      </trkpt>
      <trkpt lat="45.1176" lon="5.51024">
        <ele>1173</ele>
        <time>2017-06-11T09:19:31.000Z</time>
      </trkpt>
      <trkpt lat="45.11749" lon="5.51008">
        <ele>1175</ele>
        <time>2017-06-11T09:19:39.000Z</time>
      </trkpt>
      <trkpt lat="45.11748" lon="5.51005">
        <ele>1175</ele>
        <time>2017-06-11T09:19:40.000Z</time>
      </trkpt>
      <trkpt lat="45.11747" lon="5.51003">
        <ele>1174</ele>
        <time>2017-06-11T09:19:41.000Z</time>
      </trkpt>
      <trkpt lat="45.11746" lon="5.51001">
        <ele>1174</ele>
        <time>2017-06-11T09:19:42.000Z</time>
      </trkpt>
      <trkpt lat="45.11744" lon="5.50994">
        <ele>1176</ele>
        <time>2017-06-11T09:19:46.000Z</time>
      </trkpt>
      <trkpt lat="45.11742" lon="5.50993">
        <ele>1176</ele>
        <time>2017-06-11T09:19:47.000Z</time>
      </trkpt>
      <trkpt lat="45.11741" lon="5.50992">
        <ele>1177</ele>
        <time>2017-06-11T09:19:48.000Z</time>
      </trkpt>
      <trkpt lat="45.1174" lon="5.5099">
        <ele>1177</ele>
        <time>2017-06-11T09:19:49.000Z</time>
      </trkpt>
      <trkpt lat="45.11739" lon="5.50987">
        <ele>1178</ele>
        <time>2017-06-11T09:19:50.000Z</time>
      </trkpt>
      <trkpt lat="45.11738" lon="5.50986">
        <ele>1178</ele>
        <time>2017-06-11T09:19:51.000Z</time>
      </trkpt>
      <trkpt lat="45.11736" lon="5.50983">
        <ele>1179</ele>
        <time>2017-06-11T09:19:53.000Z</time>
      </trkpt>
      <trkpt lat="45.11723" lon="5.50963">
        <ele>1182</ele>
        <time>2017-06-11T09:20:01.000Z</time>
      </trkpt>
      <trkpt lat="45.11712" lon="5.50941">
        <ele>1183</ele>
        <time>2017-06-11T09:20:13.000Z</time>
      </trkpt>
      <trkpt lat="45.11706" lon="5.50933">
        <ele>1183</ele>
        <time>2017-06-11T09:20:18.000Z</time>
      </trkpt>
      <trkpt lat="45.11695" lon="5.50922">
        <ele>1182</ele>
        <time>2017-06-11T09:20:24.000Z</time>
      </trkpt>
      <trkpt lat="45.11694" lon="5.5092">
        <ele>1182</ele>
        <time>2017-06-11T09:20:25.000Z</time>
      </trkpt>
      <trkpt lat="45.11692" lon="5.50918">
        <ele>1182</ele>
        <time>2017-06-11T09:20:26.000Z</time>
      </trkpt>
      <trkpt lat="45.1169" lon="5.50916">
        <ele>1189</ele>
        <time>2017-06-11T09:20:27.000Z</time>
      </trkpt>
      <trkpt lat="45.11688" lon="5.50914">
        <ele>1189</ele>
        <time>2017-06-11T09:20:28.000Z</time>
      </trkpt>
      <trkpt lat="45.11687" lon="5.50912">
        <ele>1188</ele>
        <time>2017-06-11T09:20:29.000Z</time>
      </trkpt>
      <trkpt lat="45.11681" lon="5.50905">
        <ele>1188</ele>
        <time>2017-06-11T09:20:33.000Z</time>
      </trkpt>
      <trkpt lat="45.11679" lon="5.50903">
        <ele>1188</ele>
        <time>2017-06-11T09:20:34.000Z</time>
      </trkpt>
      <trkpt lat="45.11654" lon="5.5089">
        <ele>1187</ele>
        <time>2017-06-11T09:20:48.000Z</time>
      </trkpt>
      <trkpt lat="45.1165" lon="5.50887">
        <ele>1188</ele>
        <time>2017-06-11T09:20:51.000Z</time>
      </trkpt>
      <trkpt lat="45.11634" lon="5.5088">
        <ele>1189</ele>
        <time>2017-06-11T09:21:01.000Z</time>
      </trkpt>
      <trkpt lat="45.11633" lon="5.50879">
        <ele>1189</ele>
        <time>2017-06-11T09:21:02.000Z</time>
      </trkpt>
      <trkpt lat="45.11631" lon="5.50878">
        <ele>1189</ele>
        <time>2017-06-11T09:21:03.000Z</time>
      </trkpt>
      <trkpt lat="45.11629" lon="5.50877">
        <ele>1189</ele>
        <time>2017-06-11T09:21:04.000Z</time>
      </trkpt>
      <trkpt lat="45.11628" lon="5.50875">
        <ele>1189</ele>
        <time>2017-06-11T09:21:05.000Z</time>
      </trkpt>
      <trkpt lat="45.11626" lon="5.50875">
        <ele>1189</ele>
        <time>2017-06-11T09:21:06.000Z</time>
      </trkpt>
      <trkpt lat="45.11625" lon="5.50874">
        <ele>1190</ele>
        <time>2017-06-11T09:21:07.000Z</time>
      </trkpt>
      <trkpt lat="45.11623" lon="5.50873">
        <ele>1190</ele>
        <time>2017-06-11T09:21:08.000Z</time>
      </trkpt>
      <trkpt lat="45.11621" lon="5.50872">
        <ele>1190</ele>
        <time>2017-06-11T09:21:09.000Z</time>
      </trkpt>
      <trkpt lat="45.11604" lon="5.50858">
        <ele>1189</ele>
        <time>2017-06-11T09:21:20.000Z</time>
      </trkpt>
      <trkpt lat="45.11592" lon="5.50845">
        <ele>1187</ele>
        <time>2017-06-11T09:21:28.000Z</time>
      </trkpt>
      <trkpt lat="45.11569" lon="5.50827">
        <ele>1190</ele>
        <time>2017-06-11T09:21:41.000Z</time>
      </trkpt>
      <trkpt lat="45.11546" lon="5.50814">
        <ele>1194</ele>
        <time>2017-06-11T09:21:50.000Z</time>
      </trkpt>
      <trkpt lat="45.11544" lon="5.50813">
        <ele>1194</ele>
        <time>2017-06-11T09:21:51.000Z</time>
      </trkpt>
      <trkpt lat="45.11541" lon="5.50812">
        <ele>1194</ele>
        <time>2017-06-11T09:21:52.000Z</time>
      </trkpt>
      <trkpt lat="45.11539" lon="5.50811">
        <ele>1194</ele>
        <time>2017-06-11T09:21:53.000Z</time>
      </trkpt>
      <trkpt lat="45.11536" lon="5.5081">
        <ele>1194</ele>
        <time>2017-06-11T09:21:54.000Z</time>
      </trkpt>
      <trkpt lat="45.11534" lon="5.50808">
        <ele>1194</ele>
        <time>2017-06-11T09:21:55.000Z</time>
      </trkpt>
      <trkpt lat="45.11531" lon="5.50807">
        <ele>1194</ele>
        <time>2017-06-11T09:21:56.000Z</time>
      </trkpt>
      <trkpt lat="45.11505" lon="5.50798">
        <ele>1195</ele>
        <time>2017-06-11T09:22:09.000Z</time>
      </trkpt>
      <trkpt lat="45.11503" lon="5.50798">
        <ele>1195</ele>
        <time>2017-06-11T09:22:10.000Z</time>
      </trkpt>
      <trkpt lat="45.11501" lon="5.50799">
        <ele>1195</ele>
        <time>2017-06-11T09:22:11.000Z</time>
      </trkpt>
      <trkpt lat="45.11499" lon="5.50798">
        <ele>1199</ele>
        <time>2017-06-11T09:22:12.000Z</time>
      </trkpt>
      <trkpt lat="45.11497" lon="5.50797">
        <ele>1200</ele>
        <time>2017-06-11T09:22:13.000Z</time>
      </trkpt>
      <trkpt lat="45.11495" lon="5.50796">
        <ele>1200</ele>
        <time>2017-06-11T09:22:14.000Z</time>
      </trkpt>
      <trkpt lat="45.11493" lon="5.50795">
        <ele>1200</ele>
        <time>2017-06-11T09:22:15.000Z</time>
      </trkpt>
      <trkpt lat="45.11491" lon="5.50794">
        <ele>1200</ele>
        <time>2017-06-11T09:22:16.000Z</time>
      </trkpt>
      <trkpt lat="45.11489" lon="5.50793">
        <ele>1200</ele>
        <time>2017-06-11T09:22:17.000Z</time>
      </trkpt>
      <trkpt lat="45.11487" lon="5.50792">
        <ele>1200</ele>
        <time>2017-06-11T09:22:18.000Z</time>
      </trkpt>
      <trkpt lat="45.11485" lon="5.50791">
        <ele>1201</ele>
        <time>2017-06-11T09:22:19.000Z</time>
      </trkpt>
      <trkpt lat="45.11464" lon="5.50772">
        <ele>1202</ele>
        <time>2017-06-11T09:22:30.000Z</time>
      </trkpt>
      <trkpt lat="45.11437" lon="5.5075">
        <ele>1203</ele>
        <time>2017-06-11T09:22:43.000Z</time>
      </trkpt>
      <trkpt lat="45.11433" lon="5.50747">
        <ele>1205</ele>
        <time>2017-06-11T09:22:45.000Z</time>
      </trkpt>
      <trkpt lat="45.11429" lon="5.50743">
        <ele>1205</ele>
        <time>2017-06-11T09:22:47.000Z</time>
      </trkpt>
      <trkpt lat="45.11427" lon="5.50741">
        <ele>1205</ele>
        <time>2017-06-11T09:22:48.000Z</time>
      </trkpt>
      <trkpt lat="45.11424" lon="5.5074">
        <ele>1205</ele>
        <time>2017-06-11T09:22:49.000Z</time>
      </trkpt>
      <trkpt lat="45.11394" lon="5.50732">
        <ele>1210</ele>
        <time>2017-06-11T09:23:03.000Z</time>
      </trkpt>
      <trkpt lat="45.11391" lon="5.5073">
        <ele>1211</ele>
        <time>2017-06-11T09:23:05.000Z</time>
      </trkpt>
      <trkpt lat="45.1139" lon="5.50728">
        <ele>1211</ele>
        <time>2017-06-11T09:23:06.000Z</time>
      </trkpt>
      <trkpt lat="45.11381" lon="5.50725">
        <ele>1212</ele>
        <time>2017-06-11T09:23:12.000Z</time>
      </trkpt>
      <trkpt lat="45.11363" lon="5.50706">
        <ele>1214</ele>
        <time>2017-06-11T09:23:21.000Z</time>
      </trkpt>
      <trkpt lat="45.11362" lon="5.50705">
        <ele>1214</ele>
        <time>2017-06-11T09:23:22.000Z</time>
      </trkpt>
      <trkpt lat="45.11361" lon="5.50704">
        <ele>1214</ele>
        <time>2017-06-11T09:23:23.000Z</time>
      </trkpt>
      <trkpt lat="45.11344" lon="5.50688">
        <ele>1214</ele>
        <time>2017-06-11T09:23:32.000Z</time>
      </trkpt>
      <trkpt lat="45.11343" lon="5.50687">
        <ele>1214</ele>
        <time>2017-06-11T09:23:33.000Z</time>
      </trkpt>
      <trkpt lat="45.11342" lon="5.50685">
        <ele>1214</ele>
        <time>2017-06-11T09:23:34.000Z</time>
      </trkpt>
      <trkpt lat="45.11339" lon="5.50681">
        <ele>1215</ele>
        <time>2017-06-11T09:23:36.000Z</time>
      </trkpt>
      <trkpt lat="45.11337" lon="5.50679">
        <ele>1215</ele>
        <time>2017-06-11T09:23:37.000Z</time>
      </trkpt>
      <trkpt lat="45.11336" lon="5.50677">
        <ele>1215</ele>
        <time>2017-06-11T09:23:38.000Z</time>
      </trkpt>
      <trkpt lat="45.11334" lon="5.50676">
        <ele>1215</ele>
        <time>2017-06-11T09:23:39.000Z</time>
      </trkpt>
      <trkpt lat="45.11333" lon="5.50674">
        <ele>1219</ele>
        <time>2017-06-11T09:23:40.000Z</time>
      </trkpt>
      <trkpt lat="45.11331" lon="5.50673">
        <ele>1219</ele>
        <time>2017-06-11T09:23:41.000Z</time>
      </trkpt>
      <trkpt lat="45.11329" lon="5.50672">
        <ele>1219</ele>
        <time>2017-06-11T09:23:42.000Z</time>
      </trkpt>
      <trkpt lat="45.11328" lon="5.50669">
        <ele>1219</ele>
        <time>2017-06-11T09:23:43.000Z</time>
      </trkpt>
      <trkpt lat="45.11318" lon="5.50654">
        <ele>1223</ele>
        <time>2017-06-11T09:23:51.000Z</time>
      </trkpt>
      <trkpt lat="45.11316" lon="5.50653">
        <ele>1224</ele>
        <time>2017-06-11T09:23:52.000Z</time>
      </trkpt>
      <trkpt lat="45.11316" lon="5.50652">
        <ele>1224</ele>
        <time>2017-06-11T09:23:53.000Z</time>
      </trkpt>
      <trkpt lat="45.11299" lon="5.50625">
        <ele>1229</ele>
        <time>2017-06-11T09:24:06.000Z</time>
      </trkpt>
      <trkpt lat="45.11291" lon="5.50612">
        <ele>1230</ele>
        <time>2017-06-11T09:24:12.000Z</time>
      </trkpt>
      <trkpt lat="45.1129" lon="5.50609">
        <ele>1230</ele>
        <time>2017-06-11T09:24:13.000Z</time>
      </trkpt>
      <trkpt lat="45.11289" lon="5.50607">
        <ele>1230</ele>
        <time>2017-06-11T09:24:14.000Z</time>
      </trkpt>
      <trkpt lat="45.11287" lon="5.50605">
        <ele>1230</ele>
        <time>2017-06-11T09:24:15.000Z</time>
      </trkpt>
      <trkpt lat="45.11286" lon="5.50604">
        <ele>1230</ele>
        <time>2017-06-11T09:24:16.000Z</time>
      </trkpt>
      <trkpt lat="45.11284" lon="5.50602">
        <ele>1230</ele>
        <time>2017-06-11T09:24:17.000Z</time>
      </trkpt>
      <trkpt lat="45.11283" lon="5.50601">
        <ele>1230</ele>
        <time>2017-06-11T09:24:18.000Z</time>
      </trkpt>
      <trkpt lat="45.11282" lon="5.50599">
        <ele>1230</ele>
        <time>2017-06-11T09:24:19.000Z</time>
      </trkpt>
      <trkpt lat="45.11281" lon="5.50597">
        <ele>1230</ele>
        <time>2017-06-11T09:24:20.000Z</time>
      </trkpt>
      <trkpt lat="45.1128" lon="5.50596">
        <ele>1230</ele>
        <time>2017-06-11T09:24:21.000Z</time>
      </trkpt>
      <trkpt lat="45.11278" lon="5.50594">
        <ele>1230</ele>
        <time>2017-06-11T09:24:22.000Z</time>
      </trkpt>
      <trkpt lat="45.11277" lon="5.50593">
        <ele>1231</ele>
        <time>2017-06-11T09:24:23.000Z</time>
      </trkpt>
      <trkpt lat="45.11275" lon="5.50591">
        <ele>1231</ele>
        <time>2017-06-11T09:24:24.000Z</time>
      </trkpt>
      <trkpt lat="45.11273" lon="5.5059">
        <ele>1231</ele>
        <time>2017-06-11T09:24:25.000Z</time>
      </trkpt>
      <trkpt lat="45.11271" lon="5.50588">
        <ele>1231</ele>
        <time>2017-06-11T09:24:26.000Z</time>
      </trkpt>
      <trkpt lat="45.11269" lon="5.50587">
        <ele>1231</ele>
        <time>2017-06-11T09:24:27.000Z</time>
      </trkpt>
      <trkpt lat="45.11267" lon="5.50586">
        <ele>1231</ele>
        <time>2017-06-11T09:24:28.000Z</time>
      </trkpt>
      <trkpt lat="45.11264" lon="5.50585">
        <ele>1231</ele>
        <time>2017-06-11T09:24:29.000Z</time>
      </trkpt>
      <trkpt lat="45.11262" lon="5.50584">
        <ele>1231</ele>
        <time>2017-06-11T09:24:30.000Z</time>
      </trkpt>
      <trkpt lat="45.1126" lon="5.50583">
        <ele>1236</ele>
        <time>2017-06-11T09:24:31.000Z</time>
      </trkpt>
      <trkpt lat="45.11257" lon="5.50582">
        <ele>1235</ele>
        <time>2017-06-11T09:24:32.000Z</time>
      </trkpt>
      <trkpt lat="45.11229" lon="5.50578">
        <ele>1239</ele>
        <time>2017-06-11T09:24:46.000Z</time>
      </trkpt>
      <trkpt lat="45.11218" lon="5.50574">
        <ele>1241</ele>
        <time>2017-06-11T09:24:53.000Z</time>
      </trkpt>
      <trkpt lat="45.11216" lon="5.50574">
        <ele>1241</ele>
        <time>2017-06-11T09:24:54.000Z</time>
      </trkpt>
      <trkpt lat="45.11214" lon="5.50574">
        <ele>1241</ele>
        <time>2017-06-11T09:24:55.000Z</time>
      </trkpt>
      <trkpt lat="45.11212" lon="5.50573">
        <ele>1241</ele>
        <time>2017-06-11T09:24:56.000Z</time>
      </trkpt>
      <trkpt lat="45.1121" lon="5.50573">
        <ele>1242</ele>
        <time>2017-06-11T09:24:57.000Z</time>
      </trkpt>
      <trkpt lat="45.11208" lon="5.50572">
        <ele>1242</ele>
        <time>2017-06-11T09:24:58.000Z</time>
      </trkpt>
      <trkpt lat="45.11206" lon="5.50572">
        <ele>1242</ele>
        <time>2017-06-11T09:24:59.000Z</time>
      </trkpt>
      <trkpt lat="45.11204" lon="5.50572">
        <ele>1242</ele>
        <time>2017-06-11T09:25:00.000Z</time>
      </trkpt>
      <trkpt lat="45.1119" lon="5.50571">
        <ele>1243</ele>
        <time>2017-06-11T09:25:09.000Z</time>
      </trkpt>
      <trkpt lat="45.11189" lon="5.50569">
        <ele>1243</ele>
        <time>2017-06-11T09:25:10.000Z</time>
      </trkpt>
      <trkpt lat="45.11187" lon="5.50568">
        <ele>1243</ele>
        <time>2017-06-11T09:25:11.000Z</time>
      </trkpt>
      <trkpt lat="45.11186" lon="5.50566">
        <ele>1243</ele>
        <time>2017-06-11T09:25:12.000Z</time>
      </trkpt>
      <trkpt lat="45.11184" lon="5.50564">
        <ele>1243</ele>
        <time>2017-06-11T09:25:13.000Z</time>
      </trkpt>
      <trkpt lat="45.11183" lon="5.50563">
        <ele>1243</ele>
        <time>2017-06-11T09:25:14.000Z</time>
      </trkpt>
      <trkpt lat="45.1117" lon="5.50551">
        <ele>1244</ele>
        <time>2017-06-11T09:25:25.000Z</time>
      </trkpt>
      <trkpt lat="45.11169" lon="5.50551">
        <ele>1244</ele>
        <time>2017-06-11T09:25:26.000Z</time>
      </trkpt>
      <trkpt lat="45.11167" lon="5.50549">
        <ele>1244</ele>
        <time>2017-06-11T09:25:27.000Z</time>
      </trkpt>
      <trkpt lat="45.11156" lon="5.50537">
        <ele>1250</ele>
        <time>2017-06-11T09:25:34.000Z</time>
      </trkpt>
      <trkpt lat="45.11153" lon="5.50535">
        <ele>1250</ele>
        <time>2017-06-11T09:25:35.000Z</time>
      </trkpt>
      <trkpt lat="45.11151" lon="5.50532">
        <ele>1250</ele>
        <time>2017-06-11T09:25:36.000Z</time>
      </trkpt>
      <trkpt lat="45.11149" lon="5.5053">
        <ele>1250</ele>
        <time>2017-06-11T09:25:37.000Z</time>
      </trkpt>
      <trkpt lat="45.11147" lon="5.50527">
        <ele>1250</ele>
        <time>2017-06-11T09:25:38.000Z</time>
      </trkpt>
      <trkpt lat="45.11146" lon="5.50525">
        <ele>1250</ele>
        <time>2017-06-11T09:25:39.000Z</time>
      </trkpt>
      <trkpt lat="45.11142" lon="5.5052">
        <ele>1250</ele>
        <time>2017-06-11T09:25:41.000Z</time>
      </trkpt>
      <trkpt lat="45.1114" lon="5.50517">
        <ele>1250</ele>
        <time>2017-06-11T09:25:42.000Z</time>
      </trkpt>
      <trkpt lat="45.11132" lon="5.50512">
        <ele>1251</ele>
        <time>2017-06-11T09:25:46.000Z</time>
      </trkpt>
      <trkpt lat="45.1113" lon="5.50511">
        <ele>1251</ele>
        <time>2017-06-11T09:25:47.000Z</time>
      </trkpt>
      <trkpt lat="45.11109" lon="5.50496">
        <ele>1253</ele>
        <time>2017-06-11T09:25:58.000Z</time>
      </trkpt>
      <trkpt lat="45.11108" lon="5.50494">
        <ele>1253</ele>
        <time>2017-06-11T09:25:59.000Z</time>
      </trkpt>
      <trkpt lat="45.11106" lon="5.50492">
        <ele>1253</ele>
        <time>2017-06-11T09:26:00.000Z</time>
      </trkpt>
      <trkpt lat="45.11104" lon="5.5049">
        <ele>1253</ele>
        <time>2017-06-11T09:26:01.000Z</time>
      </trkpt>
      <trkpt lat="45.11103" lon="5.50488">
        <ele>1253</ele>
        <time>2017-06-11T09:26:02.000Z</time>
      </trkpt>
      <trkpt lat="45.11101" lon="5.50487">
        <ele>1253</ele>
        <time>2017-06-11T09:26:03.000Z</time>
      </trkpt>
      <trkpt lat="45.11099" lon="5.50486">
        <ele>1253</ele>
        <time>2017-06-11T09:26:04.000Z</time>
      </trkpt>
      <trkpt lat="45.11098" lon="5.50485">
        <ele>1253</ele>
        <time>2017-06-11T09:26:05.000Z</time>
      </trkpt>
      <trkpt lat="45.11096" lon="5.50483">
        <ele>1253</ele>
        <time>2017-06-11T09:26:06.000Z</time>
      </trkpt>
      <trkpt lat="45.11095" lon="5.50482">
        <ele>1253</ele>
        <time>2017-06-11T09:26:07.000Z</time>
      </trkpt>
      <trkpt lat="45.11093" lon="5.50481">
        <ele>1254</ele>
        <time>2017-06-11T09:26:08.000Z</time>
      </trkpt>
      <trkpt lat="45.11092" lon="5.50479">
        <ele>1254</ele>
        <time>2017-06-11T09:26:09.000Z</time>
      </trkpt>
      <trkpt lat="45.11092" lon="5.50476">
        <ele>1254</ele>
        <time>2017-06-11T09:26:10.000Z</time>
      </trkpt>
      <trkpt lat="45.1109" lon="5.50474">
        <ele>1254</ele>
        <time>2017-06-11T09:26:11.000Z</time>
      </trkpt>
      <trkpt lat="45.11089" lon="5.50473">
        <ele>1254</ele>
        <time>2017-06-11T09:26:12.000Z</time>
      </trkpt>
      <trkpt lat="45.11087" lon="5.50471">
        <ele>1255</ele>
        <time>2017-06-11T09:26:13.000Z</time>
      </trkpt>
      <trkpt lat="45.11085" lon="5.50467">
        <ele>1255</ele>
        <time>2017-06-11T09:26:15.000Z</time>
      </trkpt>
      <trkpt lat="45.11083" lon="5.50465">
        <ele>1257</ele>
        <time>2017-06-11T09:26:16.000Z</time>
      </trkpt>
      <trkpt lat="45.11081" lon="5.50462">
        <ele>1258</ele>
        <time>2017-06-11T09:26:17.000Z</time>
      </trkpt>
      <trkpt lat="45.11079" lon="5.5046">
        <ele>1258</ele>
        <time>2017-06-11T09:26:18.000Z</time>
      </trkpt>
      <trkpt lat="45.11078" lon="5.50458">
        <ele>1258</ele>
        <time>2017-06-11T09:26:19.000Z</time>
      </trkpt>
      <trkpt lat="45.11076" lon="5.50456">
        <ele>1258</ele>
        <time>2017-06-11T09:26:20.000Z</time>
      </trkpt>
      <trkpt lat="45.11074" lon="5.50454">
        <ele>1258</ele>
        <time>2017-06-11T09:26:21.000Z</time>
      </trkpt>
      <trkpt lat="45.11072" lon="5.50452">
        <ele>1258</ele>
        <time>2017-06-11T09:26:22.000Z</time>
      </trkpt>
      <trkpt lat="45.11071" lon="5.50451">
        <ele>1259</ele>
        <time>2017-06-11T09:26:23.000Z</time>
      </trkpt>
      <trkpt lat="45.11051" lon="5.50433">
        <ele>1260</ele>
        <time>2017-06-11T09:26:36.000Z</time>
      </trkpt>
      <trkpt lat="45.11042" lon="5.50428">
        <ele>1260</ele>
        <time>2017-06-11T09:26:41.000Z</time>
      </trkpt>
      <trkpt lat="45.11041" lon="5.50427">
        <ele>1260</ele>
        <time>2017-06-11T09:26:42.000Z</time>
      </trkpt>
      <trkpt lat="45.11039" lon="5.50426">
        <ele>1260</ele>
        <time>2017-06-11T09:26:43.000Z</time>
      </trkpt>
      <trkpt lat="45.11037" lon="5.50424">
        <ele>1260</ele>
        <time>2017-06-11T09:26:44.000Z</time>
      </trkpt>
      <trkpt lat="45.11035" lon="5.50423">
        <ele>1261</ele>
        <time>2017-06-11T09:26:45.000Z</time>
      </trkpt>
      <trkpt lat="45.1103" lon="5.5042">
        <ele>1261</ele>
        <time>2017-06-11T09:26:50.000Z</time>
      </trkpt>
      <trkpt lat="45.11028" lon="5.50417">
        <ele>1264</ele>
        <time>2017-06-11T09:26:52.000Z</time>
      </trkpt>
      <trkpt lat="45.11015" lon="5.50402">
        <ele>1264</ele>
        <time>2017-06-11T09:27:03.000Z</time>
      </trkpt>
      <trkpt lat="45.11014" lon="5.50399">
        <ele>1264</ele>
        <time>2017-06-11T09:27:04.000Z</time>
      </trkpt>
      <trkpt lat="45.11013" lon="5.50397">
        <ele>1265</ele>
        <time>2017-06-11T09:27:05.000Z</time>
      </trkpt>
      <trkpt lat="45.11011" lon="5.50395">
        <ele>1265</ele>
        <time>2017-06-11T09:27:06.000Z</time>
      </trkpt>
      <trkpt lat="45.1101" lon="5.50392">
        <ele>1265</ele>
        <time>2017-06-11T09:27:07.000Z</time>
      </trkpt>
      <trkpt lat="45.11009" lon="5.5039">
        <ele>1265</ele>
        <time>2017-06-11T09:27:08.000Z</time>
      </trkpt>
      <trkpt lat="45.11008" lon="5.50387">
        <ele>1265</ele>
        <time>2017-06-11T09:27:09.000Z</time>
      </trkpt>
      <trkpt lat="45.11007" lon="5.50385">
        <ele>1266</ele>
        <time>2017-06-11T09:27:10.000Z</time>
      </trkpt>
      <trkpt lat="45.11006" lon="5.50382">
        <ele>1266</ele>
        <time>2017-06-11T09:27:11.000Z</time>
      </trkpt>
      <trkpt lat="45.11005" lon="5.5038">
        <ele>1266</ele>
        <time>2017-06-11T09:27:12.000Z</time>
      </trkpt>
      <trkpt lat="45.11004" lon="5.50379">
        <ele>1266</ele>
        <time>2017-06-11T09:27:13.000Z</time>
      </trkpt>
      <trkpt lat="45.11003" lon="5.50377">
        <ele>1266</ele>
        <time>2017-06-11T09:27:14.000Z</time>
      </trkpt>
      <trkpt lat="45.11002" lon="5.50375">
        <ele>1267</ele>
        <time>2017-06-11T09:27:15.000Z</time>
      </trkpt>
      <trkpt lat="45.11001" lon="5.50373">
        <ele>1267</ele>
        <time>2017-06-11T09:27:16.000Z</time>
      </trkpt>
      <trkpt lat="45.11001" lon="5.50371">
        <ele>1267</ele>
        <time>2017-06-11T09:27:17.000Z</time>
      </trkpt>
      <trkpt lat="45.10999" lon="5.50363">
        <ele>1272</ele>
        <time>2017-06-11T09:27:21.000Z</time>
      </trkpt>
      <trkpt lat="45.10999" lon="5.50361">
        <ele>1272</ele>
        <time>2017-06-11T09:27:22.000Z</time>
      </trkpt>
      <trkpt lat="45.11" lon="5.5036">
        <ele>1268</ele>
        <time>2017-06-11T09:27:23.000Z</time>
      </trkpt>
      <trkpt lat="45.11001" lon="5.50359">
        <ele>1268</ele>
        <time>2017-06-11T09:27:24.000Z</time>
      </trkpt>
      <trkpt lat="45.11002" lon="5.50359">
        <ele>1268</ele>
        <time>2017-06-11T09:27:25.000Z</time>
      </trkpt>
      <trkpt lat="45.11003" lon="5.50359">
        <ele>1268</ele>
        <time>2017-06-11T09:27:26.000Z</time>
      </trkpt>
      <trkpt lat="45.11005" lon="5.5036">
        <ele>1268</ele>
        <time>2017-06-11T09:27:27.000Z</time>
      </trkpt>
      <trkpt lat="45.11007" lon="5.50362">
        <ele>1268</ele>
        <time>2017-06-11T09:27:29.000Z</time>
      </trkpt>
      <trkpt lat="45.11012" lon="5.50369">
        <ele>1267</ele>
        <time>2017-06-11T09:27:33.000Z</time>
      </trkpt>
      <trkpt lat="45.11012" lon="5.50371">
        <ele>1267</ele>
        <time>2017-06-11T09:27:34.000Z</time>
      </trkpt>
      <trkpt lat="45.11013" lon="5.50372">
        <ele>1267</ele>
        <time>2017-06-11T09:27:35.000Z</time>
      </trkpt>
      <trkpt lat="45.11015" lon="5.50374">
        <ele>1267</ele>
        <time>2017-06-11T09:27:36.000Z</time>
      </trkpt>
      <trkpt lat="45.11016" lon="5.50375">
        <ele>1267</ele>
        <time>2017-06-11T09:27:37.000Z</time>
      </trkpt>
      <trkpt lat="45.11017" lon="5.50376">
        <ele>1267</ele>
        <time>2017-06-11T09:27:38.000Z</time>
      </trkpt>
      <trkpt lat="45.11019" lon="5.50377">
        <ele>1267</ele>
        <time>2017-06-11T09:27:39.000Z</time>
      </trkpt>
      <trkpt lat="45.1102" lon="5.50379">
        <ele>1266</ele>
        <time>2017-06-11T09:27:40.000Z</time>
      </trkpt>
      <trkpt lat="45.11022" lon="5.5038">
        <ele>1266</ele>
        <time>2017-06-11T09:27:41.000Z</time>
      </trkpt>
      <trkpt lat="45.11023" lon="5.50381">
        <ele>1266</ele>
        <time>2017-06-11T09:27:42.000Z</time>
      </trkpt>
      <trkpt lat="45.11025" lon="5.50382">
        <ele>1266</ele>
        <time>2017-06-11T09:27:43.000Z</time>
      </trkpt>
      <trkpt lat="45.11026" lon="5.50383">
        <ele>1266</ele>
        <time>2017-06-11T09:27:44.000Z</time>
      </trkpt>
      <trkpt lat="45.11028" lon="5.50383">
        <ele>1266</ele>
        <time>2017-06-11T09:27:45.000Z</time>
      </trkpt>
      <trkpt lat="45.11053" lon="5.50391">
        <ele>1265</ele>
        <time>2017-06-11T09:27:57.000Z</time>
      </trkpt>
      <trkpt lat="45.11082" lon="5.50401">
        <ele>1262</ele>
        <time>2017-06-11T09:28:08.000Z</time>
      </trkpt>
      <trkpt lat="45.11089" lon="5.50407">
        <ele>1265</ele>
        <time>2017-06-11T09:28:10.000Z</time>
      </trkpt>
      <trkpt lat="45.11092" lon="5.5041">
        <ele>1265</ele>
        <time>2017-06-11T09:28:11.000Z</time>
      </trkpt>
      <trkpt lat="45.11112" lon="5.50432">
        <ele>1259</ele>
        <time>2017-06-11T09:28:19.000Z</time>
      </trkpt>
      <trkpt lat="45.11115" lon="5.50434">
        <ele>1259</ele>
        <time>2017-06-11T09:28:20.000Z</time>
      </trkpt>
      <trkpt lat="45.11117" lon="5.50437">
        <ele>1259</ele>
        <time>2017-06-11T09:28:21.000Z</time>
      </trkpt>
      <trkpt lat="45.11146" lon="5.50458">
        <ele>1259</ele>
        <time>2017-06-11T09:28:32.000Z</time>
      </trkpt>
      <trkpt lat="45.11183" lon="5.50472">
        <ele>1263</ele>
        <time>2017-06-11T09:28:44.000Z</time>
      </trkpt>
      <trkpt lat="45.11221" lon="5.50473">
        <ele>1266</ele>
        <time>2017-06-11T09:28:55.000Z</time>
      </trkpt>
      <trkpt lat="45.11257" lon="5.50476">
        <ele>1268</ele>
        <time>2017-06-11T09:29:04.000Z</time>
      </trkpt>
      <trkpt lat="45.11281" lon="5.50491">
        <ele>1268</ele>
        <time>2017-06-11T09:29:10.000Z</time>
      </trkpt>
      <trkpt lat="45.11285" lon="5.50495">
        <ele>1268</ele>
        <time>2017-06-11T09:29:11.000Z</time>
      </trkpt>
      <trkpt lat="45.11345" lon="5.50524">
        <ele>1255</ele>
        <time>2017-06-11T09:29:25.000Z</time>
      </trkpt>
      <trkpt lat="45.11364" lon="5.50524">
        <ele>1254</ele>
        <time>2017-06-11T09:29:30.000Z</time>
      </trkpt>
      <trkpt lat="45.11368" lon="5.50522">
        <ele>1254</ele>
        <time>2017-06-11T09:29:31.000Z</time>
      </trkpt>
      <trkpt lat="45.11372" lon="5.50519">
        <ele>1254</ele>
        <time>2017-06-11T09:29:32.000Z</time>
      </trkpt>
      <trkpt lat="45.11375" lon="5.50516">
        <ele>1255</ele>
        <time>2017-06-11T09:29:33.000Z</time>
      </trkpt>
      <trkpt lat="45.11378" lon="5.50512">
        <ele>1255</ele>
        <time>2017-06-11T09:29:34.000Z</time>
      </trkpt>
      <trkpt lat="45.11381" lon="5.50509">
        <ele>1255</ele>
        <time>2017-06-11T09:29:35.000Z</time>
      </trkpt>
      <trkpt lat="45.11383" lon="5.50505">
        <ele>1256</ele>
        <time>2017-06-11T09:29:36.000Z</time>
      </trkpt>
      <trkpt lat="45.11384" lon="5.505">
        <ele>1269</ele>
        <time>2017-06-11T09:29:37.000Z</time>
      </trkpt>
      <trkpt lat="45.11384" lon="5.50495">
        <ele>1269</ele>
        <time>2017-06-11T09:29:38.000Z</time>
      </trkpt>
      <trkpt lat="45.11385" lon="5.5049">
        <ele>1270</ele>
        <time>2017-06-11T09:29:39.000Z</time>
      </trkpt>
      <trkpt lat="45.11404" lon="5.50461">
        <ele>1273</ele>
        <time>2017-06-11T09:29:47.000Z</time>
      </trkpt>
      <trkpt lat="45.11408" lon="5.50462">
        <ele>1272</ele>
        <time>2017-06-11T09:29:48.000Z</time>
      </trkpt>
      <trkpt lat="45.11412" lon="5.50465">
        <ele>1272</ele>
        <time>2017-06-11T09:29:49.000Z</time>
      </trkpt>
      <trkpt lat="45.11438" lon="5.50515">
        <ele>1258</ele>
        <time>2017-06-11T09:30:01.000Z</time>
      </trkpt>
      <trkpt lat="45.1146" lon="5.5055">
        <ele>1255</ele>
        <time>2017-06-11T09:30:09.000Z</time>
      </trkpt>
      <trkpt lat="45.11464" lon="5.50554">
        <ele>1255</ele>
        <time>2017-06-11T09:30:10.000Z</time>
      </trkpt>
      <trkpt lat="45.11468" lon="5.50556">
        <ele>1255</ele>
        <time>2017-06-11T09:30:11.000Z</time>
      </trkpt>
      <trkpt lat="45.11473" lon="5.50558">
        <ele>1255</ele>
        <time>2017-06-11T09:30:12.000Z</time>
      </trkpt>
      <trkpt lat="45.11477" lon="5.5056">
        <ele>1254</ele>
        <time>2017-06-11T09:30:13.000Z</time>
      </trkpt>
      <trkpt lat="45.11481" lon="5.50561">
        <ele>1254</ele>
        <time>2017-06-11T09:30:14.000Z</time>
      </trkpt>
      <trkpt lat="45.11486" lon="5.50561">
        <ele>1254</ele>
        <time>2017-06-11T09:30:15.000Z</time>
      </trkpt>
      <trkpt lat="45.11491" lon="5.50561">
        <ele>1254</ele>
        <time>2017-06-11T09:30:16.000Z</time>
      </trkpt>
      <trkpt lat="45.11495" lon="5.5056">
        <ele>1254</ele>
        <time>2017-06-11T09:30:17.000Z</time>
      </trkpt>
      <trkpt lat="45.11499" lon="5.50558">
        <ele>1255</ele>
        <time>2017-06-11T09:30:18.000Z</time>
      </trkpt>
      <trkpt lat="45.11503" lon="5.50556">
        <ele>1258</ele>
        <time>2017-06-11T09:30:19.000Z</time>
      </trkpt>
      <trkpt lat="45.11507" lon="5.50552">
        <ele>1258</ele>
        <time>2017-06-11T09:30:20.000Z</time>
      </trkpt>
      <trkpt lat="45.1151" lon="5.50548">
        <ele>1259</ele>
        <time>2017-06-11T09:30:21.000Z</time>
      </trkpt>
      <trkpt lat="45.11513" lon="5.50543">
        <ele>1260</ele>
        <time>2017-06-11T09:30:22.000Z</time>
      </trkpt>
      <trkpt lat="45.11516" lon="5.50537">
        <ele>1261</ele>
        <time>2017-06-11T09:30:23.000Z</time>
      </trkpt>
      <trkpt lat="45.1152" lon="5.50532">
        <ele>1262</ele>
        <time>2017-06-11T09:30:24.000Z</time>
      </trkpt>
      <trkpt lat="45.11549" lon="5.50491">
        <ele>1275</ele>
        <time>2017-06-11T09:30:31.000Z</time>
      </trkpt>
      <trkpt lat="45.11553" lon="5.50486">
        <ele>1275</ele>
        <time>2017-06-11T09:30:32.000Z</time>
      </trkpt>
      <trkpt lat="45.11558" lon="5.50482">
        <ele>1275</ele>
        <time>2017-06-11T09:30:33.000Z</time>
      </trkpt>
      <trkpt lat="45.11562" lon="5.5048">
        <ele>1275</ele>
        <time>2017-06-11T09:30:34.000Z</time>
      </trkpt>
      <trkpt lat="45.11565" lon="5.50481">
        <ele>1275</ele>
        <time>2017-06-11T09:30:35.000Z</time>
      </trkpt>
      <trkpt lat="45.11566" lon="5.50485">
        <ele>1274</ele>
        <time>2017-06-11T09:30:36.000Z</time>
      </trkpt>
      <trkpt lat="45.11568" lon="5.50492">
        <ele>1273</ele>
        <time>2017-06-11T09:30:37.000Z</time>
      </trkpt>
      <trkpt lat="45.1157" lon="5.50499">
        <ele>1272</ele>
        <time>2017-06-11T09:30:38.000Z</time>
      </trkpt>
      <trkpt lat="45.11578" lon="5.50536">
        <ele>1262</ele>
        <time>2017-06-11T09:30:43.000Z</time>
      </trkpt>
      <trkpt lat="45.11587" lon="5.50562">
        <ele>1265</ele>
        <time>2017-06-11T09:30:47.000Z</time>
      </trkpt>
      <trkpt lat="45.11599" lon="5.50586">
        <ele>1256</ele>
        <time>2017-06-11T09:30:51.000Z</time>
      </trkpt>
      <trkpt lat="45.11616" lon="5.5063">
        <ele>1254</ele>
        <time>2017-06-11T09:30:57.000Z</time>
      </trkpt>
      <trkpt lat="45.1162" lon="5.50637">
        <ele>1254</ele>
        <time>2017-06-11T09:30:58.000Z</time>
      </trkpt>
      <trkpt lat="45.11625" lon="5.50643">
        <ele>1254</ele>
        <time>2017-06-11T09:30:59.000Z</time>
      </trkpt>
      <trkpt lat="45.1163" lon="5.50648">
        <ele>1254</ele>
        <time>2017-06-11T09:31:00.000Z</time>
      </trkpt>
      <trkpt lat="45.11635" lon="5.50653">
        <ele>1254</ele>
        <time>2017-06-11T09:31:01.000Z</time>
      </trkpt>
      <trkpt lat="45.11639" lon="5.50656">
        <ele>1255</ele>
        <time>2017-06-11T09:31:02.000Z</time>
      </trkpt>
      <trkpt lat="45.11644" lon="5.50659">
        <ele>1255</ele>
        <time>2017-06-11T09:31:03.000Z</time>
      </trkpt>
      <trkpt lat="45.11711" lon="5.50691">
        <ele>1253</ele>
        <time>2017-06-11T09:31:17.000Z</time>
      </trkpt>
      <trkpt lat="45.11715" lon="5.50691">
        <ele>1254</ele>
        <time>2017-06-11T09:31:18.000Z</time>
      </trkpt>
      <trkpt lat="45.11761" lon="5.50695">
        <ele>1265</ele>
        <time>2017-06-11T09:31:30.000Z</time>
      </trkpt>
      <trkpt lat="45.11771" lon="5.50705">
        <ele>1264</ele>
        <time>2017-06-11T09:31:33.000Z</time>
      </trkpt>
      <trkpt lat="45.118" lon="5.50746">
        <ele>1262</ele>
        <time>2017-06-11T09:31:46.000Z</time>
      </trkpt>
      <trkpt lat="45.11808" lon="5.50754">
        <ele>1251</ele>
        <time>2017-06-11T09:31:59.000Z</time>
      </trkpt>
      <trkpt lat="45.11809" lon="5.50756">
        <ele>1251</ele>
        <time>2017-06-11T09:32:22.000Z</time>
      </trkpt>
      <trkpt lat="45.11814" lon="5.50756">
        <ele>1252</ele>
        <time>2017-06-11T09:32:45.000Z</time>
      </trkpt>
      <trkpt lat="45.11814" lon="5.50754">
        <ele>1252</ele>
        <time>2017-06-11T09:33:12.000Z</time>
      </trkpt>
      <trkpt lat="45.11822" lon="5.50758">
        <ele>1254</ele>
        <time>2017-06-11T09:33:37.000Z</time>
      </trkpt>
      <trkpt lat="45.11824" lon="5.50759">
        <ele>1255</ele>
        <time>2017-06-11T09:33:38.000Z</time>
      </trkpt>
      <trkpt lat="45.11852" lon="5.50769">
        <ele>1257</ele>
        <time>2017-06-11T09:33:52.000Z</time>
      </trkpt>
      <trkpt lat="45.1189" lon="5.50778">
        <ele>1257</ele>
        <time>2017-06-11T09:34:06.000Z</time>
      </trkpt>
      <trkpt lat="45.11917" lon="5.50782">
        <ele>1258</ele>
        <time>2017-06-11T09:34:16.000Z</time>
      </trkpt>
      <trkpt lat="45.11931" lon="5.50772">
        <ele>1260</ele>
        <time>2017-06-11T09:34:22.000Z</time>
      </trkpt>
      <trkpt lat="45.1195" lon="5.50732">
        <ele>1272</ele>
        <time>2017-06-11T09:34:35.000Z</time>
      </trkpt>
      <trkpt lat="45.11951" lon="5.50729">
        <ele>1273</ele>
        <time>2017-06-11T09:34:36.000Z</time>
      </trkpt>
      <trkpt lat="45.11953" lon="5.50726">
        <ele>1273</ele>
        <time>2017-06-11T09:34:37.000Z</time>
      </trkpt>
      <trkpt lat="45.11955" lon="5.50723">
        <ele>1273</ele>
        <time>2017-06-11T09:34:38.000Z</time>
      </trkpt>
      <trkpt lat="45.11958" lon="5.5072">
        <ele>1273</ele>
        <time>2017-06-11T09:34:39.000Z</time>
      </trkpt>
      <trkpt lat="45.1196" lon="5.50719">
        <ele>1273</ele>
        <time>2017-06-11T09:34:40.000Z</time>
      </trkpt>
      <trkpt lat="45.11963" lon="5.50718">
        <ele>1273</ele>
        <time>2017-06-11T09:34:41.000Z</time>
      </trkpt>
      <trkpt lat="45.11992" lon="5.50735">
        <ele>1270</ele>
        <time>2017-06-11T09:34:52.000Z</time>
      </trkpt>
      <trkpt lat="45.1202" lon="5.50762">
        <ele>1262</ele>
        <time>2017-06-11T09:35:04.000Z</time>
      </trkpt>
      <trkpt lat="45.12057" lon="5.5076">
        <ele>1263</ele>
        <time>2017-06-11T09:35:17.000Z</time>
      </trkpt>
      <trkpt lat="45.12087" lon="5.50763">
        <ele>1268</ele>
        <time>2017-06-11T09:35:27.000Z</time>
      </trkpt>
      <trkpt lat="45.12125" lon="5.50783">
        <ele>1265</ele>
        <time>2017-06-11T09:35:40.000Z</time>
      </trkpt>
      <trkpt lat="45.12151" lon="5.50777">
        <ele>1266</ele>
        <time>2017-06-11T09:35:51.000Z</time>
      </trkpt>
      <trkpt lat="45.12178" lon="5.50766">
        <ele>1266</ele>
        <time>2017-06-11T09:36:03.000Z</time>
      </trkpt>
      <trkpt lat="45.12189" lon="5.50763">
        <ele>1265</ele>
        <time>2017-06-11T09:36:18.000Z</time>
      </trkpt>
      <trkpt lat="45.12205" lon="5.50759">
        <ele>1263</ele>
        <time>2017-06-11T09:36:47.000Z</time>
      </trkpt>
      <trkpt lat="45.12211" lon="5.50754">
        <ele>1263</ele>
        <time>2017-06-11T09:37:17.000Z</time>
      </trkpt>
      <trkpt lat="45.12215" lon="5.50746">
        <ele>1272</ele>
        <time>2017-06-11T09:37:56.000Z</time>
      </trkpt>
      <trkpt lat="45.12212" lon="5.50749">
        <ele>1272</ele>
        <time>2017-06-11T09:38:03.000Z</time>
      </trkpt>
      <trkpt lat="45.12212" lon="5.50748">
        <ele>1272</ele>
        <time>2017-06-11T09:38:06.000Z</time>
      </trkpt>
      <trkpt lat="45.12222" lon="5.50726">
        <ele>1273</ele>
        <time>2017-06-11T09:38:20.000Z</time>
      </trkpt>
      <trkpt lat="45.12241" lon="5.50696">
        <ele>1275</ele>
        <time>2017-06-11T09:38:32.000Z</time>
      </trkpt>
      <trkpt lat="45.12263" lon="5.50669">
        <ele>1272</ele>
        <time>2017-06-11T09:38:44.000Z</time>
      </trkpt>
      <trkpt lat="45.12289" lon="5.50636">
        <ele>1278</ele>
        <time>2017-06-11T09:38:57.000Z</time>
      </trkpt>
      <trkpt lat="45.12305" lon="5.50591">
        <ele>1279</ele>
        <time>2017-06-11T09:39:10.000Z</time>
      </trkpt>
      <trkpt lat="45.12322" lon="5.50569">
        <ele>1286</ele>
        <time>2017-06-11T09:39:19.000Z</time>
      </trkpt>
      <trkpt lat="45.12353" lon="5.50581">
        <ele>1284</ele>
        <time>2017-06-11T09:39:32.000Z</time>
      </trkpt>
      <trkpt lat="45.12375" lon="5.50616">
        <ele>1274</ele>
        <time>2017-06-11T09:39:44.000Z</time>
      </trkpt>
      <trkpt lat="45.12394" lon="5.50623">
        <ele>1275</ele>
        <time>2017-06-11T09:39:54.000Z</time>
      </trkpt>
      <trkpt lat="45.12397" lon="5.50624">
        <ele>1275</ele>
        <time>2017-06-11T09:39:55.000Z</time>
      </trkpt>
      <trkpt lat="45.12401" lon="5.50625">
        <ele>1275</ele>
        <time>2017-06-11T09:39:56.000Z</time>
      </trkpt>
      <trkpt lat="45.1243" lon="5.50631">
        <ele>1273</ele>
        <time>2017-06-11T09:40:02.000Z</time>
      </trkpt>
      <trkpt lat="45.12435" lon="5.50629">
        <ele>1273</ele>
        <time>2017-06-11T09:40:03.000Z</time>
      </trkpt>
      <trkpt lat="45.1244" lon="5.50627">
        <ele>1273</ele>
        <time>2017-06-11T09:40:04.000Z</time>
      </trkpt>
      <trkpt lat="45.12445" lon="5.50623">
        <ele>1273</ele>
        <time>2017-06-11T09:40:05.000Z</time>
      </trkpt>
      <trkpt lat="45.1245" lon="5.50617">
        <ele>1274</ele>
        <time>2017-06-11T09:40:06.000Z</time>
      </trkpt>
      <trkpt lat="45.12455" lon="5.5061">
        <ele>1274</ele>
        <time>2017-06-11T09:40:07.000Z</time>
      </trkpt>
      <trkpt lat="45.12459" lon="5.506">
        <ele>1274</ele>
        <time>2017-06-11T09:40:08.000Z</time>
      </trkpt>
      <trkpt lat="45.12462" lon="5.5059">
        <ele>1275</ele>
        <time>2017-06-11T09:40:09.000Z</time>
      </trkpt>
      <trkpt lat="45.1247" lon="5.50572">
        <ele>1284</ele>
        <time>2017-06-11T09:40:11.000Z</time>
      </trkpt>
      <trkpt lat="45.12476" lon="5.50564">
        <ele>1284</ele>
        <time>2017-06-11T09:40:12.000Z</time>
      </trkpt>
      <trkpt lat="45.12482" lon="5.50561">
        <ele>1284</ele>
        <time>2017-06-11T09:40:13.000Z</time>
      </trkpt>
      <trkpt lat="45.12488" lon="5.50563">
        <ele>1283</ele>
        <time>2017-06-11T09:40:14.000Z</time>
      </trkpt>
      <trkpt lat="45.12495" lon="5.50569">
        <ele>1281</ele>
        <time>2017-06-11T09:40:15.000Z</time>
      </trkpt>
      <trkpt lat="45.12501" lon="5.50576">
        <ele>1279</ele>
        <time>2017-06-11T09:40:16.000Z</time>
      </trkpt>
      <trkpt lat="45.12507" lon="5.50584">
        <ele>1275</ele>
        <time>2017-06-11T09:40:17.000Z</time>
      </trkpt>
      <trkpt lat="45.12525" lon="5.50607">
        <ele>1274</ele>
        <time>2017-06-11T09:40:20.000Z</time>
      </trkpt>
      <trkpt lat="45.1253" lon="5.50616">
        <ele>1273</ele>
        <time>2017-06-11T09:40:21.000Z</time>
      </trkpt>
      <trkpt lat="45.12535" lon="5.50625">
        <ele>1272</ele>
        <time>2017-06-11T09:40:22.000Z</time>
      </trkpt>
      <trkpt lat="45.12539" lon="5.50636">
        <ele>1272</ele>
        <time>2017-06-11T09:40:23.000Z</time>
      </trkpt>
      <trkpt lat="45.12543" lon="5.50646">
        <ele>1271</ele>
        <time>2017-06-11T09:40:24.000Z</time>
      </trkpt>
      <trkpt lat="45.12551" lon="5.50667">
        <ele>1270</ele>
        <time>2017-06-11T09:40:26.000Z</time>
      </trkpt>
      <trkpt lat="45.12555" lon="5.50676">
        <ele>1261</ele>
        <time>2017-06-11T09:40:27.000Z</time>
      </trkpt>
      <trkpt lat="45.12561" lon="5.50684">
        <ele>1261</ele>
        <time>2017-06-11T09:40:28.000Z</time>
      </trkpt>
      <trkpt lat="45.12567" lon="5.50691">
        <ele>1261</ele>
        <time>2017-06-11T09:40:29.000Z</time>
      </trkpt>
      <trkpt lat="45.12575" lon="5.50696">
        <ele>1260</ele>
        <time>2017-06-11T09:40:30.000Z</time>
      </trkpt>
      <trkpt lat="45.12583" lon="5.50699">
        <ele>1260</ele>
        <time>2017-06-11T09:40:31.000Z</time>
      </trkpt>
      <trkpt lat="45.12591" lon="5.507">
        <ele>1265</ele>
        <time>2017-06-11T09:40:32.000Z</time>
      </trkpt>
      <trkpt lat="45.126" lon="5.50701">
        <ele>1265</ele>
        <time>2017-06-11T09:40:33.000Z</time>
      </trkpt>
      <trkpt lat="45.12608" lon="5.50702">
        <ele>1265</ele>
        <time>2017-06-11T09:40:34.000Z</time>
      </trkpt>
      <trkpt lat="45.12617" lon="5.50706">
        <ele>1265</ele>
        <time>2017-06-11T09:40:35.000Z</time>
      </trkpt>
      <trkpt lat="45.12623" lon="5.50713">
        <ele>1265</ele>
        <time>2017-06-11T09:40:36.000Z</time>
      </trkpt>
      <trkpt lat="45.12626" lon="5.50722">
        <ele>1264</ele>
        <time>2017-06-11T09:40:37.000Z</time>
      </trkpt>
      <trkpt lat="45.12628" lon="5.50731">
        <ele>1263</ele>
        <time>2017-06-11T09:40:38.000Z</time>
      </trkpt>
      <trkpt lat="45.1263" lon="5.50738">
        <ele>1263</ele>
        <time>2017-06-11T09:40:39.000Z</time>
      </trkpt>
      <trkpt lat="45.12634" lon="5.50745">
        <ele>1263</ele>
        <time>2017-06-11T09:40:40.000Z</time>
      </trkpt>
      <trkpt lat="45.12637" lon="5.50746">
        <ele>1263</ele>
        <time>2017-06-11T09:40:41.000Z</time>
      </trkpt>
      <trkpt lat="45.1264" lon="5.50747">
        <ele>1263</ele>
        <time>2017-06-11T09:40:42.000Z</time>
      </trkpt>
      <trkpt lat="45.12644" lon="5.50748">
        <ele>1263</ele>
        <time>2017-06-11T09:40:43.000Z</time>
      </trkpt>
      <trkpt lat="45.12658" lon="5.50759">
        <ele>1258</ele>
        <time>2017-06-11T09:40:54.000Z</time>
      </trkpt>
      <trkpt lat="45.12675" lon="5.5076">
        <ele>1258</ele>
        <time>2017-06-11T09:41:07.000Z</time>
      </trkpt>
      <trkpt lat="45.12689" lon="5.50752">
        <ele>1257</ele>
        <time>2017-06-11T09:41:20.000Z</time>
      </trkpt>
      <trkpt lat="45.12702" lon="5.50747">
        <ele>1267</ele>
        <time>2017-06-11T09:41:30.000Z</time>
      </trkpt>
      <trkpt lat="45.12703" lon="5.50746">
        <ele>1267</ele>
        <time>2017-06-11T09:41:31.000Z</time>
      </trkpt>
      <trkpt lat="45.12704" lon="5.50745">
        <ele>1267</ele>
        <time>2017-06-11T09:41:32.000Z</time>
      </trkpt>
      <trkpt lat="45.12706" lon="5.50744">
        <ele>1267</ele>
        <time>2017-06-11T09:41:33.000Z</time>
      </trkpt>
      <trkpt lat="45.12707" lon="5.50743">
        <ele>1267</ele>
        <time>2017-06-11T09:41:34.000Z</time>
      </trkpt>
      <trkpt lat="45.12708" lon="5.50743">
        <ele>1267</ele>
        <time>2017-06-11T09:41:35.000Z</time>
      </trkpt>
      <trkpt lat="45.1273" lon="5.5073">
        <ele>1267</ele>
        <time>2017-06-11T09:41:50.000Z</time>
      </trkpt>
      <trkpt lat="45.12743" lon="5.50725">
        <ele>1267</ele>
        <time>2017-06-11T09:41:59.000Z</time>
      </trkpt>
      <trkpt lat="45.12744" lon="5.50723">
        <ele>1267</ele>
        <time>2017-06-11T09:42:00.000Z</time>
      </trkpt>
      <trkpt lat="45.12745" lon="5.50722">
        <ele>1267</ele>
        <time>2017-06-11T09:42:01.000Z</time>
      </trkpt>
      <trkpt lat="45.12746" lon="5.50721">
        <ele>1268</ele>
        <time>2017-06-11T09:42:02.000Z</time>
      </trkpt>
      <trkpt lat="45.12747" lon="5.5072">
        <ele>1268</ele>
        <time>2017-06-11T09:42:03.000Z</time>
      </trkpt>
      <trkpt lat="45.12749" lon="5.50718">
        <ele>1268</ele>
        <time>2017-06-11T09:42:04.000Z</time>
      </trkpt>
      <trkpt lat="45.1275" lon="5.50717">
        <ele>1268</ele>
        <time>2017-06-11T09:42:05.000Z</time>
      </trkpt>
      <trkpt lat="45.12767" lon="5.50701">
        <ele>1267</ele>
        <time>2017-06-11T09:42:19.000Z</time>
      </trkpt>
      <trkpt lat="45.12784" lon="5.50683">
        <ele>1268</ele>
        <time>2017-06-11T09:42:33.000Z</time>
      </trkpt>
      <trkpt lat="45.12795" lon="5.50657">
        <ele>1276</ele>
        <time>2017-06-11T09:42:47.000Z</time>
      </trkpt>
      <trkpt lat="45.12808" lon="5.50625">
        <ele>1278</ele>
        <time>2017-06-11T09:43:03.000Z</time>
      </trkpt>
      <trkpt lat="45.12827" lon="5.50603">
        <ele>1281</ele>
        <time>2017-06-11T09:43:19.000Z</time>
      </trkpt>
      <trkpt lat="45.12849" lon="5.50616">
        <ele>1279</ele>
        <time>2017-06-11T09:43:30.000Z</time>
      </trkpt>
      <trkpt lat="45.12854" lon="5.50616">
        <ele>1279</ele>
        <time>2017-06-11T09:43:36.000Z</time>
      </trkpt>
      <trkpt lat="45.12855" lon="5.50617">
        <ele>1279</ele>
        <time>2017-06-11T09:43:37.000Z</time>
      </trkpt>
      <trkpt lat="45.12856" lon="5.50617">
        <ele>1279</ele>
        <time>2017-06-11T09:43:38.000Z</time>
      </trkpt>
      <trkpt lat="45.12858" lon="5.50617">
        <ele>1279</ele>
        <time>2017-06-11T09:43:39.000Z</time>
      </trkpt>
      <trkpt lat="45.12859" lon="5.50617">
        <ele>1279</ele>
        <time>2017-06-11T09:43:40.000Z</time>
      </trkpt>
      <trkpt lat="45.12882" lon="5.50618">
        <ele>1279</ele>
        <time>2017-06-11T09:43:53.000Z</time>
      </trkpt>
      <trkpt lat="45.12903" lon="5.50602">
        <ele>1283</ele>
        <time>2017-06-11T09:44:06.000Z</time>
      </trkpt>
      <trkpt lat="45.12912" lon="5.50576">
        <ele>1292</ele>
        <time>2017-06-11T09:44:16.000Z</time>
      </trkpt>
      <trkpt lat="45.12914" lon="5.50573">
        <ele>1292</ele>
        <time>2017-06-11T09:44:17.000Z</time>
      </trkpt>
      <trkpt lat="45.12915" lon="5.50571">
        <ele>1293</ele>
        <time>2017-06-11T09:44:18.000Z</time>
      </trkpt>
      <trkpt lat="45.12917" lon="5.50569">
        <ele>1294</ele>
        <time>2017-06-11T09:44:19.000Z</time>
      </trkpt>
      <trkpt lat="45.12919" lon="5.50567">
        <ele>1294</ele>
        <time>2017-06-11T09:44:20.000Z</time>
      </trkpt>
      <trkpt lat="45.12922" lon="5.50565">
        <ele>1294</ele>
        <time>2017-06-11T09:44:21.000Z</time>
      </trkpt>
      <trkpt lat="45.12924" lon="5.50564">
        <ele>1294</ele>
        <time>2017-06-11T09:44:22.000Z</time>
      </trkpt>
      <trkpt lat="45.12925" lon="5.50563">
        <ele>1294</ele>
        <time>2017-06-11T09:44:23.000Z</time>
      </trkpt>
      <trkpt lat="45.12927" lon="5.50562">
        <ele>1294</ele>
        <time>2017-06-11T09:44:24.000Z</time>
      </trkpt>
      <trkpt lat="45.12951" lon="5.50555">
        <ele>1295</ele>
        <time>2017-06-11T09:44:36.000Z</time>
      </trkpt>
      <trkpt lat="45.1297" lon="5.50536">
        <ele>1297</ele>
        <time>2017-06-11T09:44:45.000Z</time>
      </trkpt>
      <trkpt lat="45.12989" lon="5.50494">
        <ele>1306</ele>
        <time>2017-06-11T09:44:59.000Z</time>
      </trkpt>
      <trkpt lat="45.12992" lon="5.50486">
        <ele>1306</ele>
        <time>2017-06-11T09:45:02.000Z</time>
      </trkpt>
      <trkpt lat="45.12994" lon="5.50484">
        <ele>1307</ele>
        <time>2017-06-11T09:45:03.000Z</time>
      </trkpt>
      <trkpt lat="45.12995" lon="5.50482">
        <ele>1307</ele>
        <time>2017-06-11T09:45:04.000Z</time>
      </trkpt>
      <trkpt lat="45.12997" lon="5.5048">
        <ele>1307</ele>
        <time>2017-06-11T09:45:05.000Z</time>
      </trkpt>
      <trkpt lat="45.12998" lon="5.50477">
        <ele>1308</ele>
        <time>2017-06-11T09:45:06.000Z</time>
      </trkpt>
      <trkpt lat="45.12999" lon="5.50475">
        <ele>1308</ele>
        <time>2017-06-11T09:45:07.000Z</time>
      </trkpt>
      <trkpt lat="45.13" lon="5.50472">
        <ele>1308</ele>
        <time>2017-06-11T09:45:08.000Z</time>
      </trkpt>
      <trkpt lat="45.13002" lon="5.50469">
        <ele>1309</ele>
        <time>2017-06-11T09:45:09.000Z</time>
      </trkpt>
      <trkpt lat="45.13004" lon="5.50467">
        <ele>1309</ele>
        <time>2017-06-11T09:45:10.000Z</time>
      </trkpt>
      <trkpt lat="45.13022" lon="5.50447">
        <ele>1312</ele>
        <time>2017-06-11T09:45:21.000Z</time>
      </trkpt>
      <trkpt lat="45.13024" lon="5.50445">
        <ele>1312</ele>
        <time>2017-06-11T09:45:22.000Z</time>
      </trkpt>
      <trkpt lat="45.1303" lon="5.50443">
        <ele>1312</ele>
        <time>2017-06-11T09:45:25.000Z</time>
      </trkpt>
      <trkpt lat="45.13032" lon="5.50443">
        <ele>1312</ele>
        <time>2017-06-11T09:45:26.000Z</time>
      </trkpt>
      <trkpt lat="45.13034" lon="5.50442">
        <ele>1312</ele>
        <time>2017-06-11T09:45:27.000Z</time>
      </trkpt>
      <trkpt lat="45.13036" lon="5.50441">
        <ele>1312</ele>
        <time>2017-06-11T09:45:28.000Z</time>
      </trkpt>
      <trkpt lat="45.13038" lon="5.50441">
        <ele>1312</ele>
        <time>2017-06-11T09:45:29.000Z</time>
      </trkpt>
      <trkpt lat="45.1304" lon="5.50442">
        <ele>1312</ele>
        <time>2017-06-11T09:45:30.000Z</time>
      </trkpt>
      <trkpt lat="45.13042" lon="5.50442">
        <ele>1312</ele>
        <time>2017-06-11T09:45:31.000Z</time>
      </trkpt>
      <trkpt lat="45.1306" lon="5.50461">
        <ele>1311</ele>
        <time>2017-06-11T09:45:42.000Z</time>
      </trkpt>
      <trkpt lat="45.13076" lon="5.50485">
        <ele>1308</ele>
        <time>2017-06-11T09:45:54.000Z</time>
      </trkpt>
      <trkpt lat="45.13098" lon="5.50494">
        <ele>1310</ele>
        <time>2017-06-11T09:46:06.000Z</time>
      </trkpt>
      <trkpt lat="45.13112" lon="5.50491">
        <ele>1312</ele>
        <time>2017-06-11T09:46:12.000Z</time>
      </trkpt>
      <trkpt lat="45.13114" lon="5.50491">
        <ele>1312</ele>
        <time>2017-06-11T09:46:13.000Z</time>
      </trkpt>
      <trkpt lat="45.13117" lon="5.5049">
        <ele>1313</ele>
        <time>2017-06-11T09:46:14.000Z</time>
      </trkpt>
      <trkpt lat="45.13145" lon="5.50497">
        <ele>1314</ele>
        <time>2017-06-11T09:46:26.000Z</time>
      </trkpt>
      <trkpt lat="45.13175" lon="5.50494">
        <ele>1314</ele>
        <time>2017-06-11T09:46:37.000Z</time>
      </trkpt>
      <trkpt lat="45.13191" lon="5.5049">
        <ele>1316</ele>
        <time>2017-06-11T09:46:44.000Z</time>
      </trkpt>
      <trkpt lat="45.13193" lon="5.50489">
        <ele>1316</ele>
        <time>2017-06-11T09:46:45.000Z</time>
      </trkpt>
      <trkpt lat="45.13195" lon="5.50487">
        <ele>1316</ele>
        <time>2017-06-11T09:46:46.000Z</time>
      </trkpt>
      <trkpt lat="45.13196" lon="5.50486">
        <ele>1317</ele>
        <time>2017-06-11T09:46:47.000Z</time>
      </trkpt>
      <trkpt lat="45.13199" lon="5.50485">
        <ele>1317</ele>
        <time>2017-06-11T09:46:48.000Z</time>
      </trkpt>
      <trkpt lat="45.13201" lon="5.50484">
        <ele>1317</ele>
        <time>2017-06-11T09:46:49.000Z</time>
      </trkpt>
      <trkpt lat="45.13203" lon="5.50483">
        <ele>1317</ele>
        <time>2017-06-11T09:46:50.000Z</time>
      </trkpt>
      <trkpt lat="45.13205" lon="5.50482">
        <ele>1317</ele>
        <time>2017-06-11T09:46:51.000Z</time>
      </trkpt>
      <trkpt lat="45.13208" lon="5.50482">
        <ele>1317</ele>
        <time>2017-06-11T09:46:52.000Z</time>
      </trkpt>
      <trkpt lat="45.13238" lon="5.50464">
        <ele>1318</ele>
        <time>2017-06-11T09:47:05.000Z</time>
      </trkpt>
      <trkpt lat="45.13245" lon="5.5046">
        <ele>1318</ele>
        <time>2017-06-11T09:47:09.000Z</time>
      </trkpt>
      <trkpt lat="45.13247" lon="5.50459">
        <ele>1319</ele>
        <time>2017-06-11T09:47:10.000Z</time>
      </trkpt>
      <trkpt lat="45.13249" lon="5.50458">
        <ele>1319</ele>
        <time>2017-06-11T09:47:11.000Z</time>
      </trkpt>
      <trkpt lat="45.1325" lon="5.50457">
        <ele>1312</ele>
        <time>2017-06-11T09:47:12.000Z</time>
      </trkpt>
      <trkpt lat="45.13252" lon="5.50455">
        <ele>1312</ele>
        <time>2017-06-11T09:47:13.000Z</time>
      </trkpt>
      <trkpt lat="45.13272" lon="5.50431">
        <ele>1314</ele>
        <time>2017-06-11T09:47:24.000Z</time>
      </trkpt>
      <trkpt lat="45.13292" lon="5.50406">
        <ele>1324</ele>
        <time>2017-06-11T09:47:36.000Z</time>
      </trkpt>
      <trkpt lat="45.13306" lon="5.50392">
        <ele>1323</ele>
        <time>2017-06-11T09:47:43.000Z</time>
      </trkpt>
      <trkpt lat="45.13309" lon="5.50391">
        <ele>1323</ele>
        <time>2017-06-11T09:47:44.000Z</time>
      </trkpt>
      <trkpt lat="45.13336" lon="5.50374">
        <ele>1318</ele>
        <time>2017-06-11T09:47:55.000Z</time>
      </trkpt>
      <trkpt lat="45.13351" lon="5.50365">
        <ele>1319</ele>
        <time>2017-06-11T09:48:01.000Z</time>
      </trkpt>
      <trkpt lat="45.13354" lon="5.50365">
        <ele>1319</ele>
        <time>2017-06-11T09:48:02.000Z</time>
      </trkpt>
      <trkpt lat="45.13377" lon="5.50358">
        <ele>1319</ele>
        <time>2017-06-11T09:48:11.000Z</time>
      </trkpt>
      <trkpt lat="45.13406" lon="5.50343">
        <ele>1323</ele>
        <time>2017-06-11T09:48:23.000Z</time>
      </trkpt>
      <trkpt lat="45.13434" lon="5.50338">
        <ele>1322</ele>
        <time>2017-06-11T09:48:34.000Z</time>
      </trkpt>
      <trkpt lat="45.13457" lon="5.5034">
        <ele>1321</ele>
        <time>2017-06-11T09:48:45.000Z</time>
      </trkpt>
      <trkpt lat="45.13474" lon="5.50346">
        <ele>1321</ele>
        <time>2017-06-11T09:48:52.000Z</time>
      </trkpt>
      <trkpt lat="45.13476" lon="5.50346">
        <ele>1322</ele>
        <time>2017-06-11T09:48:53.000Z</time>
      </trkpt>
      <trkpt lat="45.13478" lon="5.50346">
        <ele>1322</ele>
        <time>2017-06-11T09:48:54.000Z</time>
      </trkpt>
      <trkpt lat="45.13481" lon="5.50346">
        <ele>1322</ele>
        <time>2017-06-11T09:48:55.000Z</time>
      </trkpt>
      <trkpt lat="45.13483" lon="5.50346">
        <ele>1323</ele>
        <time>2017-06-11T09:48:56.000Z</time>
      </trkpt>
      <trkpt lat="45.13485" lon="5.50346">
        <ele>1323</ele>
        <time>2017-06-11T09:48:57.000Z</time>
      </trkpt>
      <trkpt lat="45.13512" lon="5.50347">
        <ele>1323</ele>
        <time>2017-06-11T09:49:07.000Z</time>
      </trkpt>
      <trkpt lat="45.13539" lon="5.5034">
        <ele>1320</ele>
        <time>2017-06-11T09:49:19.000Z</time>
      </trkpt>
      <trkpt lat="45.13558" lon="5.50327">
        <ele>1335</ele>
        <time>2017-06-11T09:49:30.000Z</time>
      </trkpt>
      <trkpt lat="45.1357" lon="5.50319">
        <ele>1334</ele>
        <time>2017-06-11T09:49:36.000Z</time>
      </trkpt>
      <trkpt lat="45.13572" lon="5.50317">
        <ele>1334</ele>
        <time>2017-06-11T09:49:37.000Z</time>
      </trkpt>
      <trkpt lat="45.13598" lon="5.50304">
        <ele>1334</ele>
        <time>2017-06-11T09:49:51.000Z</time>
      </trkpt>
      <trkpt lat="45.13624" lon="5.50297">
        <ele>1335</ele>
        <time>2017-06-11T09:50:03.000Z</time>
      </trkpt>
      <trkpt lat="45.13651" lon="5.50287">
        <ele>1336</ele>
        <time>2017-06-11T09:50:15.000Z</time>
      </trkpt>
      <trkpt lat="45.13688" lon="5.50279">
        <ele>1337</ele>
        <time>2017-06-11T09:50:28.000Z</time>
      </trkpt>
      <trkpt lat="45.13721" lon="5.50276">
        <ele>1338</ele>
        <time>2017-06-11T09:50:41.000Z</time>
      </trkpt>
      <trkpt lat="45.13746" lon="5.50274">
        <ele>1340</ele>
        <time>2017-06-11T09:50:54.000Z</time>
      </trkpt>
      <trkpt lat="45.13757" lon="5.5027">
        <ele>1341</ele>
        <time>2017-06-11T09:51:00.000Z</time>
      </trkpt>
      <trkpt lat="45.13758" lon="5.5027">
        <ele>1341</ele>
        <time>2017-06-11T09:51:01.000Z</time>
      </trkpt>
      <trkpt lat="45.1376" lon="5.5027">
        <ele>1341</ele>
        <time>2017-06-11T09:51:02.000Z</time>
      </trkpt>
      <trkpt lat="45.13762" lon="5.50269">
        <ele>1341</ele>
        <time>2017-06-11T09:51:03.000Z</time>
      </trkpt>
      <trkpt lat="45.13763" lon="5.50269">
        <ele>1341</ele>
        <time>2017-06-11T09:51:04.000Z</time>
      </trkpt>
      <trkpt lat="45.13765" lon="5.50269">
        <ele>1340</ele>
        <time>2017-06-11T09:51:05.000Z</time>
      </trkpt>
      <trkpt lat="45.13767" lon="5.50268">
        <ele>1340</ele>
        <time>2017-06-11T09:51:06.000Z</time>
      </trkpt>
      <trkpt lat="45.13769" lon="5.50268">
        <ele>1340</ele>
        <time>2017-06-11T09:51:07.000Z</time>
      </trkpt>
      <trkpt lat="45.13791" lon="5.50263">
        <ele>1338</ele>
        <time>2017-06-11T09:51:17.000Z</time>
      </trkpt>
      <trkpt lat="45.13829" lon="5.5025">
        <ele>1349</ele>
        <time>2017-06-11T09:51:30.000Z</time>
      </trkpt>
      <trkpt lat="45.1386" lon="5.50237">
        <ele>1349</ele>
        <time>2017-06-11T09:51:42.000Z</time>
      </trkpt>
      <trkpt lat="45.13894" lon="5.50202">
        <ele>1352</ele>
        <time>2017-06-11T09:51:56.000Z</time>
      </trkpt>
      <trkpt lat="45.13923" lon="5.50185">
        <ele>1349</ele>
        <time>2017-06-11T09:52:09.000Z</time>
      </trkpt>
      <trkpt lat="45.13951" lon="5.50179">
        <ele>1345</ele>
        <time>2017-06-11T09:52:20.000Z</time>
      </trkpt>
      <trkpt lat="45.13983" lon="5.50152">
        <ele>1357</ele>
        <time>2017-06-11T09:52:34.000Z</time>
      </trkpt>
      <trkpt lat="45.14012" lon="5.50131">
        <ele>1353</ele>
        <time>2017-06-11T09:52:45.000Z</time>
      </trkpt>
      <trkpt lat="45.14027" lon="5.50115">
        <ele>1355</ele>
        <time>2017-06-11T09:52:52.000Z</time>
      </trkpt>
      <trkpt lat="45.14029" lon="5.50114">
        <ele>1355</ele>
        <time>2017-06-11T09:52:53.000Z</time>
      </trkpt>
      <trkpt lat="45.14032" lon="5.50112">
        <ele>1355</ele>
        <time>2017-06-11T09:52:55.000Z</time>
      </trkpt>
      <trkpt lat="45.14037" lon="5.50106">
        <ele>1355</ele>
        <time>2017-06-11T09:52:59.000Z</time>
      </trkpt>
      <trkpt lat="45.14039" lon="5.50104">
        <ele>1355</ele>
        <time>2017-06-11T09:53:00.000Z</time>
      </trkpt>
      <trkpt lat="45.14042" lon="5.50102">
        <ele>1355</ele>
        <time>2017-06-11T09:53:01.000Z</time>
      </trkpt>
      <trkpt lat="45.14069" lon="5.50086">
        <ele>1357</ele>
        <time>2017-06-11T09:53:13.000Z</time>
      </trkpt>
      <trkpt lat="45.141" lon="5.50074">
        <ele>1366</ele>
        <time>2017-06-11T09:53:26.000Z</time>
      </trkpt>
      <trkpt lat="45.14127" lon="5.50064">
        <ele>1368</ele>
        <time>2017-06-11T09:53:37.000Z</time>
      </trkpt>
      <trkpt lat="45.14152" lon="5.50056">
        <ele>1367</ele>
        <time>2017-06-11T09:53:49.000Z</time>
      </trkpt>
      <trkpt lat="45.14177" lon="5.50054">
        <ele>1367</ele>
        <time>2017-06-11T09:53:58.000Z</time>
      </trkpt>
      <trkpt lat="45.14188" lon="5.50051">
        <ele>1369</ele>
        <time>2017-06-11T09:54:03.000Z</time>
      </trkpt>
      <trkpt lat="45.14191" lon="5.5005">
        <ele>1369</ele>
        <time>2017-06-11T09:54:04.000Z</time>
      </trkpt>
      <trkpt lat="45.14193" lon="5.5005">
        <ele>1369</ele>
        <time>2017-06-11T09:54:05.000Z</time>
      </trkpt>
      <trkpt lat="45.14195" lon="5.50049">
        <ele>1369</ele>
        <time>2017-06-11T09:54:06.000Z</time>
      </trkpt>
      <trkpt lat="45.14196" lon="5.50049">
        <ele>1369</ele>
        <time>2017-06-11T09:54:07.000Z</time>
      </trkpt>
      <trkpt lat="45.14198" lon="5.50049">
        <ele>1369</ele>
        <time>2017-06-11T09:54:08.000Z</time>
      </trkpt>
      <trkpt lat="45.14234" lon="5.50051">
        <ele>1370</ele>
        <time>2017-06-11T09:54:22.000Z</time>
      </trkpt>
      <trkpt lat="45.14276" lon="5.5005">
        <ele>1374</ele>
        <time>2017-06-11T09:54:36.000Z</time>
      </trkpt>
      <trkpt lat="45.14311" lon="5.50051">
        <ele>1374</ele>
        <time>2017-06-11T09:54:49.000Z</time>
      </trkpt>
      <trkpt lat="45.14359" lon="5.50048">
        <ele>1379</ele>
        <time>2017-06-11T09:55:07.000Z</time>
      </trkpt>
      <trkpt lat="45.144" lon="5.50039">
        <ele>1383</ele>
        <time>2017-06-11T09:55:21.000Z</time>
      </trkpt>
      <trkpt lat="45.14428" lon="5.50049">
        <ele>1386</ele>
        <time>2017-06-11T09:55:33.000Z</time>
      </trkpt>
      <trkpt lat="45.14467" lon="5.50059">
        <ele>1387</ele>
        <time>2017-06-11T09:55:47.000Z</time>
      </trkpt>
      <trkpt lat="45.14506" lon="5.5007">
        <ele>1389</ele>
        <time>2017-06-11T09:56:01.000Z</time>
      </trkpt>
      <trkpt lat="45.14545" lon="5.50079">
        <ele>1395</ele>
        <time>2017-06-11T09:56:14.000Z</time>
      </trkpt>
      <trkpt lat="45.14576" lon="5.50088">
        <ele>1384</ele>
        <time>2017-06-11T09:56:28.000Z</time>
      </trkpt>
      <trkpt lat="45.14607" lon="5.50099">
        <ele>1384</ele>
        <time>2017-06-11T09:56:42.000Z</time>
      </trkpt>
      <trkpt lat="45.1464" lon="5.50104">
        <ele>1385</ele>
        <time>2017-06-11T09:56:56.000Z</time>
      </trkpt>
      <trkpt lat="45.14665" lon="5.50092">
        <ele>1393</ele>
        <time>2017-06-11T09:57:10.000Z</time>
      </trkpt>
      <trkpt lat="45.14673" lon="5.50087">
        <ele>1396</ele>
        <time>2017-06-11T09:57:15.000Z</time>
      </trkpt>
      <trkpt lat="45.14675" lon="5.50087">
        <ele>1396</ele>
        <time>2017-06-11T09:57:16.000Z</time>
      </trkpt>
      <trkpt lat="45.14677" lon="5.50087">
        <ele>1395</ele>
        <time>2017-06-11T09:57:17.000Z</time>
      </trkpt>
      <trkpt lat="45.14706" lon="5.50088">
        <ele>1394</ele>
        <time>2017-06-11T09:57:28.000Z</time>
      </trkpt>
      <trkpt lat="45.14726" lon="5.50092">
        <ele>1397</ele>
        <time>2017-06-11T09:57:37.000Z</time>
      </trkpt>
      <trkpt lat="45.14729" lon="5.50091">
        <ele>1398</ele>
        <time>2017-06-11T09:57:38.000Z</time>
      </trkpt>
      <trkpt lat="45.1473" lon="5.5009">
        <ele>1398</ele>
        <time>2017-06-11T09:57:39.000Z</time>
      </trkpt>
      <trkpt lat="45.14731" lon="5.50088">
        <ele>1399</ele>
        <time>2017-06-11T09:57:48.000Z</time>
      </trkpt>
      <trkpt lat="45.14734" lon="5.50085">
        <ele>1400</ele>
        <time>2017-06-11T09:58:28.000Z</time>
      </trkpt>
      <trkpt lat="45.14737" lon="5.50086">
        <ele>1401</ele>
        <time>2017-06-11T09:58:52.000Z</time>
      </trkpt>
      <trkpt lat="45.14738" lon="5.50088">
        <ele>1401</ele>
        <time>2017-06-11T09:59:02.000Z</time>
      </trkpt>
      <trkpt lat="45.14739" lon="5.50091">
        <ele>1401</ele>
        <time>2017-06-11T09:59:03.000Z</time>
      </trkpt>
      <trkpt lat="45.1474" lon="5.50094">
        <ele>1401</ele>
        <time>2017-06-11T09:59:04.000Z</time>
      </trkpt>
      <trkpt lat="45.14743" lon="5.50096">
        <ele>1400</ele>
        <time>2017-06-11T09:59:05.000Z</time>
      </trkpt>
      <trkpt lat="45.14746" lon="5.50099">
        <ele>1400</ele>
        <time>2017-06-11T09:59:06.000Z</time>
      </trkpt>
      <trkpt lat="45.14766" lon="5.50115">
        <ele>1403</ele>
        <time>2017-06-11T09:59:10.000Z</time>
      </trkpt>
      <trkpt lat="45.1478" lon="5.50123">
        <ele>1403</ele>
        <time>2017-06-11T09:59:12.000Z</time>
      </trkpt>
      <trkpt lat="45.14786" lon="5.50129">
        <ele>1402</ele>
        <time>2017-06-11T09:59:13.000Z</time>
      </trkpt>
      <trkpt lat="45.14793" lon="5.50137">
        <ele>1401</ele>
        <time>2017-06-11T09:59:14.000Z</time>
      </trkpt>
      <trkpt lat="45.14799" lon="5.50148">
        <ele>1400</ele>
        <time>2017-06-11T09:59:15.000Z</time>
      </trkpt>
      <trkpt lat="45.14804" lon="5.50159">
        <ele>1400</ele>
        <time>2017-06-11T09:59:16.000Z</time>
      </trkpt>
      <trkpt lat="45.14809" lon="5.5017">
        <ele>1384</ele>
        <time>2017-06-11T09:59:17.000Z</time>
      </trkpt>
      <trkpt lat="45.14814" lon="5.50181">
        <ele>1383</ele>
        <time>2017-06-11T09:59:18.000Z</time>
      </trkpt>
      <trkpt lat="45.1482" lon="5.50189">
        <ele>1382</ele>
        <time>2017-06-11T09:59:19.000Z</time>
      </trkpt>
      <trkpt lat="45.14826" lon="5.50195">
        <ele>1381</ele>
        <time>2017-06-11T09:59:20.000Z</time>
      </trkpt>
      <trkpt lat="45.14832" lon="5.50201">
        <ele>1380</ele>
        <time>2017-06-11T09:59:21.000Z</time>
      </trkpt>
      <trkpt lat="45.14839" lon="5.50205">
        <ele>1390</ele>
        <time>2017-06-11T09:59:22.000Z</time>
      </trkpt>
      <trkpt lat="45.14847" lon="5.50208">
        <ele>1389</ele>
        <time>2017-06-11T09:59:23.000Z</time>
      </trkpt>
      <trkpt lat="45.14855" lon="5.50209">
        <ele>1390</ele>
        <time>2017-06-11T09:59:24.000Z</time>
      </trkpt>
      <trkpt lat="45.14861" lon="5.5021">
        <ele>1390</ele>
        <time>2017-06-11T09:59:25.000Z</time>
      </trkpt>
      <trkpt lat="45.14867" lon="5.5021">
        <ele>1391</ele>
        <time>2017-06-11T09:59:26.000Z</time>
      </trkpt>
      <trkpt lat="45.14873" lon="5.50211">
        <ele>1391</ele>
        <time>2017-06-11T09:59:27.000Z</time>
      </trkpt>
      <trkpt lat="45.1488" lon="5.50211">
        <ele>1392</ele>
        <time>2017-06-11T09:59:28.000Z</time>
      </trkpt>
      <trkpt lat="45.14896" lon="5.50212">
        <ele>1393</ele>
        <time>2017-06-11T09:59:31.000Z</time>
      </trkpt>
      <trkpt lat="45.14931" lon="5.50224">
        <ele>1402</ele>
        <time>2017-06-11T09:59:42.000Z</time>
      </trkpt>
      <trkpt lat="45.14959" lon="5.50238">
        <ele>1404</ele>
        <time>2017-06-11T09:59:54.000Z</time>
      </trkpt>
      <trkpt lat="45.14993" lon="5.50263">
        <ele>1391</ele>
        <time>2017-06-11T10:00:05.000Z</time>
      </trkpt>
      <trkpt lat="45.15026" lon="5.50281">
        <ele>1394</ele>
        <time>2017-06-11T10:00:16.000Z</time>
      </trkpt>
      <trkpt lat="45.15063" lon="5.50297">
        <ele>1393</ele>
        <time>2017-06-11T10:00:26.000Z</time>
      </trkpt>
      <trkpt lat="45.15098" lon="5.50304">
        <ele>1399</ele>
        <time>2017-06-11T10:00:36.000Z</time>
      </trkpt>
      <trkpt lat="45.15101" lon="5.50305">
        <ele>1399</ele>
        <time>2017-06-11T10:00:37.000Z</time>
      </trkpt>
      <trkpt lat="45.15139" lon="5.50318">
        <ele>1398</ele>
        <time>2017-06-11T10:00:50.000Z</time>
      </trkpt>
      <trkpt lat="45.15177" lon="5.50327">
        <ele>1397</ele>
        <time>2017-06-11T10:01:02.000Z</time>
      </trkpt>
      <trkpt lat="45.15233" lon="5.50338">
        <ele>1385</ele>
        <time>2017-06-11T10:01:13.000Z</time>
      </trkpt>
      <trkpt lat="45.15263" lon="5.50345">
        <ele>1391</ele>
        <time>2017-06-11T10:01:22.000Z</time>
      </trkpt>
      <trkpt lat="45.1529" lon="5.50346">
        <ele>1391</ele>
        <time>2017-06-11T10:01:35.000Z</time>
      </trkpt>
      <trkpt lat="45.15309" lon="5.50345">
        <ele>1395</ele>
        <time>2017-06-11T10:01:50.000Z</time>
      </trkpt>
      <trkpt lat="45.15326" lon="5.5034">
        <ele>1402</ele>
        <time>2017-06-11T10:02:04.000Z</time>
      </trkpt>
      <trkpt lat="45.15327" lon="5.5034">
        <ele>1403</ele>
        <time>2017-06-11T10:02:05.000Z</time>
      </trkpt>
      <trkpt lat="45.15336" lon="5.50335">
        <ele>1408</ele>
        <time>2017-06-11T10:02:13.000Z</time>
      </trkpt>
      <trkpt lat="45.15359" lon="5.50335">
        <ele>1404</ele>
        <time>2017-06-11T10:02:30.000Z</time>
      </trkpt>
      <trkpt lat="45.1538" lon="5.5034">
        <ele>1404</ele>
        <time>2017-06-11T10:02:44.000Z</time>
      </trkpt>
      <trkpt lat="45.15391" lon="5.50344">
        <ele>1405</ele>
        <time>2017-06-11T10:02:51.000Z</time>
      </trkpt>
      <trkpt lat="45.15392" lon="5.50345">
        <ele>1405</ele>
        <time>2017-06-11T10:02:52.000Z</time>
      </trkpt>
      <trkpt lat="45.15394" lon="5.50346">
        <ele>1405</ele>
        <time>2017-06-11T10:02:53.000Z</time>
      </trkpt>
      <trkpt lat="45.154" lon="5.50346">
        <ele>1406</ele>
        <time>2017-06-11T10:02:59.000Z</time>
      </trkpt>
      <trkpt lat="45.15414" lon="5.50347">
        <ele>1408</ele>
        <time>2017-06-11T10:03:09.000Z</time>
      </trkpt>
      <trkpt lat="45.15415" lon="5.50346">
        <ele>1409</ele>
        <time>2017-06-11T10:03:10.000Z</time>
      </trkpt>
      <trkpt lat="45.15415" lon="5.50344">
        <ele>1409</ele>
        <time>2017-06-11T10:03:11.000Z</time>
      </trkpt>
      <trkpt lat="45.15415" lon="5.50342">
        <ele>1410</ele>
        <time>2017-06-11T10:03:13.000Z</time>
      </trkpt>
      <trkpt lat="45.15414" lon="5.50341">
        <ele>1411</ele>
        <time>2017-06-11T10:03:14.000Z</time>
      </trkpt>
      <trkpt lat="45.15408" lon="5.50328">
        <ele>1415</ele>
        <time>2017-06-11T10:03:27.000Z</time>
      </trkpt>
      <trkpt lat="45.154" lon="5.50309">
        <ele>1415</ele>
        <time>2017-06-11T10:03:41.000Z</time>
      </trkpt>
      <trkpt lat="45.15391" lon="5.50294">
        <ele>1415</ele>
        <time>2017-06-11T10:03:56.000Z</time>
      </trkpt>
      <trkpt lat="45.15386" lon="5.50283">
        <ele>1416</ele>
        <time>2017-06-11T10:04:09.000Z</time>
      </trkpt>
      <trkpt lat="45.15382" lon="5.50272">
        <ele>1416</ele>
        <time>2017-06-11T10:04:21.000Z</time>
      </trkpt>
      <trkpt lat="45.15382" lon="5.50258">
        <ele>1416</ele>
        <time>2017-06-11T10:04:35.000Z</time>
      </trkpt>
      <trkpt lat="45.15382" lon="5.5025">
        <ele>1410</ele>
        <time>2017-06-11T10:04:47.000Z</time>
      </trkpt>
      <trkpt lat="45.15381" lon="5.50248">
        <ele>1410</ele>
        <time>2017-06-11T10:05:25.000Z</time>
      </trkpt>
      <trkpt lat="45.15377" lon="5.50247">
        <ele>1411</ele>
        <time>2017-06-11T10:06:02.000Z</time>
      </trkpt>
      <trkpt lat="45.15382" lon="5.5025">
        <ele>1410</ele>
        <time>2017-06-11T10:06:45.000Z</time>
      </trkpt>
      <trkpt lat="45.15379" lon="5.50249">
        <ele>1411</ele>
        <time>2017-06-11T10:07:25.000Z</time>
      </trkpt>
      <trkpt lat="45.15378" lon="5.50248">
        <ele>1411</ele>
        <time>2017-06-11T10:08:23.000Z</time>
      </trkpt>
      <trkpt lat="45.1538" lon="5.50247">
        <ele>1411</ele>
        <time>2017-06-11T10:09:05.000Z</time>
      </trkpt>
      <trkpt lat="45.15381" lon="5.50248">
        <ele>1410</ele>
        <time>2017-06-11T10:09:45.000Z</time>
      </trkpt>
      <trkpt lat="45.15381" lon="5.50245">
        <ele>1410</ele>
        <time>2017-06-11T10:10:37.000Z</time>
      </trkpt>
      <trkpt lat="45.15378" lon="5.50242">
        <ele>1410</ele>
        <time>2017-06-11T10:11:29.000Z</time>
      </trkpt>
      <trkpt lat="45.15376" lon="5.50245">
        <ele>1411</ele>
        <time>2017-06-11T10:12:18.000Z</time>
      </trkpt>
      <trkpt lat="45.15376" lon="5.5024">
        <ele>1411</ele>
        <time>2017-06-11T10:13:04.000Z</time>
      </trkpt>
      <trkpt lat="45.15372" lon="5.50247">
        <ele>1412</ele>
        <time>2017-06-11T10:13:43.000Z</time>
      </trkpt>
      <trkpt lat="45.15373" lon="5.50248">
        <ele>1412</ele>
        <time>2017-06-11T10:14:29.000Z</time>
      </trkpt>
      <trkpt lat="45.15379" lon="5.50247">
        <ele>1411</ele>
        <time>2017-06-11T10:15:09.000Z</time>
      </trkpt>
      <trkpt lat="45.15378" lon="5.50243">
        <ele>1411</ele>
        <time>2017-06-11T10:15:49.000Z</time>
      </trkpt>
      <trkpt lat="45.15381" lon="5.50247">
        <ele>1410</ele>
        <time>2017-06-11T10:16:28.000Z</time>
      </trkpt>
      <trkpt lat="45.15378" lon="5.50242">
        <ele>1411</ele>
        <time>2017-06-11T10:17:16.000Z</time>
      </trkpt>
      <trkpt lat="45.15381" lon="5.50243">
        <ele>1410</ele>
        <time>2017-06-11T10:17:51.000Z</time>
      </trkpt>
      <trkpt lat="45.15383" lon="5.50246">
        <ele>1410</ele>
        <time>2017-06-11T10:18:24.000Z</time>
      </trkpt>
      <trkpt lat="45.15382" lon="5.5025">
        <ele>1410</ele>
        <time>2017-06-11T10:19:12.000Z</time>
      </trkpt>
      <trkpt lat="45.15384" lon="5.5025">
        <ele>1416</ele>
        <time>2017-06-11T10:19:48.000Z</time>
      </trkpt>
      <trkpt lat="45.15387" lon="5.50252">
        <ele>1415</ele>
        <time>2017-06-11T10:20:11.000Z</time>
      </trkpt>
      <trkpt lat="45.15385" lon="5.50249">
        <ele>1410</ele>
        <time>2017-06-11T10:20:47.000Z</time>
      </trkpt>
      <trkpt lat="45.15378" lon="5.50249">
        <ele>1411</ele>
        <time>2017-06-11T10:21:26.000Z</time>
      </trkpt>
      <trkpt lat="45.15378" lon="5.50247">
        <ele>1411</ele>
        <time>2017-06-11T10:22:04.000Z</time>
      </trkpt>
      <trkpt lat="45.1538" lon="5.50248">
        <ele>1411</ele>
        <time>2017-06-11T10:22:59.000Z</time>
      </trkpt>
      <trkpt lat="45.15382" lon="5.50245">
        <ele>1410</ele>
        <time>2017-06-11T10:23:40.000Z</time>
      </trkpt>
      <trkpt lat="45.15383" lon="5.50247">
        <ele>1410</ele>
        <time>2017-06-11T10:24:19.000Z</time>
      </trkpt>
      <trkpt lat="45.1538" lon="5.50246">
        <ele>1410</ele>
        <time>2017-06-11T10:24:51.000Z</time>
      </trkpt>
      <trkpt lat="45.15382" lon="5.50249">
        <ele>1410</ele>
        <time>2017-06-11T10:25:22.000Z</time>
      </trkpt>
      <trkpt lat="45.15382" lon="5.50248">
        <ele>1410</ele>
        <time>2017-06-11T10:25:50.000Z</time>
      </trkpt>
      <trkpt lat="45.15382" lon="5.50248">
        <ele>1410</ele>
        <time>2017-06-11T10:26:12.000Z</time>
      </trkpt>
      <trkpt lat="45.15382" lon="5.50248">
        <ele>1410</ele>
        <time>2017-06-11T10:26:41.000Z</time>
      </trkpt>
      <trkpt lat="45.1538" lon="5.50246">
        <ele>1410</ele>
        <time>2017-06-11T10:27:14.000Z</time>
      </trkpt>
      <trkpt lat="45.15379" lon="5.50251">
        <ele>1417</ele>
        <time>2017-06-11T10:27:29.000Z</time>
      </trkpt>
      <trkpt lat="45.15379" lon="5.50254">
        <ele>1417</ele>
        <time>2017-06-11T10:27:30.000Z</time>
      </trkpt>
      <trkpt lat="45.1538" lon="5.50256">
        <ele>1416</ele>
        <time>2017-06-11T10:27:31.000Z</time>
      </trkpt>
      <trkpt lat="45.15399" lon="5.50272">
        <ele>1414</ele>
        <time>2017-06-11T10:27:39.000Z</time>
      </trkpt>
      <trkpt lat="45.15423" lon="5.50296">
        <ele>1407</ele>
        <time>2017-06-11T10:27:49.000Z</time>
      </trkpt>
      <trkpt lat="45.15425" lon="5.50298">
        <ele>1407</ele>
        <time>2017-06-11T10:27:50.000Z</time>
      </trkpt>
      <trkpt lat="45.15439" lon="5.50316">
        <ele>1408</ele>
        <time>2017-06-11T10:27:58.000Z</time>
      </trkpt>
      <trkpt lat="45.15441" lon="5.50316">
        <ele>1408</ele>
        <time>2017-06-11T10:27:59.000Z</time>
      </trkpt>
      <trkpt lat="45.15443" lon="5.50317">
        <ele>1408</ele>
        <time>2017-06-11T10:28:00.000Z</time>
      </trkpt>
      <trkpt lat="45.15446" lon="5.50318">
        <ele>1408</ele>
        <time>2017-06-11T10:28:01.000Z</time>
      </trkpt>
      <trkpt lat="45.15448" lon="5.5032">
        <ele>1408</ele>
        <time>2017-06-11T10:28:02.000Z</time>
      </trkpt>
      <trkpt lat="45.1545" lon="5.50323">
        <ele>1408</ele>
        <time>2017-06-11T10:28:03.000Z</time>
      </trkpt>
      <trkpt lat="45.15453" lon="5.50324">
        <ele>1408</ele>
        <time>2017-06-11T10:28:04.000Z</time>
      </trkpt>
      <trkpt lat="45.15455" lon="5.50325">
        <ele>1408</ele>
        <time>2017-06-11T10:28:05.000Z</time>
      </trkpt>
      <trkpt lat="45.15457" lon="5.50325">
        <ele>1408</ele>
        <time>2017-06-11T10:28:06.000Z</time>
      </trkpt>
      <trkpt lat="45.15459" lon="5.50326">
        <ele>1408</ele>
        <time>2017-06-11T10:28:07.000Z</time>
      </trkpt>
      <trkpt lat="45.15461" lon="5.50326">
        <ele>1408</ele>
        <time>2017-06-11T10:28:08.000Z</time>
      </trkpt>
      <trkpt lat="45.15463" lon="5.50327">
        <ele>1408</ele>
        <time>2017-06-11T10:28:09.000Z</time>
      </trkpt>
      <trkpt lat="45.15465" lon="5.50328">
        <ele>1408</ele>
        <time>2017-06-11T10:28:10.000Z</time>
      </trkpt>
      <trkpt lat="45.15466" lon="5.5033">
        <ele>1408</ele>
        <time>2017-06-11T10:28:11.000Z</time>
      </trkpt>
      <trkpt lat="45.15468" lon="5.5033">
        <ele>1408</ele>
        <time>2017-06-11T10:28:25.000Z</time>
      </trkpt>
      <trkpt lat="45.15471" lon="5.5033">
        <ele>1408</ele>
        <time>2017-06-11T10:28:38.000Z</time>
      </trkpt>
      <trkpt lat="45.15472" lon="5.50331">
        <ele>1408</ele>
        <time>2017-06-11T10:28:39.000Z</time>
      </trkpt>
      <trkpt lat="45.15474" lon="5.50332">
        <ele>1408</ele>
        <time>2017-06-11T10:28:40.000Z</time>
      </trkpt>
      <trkpt lat="45.15475" lon="5.50333">
        <ele>1408</ele>
        <time>2017-06-11T10:28:41.000Z</time>
      </trkpt>
      <trkpt lat="45.15477" lon="5.50335">
        <ele>1411</ele>
        <time>2017-06-11T10:28:42.000Z</time>
      </trkpt>
      <trkpt lat="45.15484" lon="5.50345">
        <ele>1412</ele>
        <time>2017-06-11T10:28:47.000Z</time>
      </trkpt>
      <trkpt lat="45.15484" lon="5.50349">
        <ele>1411</ele>
        <time>2017-06-11T10:28:59.000Z</time>
      </trkpt>
      <trkpt lat="45.15494" lon="5.50362">
        <ele>1411</ele>
        <time>2017-06-11T10:29:03.000Z</time>
      </trkpt>
      <trkpt lat="45.15497" lon="5.50366">
        <ele>1411</ele>
        <time>2017-06-11T10:29:04.000Z</time>
      </trkpt>
      <trkpt lat="45.155" lon="5.5037">
        <ele>1411</ele>
        <time>2017-06-11T10:29:05.000Z</time>
      </trkpt>
      <trkpt lat="45.15503" lon="5.50378">
        <ele>1414</ele>
        <time>2017-06-11T10:29:07.000Z</time>
      </trkpt>
      <trkpt lat="45.15504" lon="5.50382">
        <ele>1414</ele>
        <time>2017-06-11T10:29:08.000Z</time>
      </trkpt>
      <trkpt lat="45.15504" lon="5.50385">
        <ele>1414</ele>
        <time>2017-06-11T10:29:09.000Z</time>
      </trkpt>
      <trkpt lat="45.1551" lon="5.50409">
        <ele>1414</ele>
        <time>2017-06-11T10:29:15.000Z</time>
      </trkpt>
      <trkpt lat="45.1551" lon="5.50414">
        <ele>1414</ele>
        <time>2017-06-11T10:29:16.000Z</time>
      </trkpt>
      <trkpt lat="45.1551" lon="5.50419">
        <ele>1415</ele>
        <time>2017-06-11T10:29:17.000Z</time>
      </trkpt>
      <trkpt lat="45.1551" lon="5.50469">
        <ele>1414</ele>
        <time>2017-06-11T10:29:27.000Z</time>
      </trkpt>
      <trkpt lat="45.15513" lon="5.50477">
        <ele>1413</ele>
        <time>2017-06-11T10:29:39.000Z</time>
      </trkpt>
      <trkpt lat="45.15513" lon="5.50479">
        <ele>1412</ele>
        <time>2017-06-11T10:29:42.000Z</time>
      </trkpt>
      <trkpt lat="45.15513" lon="5.50482">
        <ele>1411</ele>
        <time>2017-06-11T10:29:43.000Z</time>
      </trkpt>
      <trkpt lat="45.15512" lon="5.50485">
        <ele>1410</ele>
        <time>2017-06-11T10:29:44.000Z</time>
      </trkpt>
      <trkpt lat="45.15511" lon="5.50489">
        <ele>1409</ele>
        <time>2017-06-11T10:29:45.000Z</time>
      </trkpt>
      <trkpt lat="45.15511" lon="5.50492">
        <ele>1408</ele>
        <time>2017-06-11T10:29:46.000Z</time>
      </trkpt>
      <trkpt lat="45.15511" lon="5.50499">
        <ele>1408</ele>
        <time>2017-06-11T10:29:48.000Z</time>
      </trkpt>
      <trkpt lat="45.15512" lon="5.50501">
        <ele>1402</ele>
        <time>2017-06-11T10:29:49.000Z</time>
      </trkpt>
      <trkpt lat="45.15513" lon="5.50503">
        <ele>1402</ele>
        <time>2017-06-11T10:29:50.000Z</time>
      </trkpt>
      <trkpt lat="45.15515" lon="5.50504">
        <ele>1402</ele>
        <time>2017-06-11T10:29:51.000Z</time>
      </trkpt>
      <trkpt lat="45.15516" lon="5.50506">
        <ele>1402</ele>
        <time>2017-06-11T10:29:52.000Z</time>
      </trkpt>
      <trkpt lat="45.15517" lon="5.50509">
        <ele>1402</ele>
        <time>2017-06-11T10:29:53.000Z</time>
      </trkpt>
      <trkpt lat="45.15523" lon="5.50519">
        <ele>1402</ele>
        <time>2017-06-11T10:29:59.000Z</time>
      </trkpt>
      <trkpt lat="45.15524" lon="5.50521">
        <ele>1402</ele>
        <time>2017-06-11T10:30:00.000Z</time>
      </trkpt>
      <trkpt lat="45.15525" lon="5.50523">
        <ele>1402</ele>
        <time>2017-06-11T10:30:01.000Z</time>
      </trkpt>
      <trkpt lat="45.15527" lon="5.50526">
        <ele>1402</ele>
        <time>2017-06-11T10:30:02.000Z</time>
      </trkpt>
      <trkpt lat="45.15529" lon="5.50529">
        <ele>1402</ele>
        <time>2017-06-11T10:30:03.000Z</time>
      </trkpt>
      <trkpt lat="45.15531" lon="5.50531">
        <ele>1402</ele>
        <time>2017-06-11T10:30:04.000Z</time>
      </trkpt>
      <trkpt lat="45.15533" lon="5.50533">
        <ele>1402</ele>
        <time>2017-06-11T10:30:05.000Z</time>
      </trkpt>
      <trkpt lat="45.15534" lon="5.50535">
        <ele>1402</ele>
        <time>2017-06-11T10:30:06.000Z</time>
      </trkpt>
      <trkpt lat="45.15535" lon="5.50537">
        <ele>1402</ele>
        <time>2017-06-11T10:30:07.000Z</time>
      </trkpt>
      <trkpt lat="45.15536" lon="5.50539">
        <ele>1402</ele>
        <time>2017-06-11T10:30:08.000Z</time>
      </trkpt>
      <trkpt lat="45.15538" lon="5.5054">
        <ele>1402</ele>
        <time>2017-06-11T10:30:09.000Z</time>
      </trkpt>
      <trkpt lat="45.15539" lon="5.50542">
        <ele>1402</ele>
        <time>2017-06-11T10:30:10.000Z</time>
      </trkpt>
      <trkpt lat="45.15541" lon="5.50545">
        <ele>1401</ele>
        <time>2017-06-11T10:30:11.000Z</time>
      </trkpt>
      <trkpt lat="45.15542" lon="5.50548">
        <ele>1401</ele>
        <time>2017-06-11T10:30:12.000Z</time>
      </trkpt>
      <trkpt lat="45.15544" lon="5.5055">
        <ele>1401</ele>
        <time>2017-06-11T10:30:13.000Z</time>
      </trkpt>
      <trkpt lat="45.15546" lon="5.50553">
        <ele>1401</ele>
        <time>2017-06-11T10:30:14.000Z</time>
      </trkpt>
      <trkpt lat="45.15548" lon="5.50555">
        <ele>1401</ele>
        <time>2017-06-11T10:30:15.000Z</time>
      </trkpt>
      <trkpt lat="45.1555" lon="5.50557">
        <ele>1401</ele>
        <time>2017-06-11T10:30:16.000Z</time>
      </trkpt>
      <trkpt lat="45.15552" lon="5.50559">
        <ele>1401</ele>
        <time>2017-06-11T10:30:17.000Z</time>
      </trkpt>
      <trkpt lat="45.15553" lon="5.50561">
        <ele>1401</ele>
        <time>2017-06-11T10:30:18.000Z</time>
      </trkpt>
      <trkpt lat="45.15555" lon="5.50565">
        <ele>1401</ele>
        <time>2017-06-11T10:30:22.000Z</time>
      </trkpt>
      <trkpt lat="45.15556" lon="5.50567">
        <ele>1401</ele>
        <time>2017-06-11T10:30:23.000Z</time>
      </trkpt>
      <trkpt lat="45.15557" lon="5.50569">
        <ele>1401</ele>
        <time>2017-06-11T10:30:24.000Z</time>
      </trkpt>
      <trkpt lat="45.15558" lon="5.50571">
        <ele>1401</ele>
        <time>2017-06-11T10:30:25.000Z</time>
      </trkpt>
      <trkpt lat="45.15559" lon="5.50573">
        <ele>1401</ele>
        <time>2017-06-11T10:30:26.000Z</time>
      </trkpt>
      <trkpt lat="45.15561" lon="5.50575">
        <ele>1401</ele>
        <time>2017-06-11T10:30:27.000Z</time>
      </trkpt>
      <trkpt lat="45.15562" lon="5.50578">
        <ele>1401</ele>
        <time>2017-06-11T10:30:28.000Z</time>
      </trkpt>
      <trkpt lat="45.15564" lon="5.50579">
        <ele>1401</ele>
        <time>2017-06-11T10:30:29.000Z</time>
      </trkpt>
      <trkpt lat="45.15566" lon="5.5058">
        <ele>1401</ele>
        <time>2017-06-11T10:30:30.000Z</time>
      </trkpt>
      <trkpt lat="45.15567" lon="5.50581">
        <ele>1401</ele>
        <time>2017-06-11T10:30:31.000Z</time>
      </trkpt>
      <trkpt lat="45.15581" lon="5.50596">
        <ele>1391</ele>
        <time>2017-06-11T10:30:41.000Z</time>
      </trkpt>
      <trkpt lat="45.15582" lon="5.50597">
        <ele>1390</ele>
        <time>2017-06-11T10:30:42.000Z</time>
      </trkpt>
      <trkpt lat="45.15584" lon="5.50598">
        <ele>1401</ele>
        <time>2017-06-11T10:30:43.000Z</time>
      </trkpt>
      <trkpt lat="45.15585" lon="5.50599">
        <ele>1400</ele>
        <time>2017-06-11T10:30:44.000Z</time>
      </trkpt>
      <trkpt lat="45.15586" lon="5.50601">
        <ele>1400</ele>
        <time>2017-06-11T10:30:45.000Z</time>
      </trkpt>
      <trkpt lat="45.15588" lon="5.50603">
        <ele>1400</ele>
        <time>2017-06-11T10:30:46.000Z</time>
      </trkpt>
      <trkpt lat="45.15589" lon="5.50605">
        <ele>1400</ele>
        <time>2017-06-11T10:30:47.000Z</time>
      </trkpt>
      <trkpt lat="45.15591" lon="5.50607">
        <ele>1400</ele>
        <time>2017-06-11T10:30:48.000Z</time>
      </trkpt>
      <trkpt lat="45.15593" lon="5.50609">
        <ele>1399</ele>
        <time>2017-06-11T10:30:49.000Z</time>
      </trkpt>
      <trkpt lat="45.15594" lon="5.50611">
        <ele>1399</ele>
        <time>2017-06-11T10:30:50.000Z</time>
      </trkpt>
      <trkpt lat="45.15595" lon="5.50613">
        <ele>1399</ele>
        <time>2017-06-11T10:30:51.000Z</time>
      </trkpt>
      <trkpt lat="45.15596" lon="5.50615">
        <ele>1398</ele>
        <time>2017-06-11T10:30:52.000Z</time>
      </trkpt>
      <trkpt lat="45.156" lon="5.50619">
        <ele>1398</ele>
        <time>2017-06-11T10:30:54.000Z</time>
      </trkpt>
      <trkpt lat="45.15602" lon="5.50619">
        <ele>1398</ele>
        <time>2017-06-11T10:30:55.000Z</time>
      </trkpt>
      <trkpt lat="45.15604" lon="5.50624">
        <ele>1397</ele>
        <time>2017-06-11T10:31:05.000Z</time>
      </trkpt>
      <trkpt lat="45.15608" lon="5.5063">
        <ele>1397</ele>
        <time>2017-06-11T10:31:17.000Z</time>
      </trkpt>
      <trkpt lat="45.1561" lon="5.50632">
        <ele>1396</ele>
        <time>2017-06-11T10:31:20.000Z</time>
      </trkpt>
      <trkpt lat="45.1561" lon="5.50634">
        <ele>1396</ele>
        <time>2017-06-11T10:31:21.000Z</time>
      </trkpt>
      <trkpt lat="45.15611" lon="5.50638">
        <ele>1395</ele>
        <time>2017-06-11T10:31:22.000Z</time>
      </trkpt>
      <trkpt lat="45.15612" lon="5.50641">
        <ele>1395</ele>
        <time>2017-06-11T10:31:23.000Z</time>
      </trkpt>
      <trkpt lat="45.15614" lon="5.50643">
        <ele>1395</ele>
        <time>2017-06-11T10:31:24.000Z</time>
      </trkpt>
      <trkpt lat="45.15615" lon="5.50645">
        <ele>1395</ele>
        <time>2017-06-11T10:31:25.000Z</time>
      </trkpt>
      <trkpt lat="45.15617" lon="5.50647">
        <ele>1395</ele>
        <time>2017-06-11T10:31:26.000Z</time>
      </trkpt>
      <trkpt lat="45.15619" lon="5.50649">
        <ele>1395</ele>
        <time>2017-06-11T10:31:27.000Z</time>
      </trkpt>
      <trkpt lat="45.15622" lon="5.50652">
        <ele>1395</ele>
        <time>2017-06-11T10:31:28.000Z</time>
      </trkpt>
      <trkpt lat="45.15624" lon="5.50655">
        <ele>1395</ele>
        <time>2017-06-11T10:31:29.000Z</time>
      </trkpt>
      <trkpt lat="45.15627" lon="5.50657">
        <ele>1396</ele>
        <time>2017-06-11T10:31:30.000Z</time>
      </trkpt>
      <trkpt lat="45.15629" lon="5.5066">
        <ele>1396</ele>
        <time>2017-06-11T10:31:31.000Z</time>
      </trkpt>
      <trkpt lat="45.15631" lon="5.50661">
        <ele>1396</ele>
        <time>2017-06-11T10:31:32.000Z</time>
      </trkpt>
      <trkpt lat="45.15632" lon="5.50662">
        <ele>1397</ele>
        <time>2017-06-11T10:31:33.000Z</time>
      </trkpt>
      <trkpt lat="45.15634" lon="5.50663">
        <ele>1397</ele>
        <time>2017-06-11T10:31:34.000Z</time>
      </trkpt>
      <trkpt lat="45.15635" lon="5.50664">
        <ele>1397</ele>
        <time>2017-06-11T10:31:35.000Z</time>
      </trkpt>
      <trkpt lat="45.15637" lon="5.50666">
        <ele>1397</ele>
        <time>2017-06-11T10:31:36.000Z</time>
      </trkpt>
      <trkpt lat="45.15638" lon="5.50667">
        <ele>1398</ele>
        <time>2017-06-11T10:31:37.000Z</time>
      </trkpt>
      <trkpt lat="45.1564" lon="5.50668">
        <ele>1381</ele>
        <time>2017-06-11T10:31:38.000Z</time>
      </trkpt>
      <trkpt lat="45.15641" lon="5.5067">
        <ele>1381</ele>
        <time>2017-06-11T10:31:39.000Z</time>
      </trkpt>
      <trkpt lat="45.15643" lon="5.50672">
        <ele>1382</ele>
        <time>2017-06-11T10:31:40.000Z</time>
      </trkpt>
      <trkpt lat="45.15653" lon="5.50686">
        <ele>1382</ele>
        <time>2017-06-11T10:31:44.000Z</time>
      </trkpt>
      <trkpt lat="45.15656" lon="5.50691">
        <ele>1381</ele>
        <time>2017-06-11T10:31:45.000Z</time>
      </trkpt>
      <trkpt lat="45.15657" lon="5.50696">
        <ele>1379</ele>
        <time>2017-06-11T10:31:46.000Z</time>
      </trkpt>
      <trkpt lat="45.15659" lon="5.50702">
        <ele>1378</ele>
        <time>2017-06-11T10:31:47.000Z</time>
      </trkpt>
      <trkpt lat="45.15662" lon="5.50707">
        <ele>1376</ele>
        <time>2017-06-11T10:31:48.000Z</time>
      </trkpt>
      <trkpt lat="45.15666" lon="5.50712">
        <ele>1375</ele>
        <time>2017-06-11T10:31:49.000Z</time>
      </trkpt>
      <trkpt lat="45.1567" lon="5.50716">
        <ele>1391</ele>
        <time>2017-06-11T10:31:50.000Z</time>
      </trkpt>
      <trkpt lat="45.15674" lon="5.50719">
        <ele>1390</ele>
        <time>2017-06-11T10:31:51.000Z</time>
      </trkpt>
      <trkpt lat="45.15677" lon="5.50723">
        <ele>1389</ele>
        <time>2017-06-11T10:31:52.000Z</time>
      </trkpt>
      <trkpt lat="45.1568" lon="5.50727">
        <ele>1388</ele>
        <time>2017-06-11T10:31:53.000Z</time>
      </trkpt>
      <trkpt lat="45.1569" lon="5.50741">
        <ele>1388</ele>
        <time>2017-06-11T10:31:56.000Z</time>
      </trkpt>
      <trkpt lat="45.15694" lon="5.50743">
        <ele>1389</ele>
        <time>2017-06-11T10:31:57.000Z</time>
      </trkpt>
      <trkpt lat="45.15697" lon="5.50743">
        <ele>1390</ele>
        <time>2017-06-11T10:31:58.000Z</time>
      </trkpt>
      <trkpt lat="45.15699" lon="5.50745">
        <ele>1390</ele>
        <time>2017-06-11T10:31:59.000Z</time>
      </trkpt>
      <trkpt lat="45.15701" lon="5.50747">
        <ele>1391</ele>
        <time>2017-06-11T10:32:00.000Z</time>
      </trkpt>
      <trkpt lat="45.15706" lon="5.50751">
        <ele>1376</ele>
        <time>2017-06-11T10:32:02.000Z</time>
      </trkpt>
      <trkpt lat="45.15708" lon="5.50755">
        <ele>1377</ele>
        <time>2017-06-11T10:32:03.000Z</time>
      </trkpt>
      <trkpt lat="45.1571" lon="5.50759">
        <ele>1377</ele>
        <time>2017-06-11T10:32:04.000Z</time>
      </trkpt>
      <trkpt lat="45.15712" lon="5.50763">
        <ele>1377</ele>
        <time>2017-06-11T10:32:05.000Z</time>
      </trkpt>
      <trkpt lat="45.15714" lon="5.50767">
        <ele>1377</ele>
        <time>2017-06-11T10:32:06.000Z</time>
      </trkpt>
      <trkpt lat="45.15717" lon="5.5077">
        <ele>1377</ele>
        <time>2017-06-11T10:32:07.000Z</time>
      </trkpt>
      <trkpt lat="45.1572" lon="5.50774">
        <ele>1377</ele>
        <time>2017-06-11T10:32:08.000Z</time>
      </trkpt>
      <trkpt lat="45.15723" lon="5.50779">
        <ele>1377</ele>
        <time>2017-06-11T10:32:09.000Z</time>
      </trkpt>
      <trkpt lat="45.15726" lon="5.50783">
        <ele>1377</ele>
        <time>2017-06-11T10:32:10.000Z</time>
      </trkpt>
      <trkpt lat="45.15729" lon="5.50787">
        <ele>1376</ele>
        <time>2017-06-11T10:32:11.000Z</time>
      </trkpt>
      <trkpt lat="45.15737" lon="5.50797">
        <ele>1375</ele>
        <time>2017-06-11T10:32:13.000Z</time>
      </trkpt>
      <trkpt lat="45.15742" lon="5.50801">
        <ele>1375</ele>
        <time>2017-06-11T10:32:14.000Z</time>
      </trkpt>
      <trkpt lat="45.15748" lon="5.50804">
        <ele>1374</ele>
        <time>2017-06-11T10:32:15.000Z</time>
      </trkpt>
      <trkpt lat="45.15773" lon="5.50818">
        <ele>1384</ele>
        <time>2017-06-11T10:32:23.000Z</time>
      </trkpt>
      <trkpt lat="45.158" lon="5.50835">
        <ele>1368</ele>
        <time>2017-06-11T10:32:30.000Z</time>
      </trkpt>
      <trkpt lat="45.15806" lon="5.50838">
        <ele>1369</ele>
        <time>2017-06-11T10:32:31.000Z</time>
      </trkpt>
      <trkpt lat="45.15849" lon="5.50867">
        <ele>1371</ele>
        <time>2017-06-11T10:32:38.000Z</time>
      </trkpt>
      <trkpt lat="45.15861" lon="5.50878">
        <ele>1369</ele>
        <time>2017-06-11T10:32:40.000Z</time>
      </trkpt>
      <trkpt lat="45.15871" lon="5.50892">
        <ele>1367</ele>
        <time>2017-06-11T10:32:42.000Z</time>
      </trkpt>
      <trkpt lat="45.15876" lon="5.50898">
        <ele>1367</ele>
        <time>2017-06-11T10:32:43.000Z</time>
      </trkpt>
      <trkpt lat="45.15888" lon="5.50912">
        <ele>1366</ele>
        <time>2017-06-11T10:32:45.000Z</time>
      </trkpt>
      <trkpt lat="45.15895" lon="5.50917">
        <ele>1351</ele>
        <time>2017-06-11T10:32:46.000Z</time>
      </trkpt>
      <trkpt lat="45.15901" lon="5.50922">
        <ele>1353</ele>
        <time>2017-06-11T10:32:47.000Z</time>
      </trkpt>
      <trkpt lat="45.15926" lon="5.50943">
        <ele>1356</ele>
        <time>2017-06-11T10:32:51.000Z</time>
      </trkpt>
      <trkpt lat="45.15932" lon="5.50949">
        <ele>1355</ele>
        <time>2017-06-11T10:32:52.000Z</time>
      </trkpt>
      <trkpt lat="45.15937" lon="5.50953">
        <ele>1355</ele>
        <time>2017-06-11T10:32:53.000Z</time>
      </trkpt>
      <trkpt lat="45.1594" lon="5.50958">
        <ele>1354</ele>
        <time>2017-06-11T10:32:54.000Z</time>
      </trkpt>
      <trkpt lat="45.15944" lon="5.50964">
        <ele>1354</ele>
        <time>2017-06-11T10:32:55.000Z</time>
      </trkpt>
      <trkpt lat="45.15946" lon="5.50971">
        <ele>1353</ele>
        <time>2017-06-11T10:32:56.000Z</time>
      </trkpt>
      <trkpt lat="45.15948" lon="5.50979">
        <ele>1352</ele>
        <time>2017-06-11T10:32:57.000Z</time>
      </trkpt>
      <trkpt lat="45.1595" lon="5.50987">
        <ele>1351</ele>
        <time>2017-06-11T10:32:58.000Z</time>
      </trkpt>
      <trkpt lat="45.15952" lon="5.50996">
        <ele>1351</ele>
        <time>2017-06-11T10:32:59.000Z</time>
      </trkpt>
      <trkpt lat="45.15964" lon="5.51039">
        <ele>1335</ele>
        <time>2017-06-11T10:33:04.000Z</time>
      </trkpt>
      <trkpt lat="45.15967" lon="5.51044">
        <ele>1335</ele>
        <time>2017-06-11T10:33:05.000Z</time>
      </trkpt>
      <trkpt lat="45.15976" lon="5.51057">
        <ele>1334</ele>
        <time>2017-06-11T10:33:08.000Z</time>
      </trkpt>
      <trkpt lat="45.15978" lon="5.51058">
        <ele>1334</ele>
        <time>2017-06-11T10:33:09.000Z</time>
      </trkpt>
      <trkpt lat="45.15981" lon="5.51059">
        <ele>1334</ele>
        <time>2017-06-11T10:33:10.000Z</time>
      </trkpt>
      <trkpt lat="45.15984" lon="5.5106">
        <ele>1334</ele>
        <time>2017-06-11T10:33:11.000Z</time>
      </trkpt>
      <trkpt lat="45.15986" lon="5.51062">
        <ele>1334</ele>
        <time>2017-06-11T10:33:12.000Z</time>
      </trkpt>
      <trkpt lat="45.15989" lon="5.51063">
        <ele>1334</ele>
        <time>2017-06-11T10:33:13.000Z</time>
      </trkpt>
      <trkpt lat="45.15991" lon="5.51064">
        <ele>1334</ele>
        <time>2017-06-11T10:33:14.000Z</time>
      </trkpt>
      <trkpt lat="45.16017" lon="5.5108">
        <ele>1340</ele>
        <time>2017-06-11T10:33:23.000Z</time>
      </trkpt>
      <trkpt lat="45.1605" lon="5.5111">
        <ele>1329</ele>
        <time>2017-06-11T10:33:33.000Z</time>
      </trkpt>
      <trkpt lat="45.16064" lon="5.51125">
        <ele>1327</ele>
        <time>2017-06-11T10:33:36.000Z</time>
      </trkpt>
      <trkpt lat="45.1607" lon="5.51126">
        <ele>1327</ele>
        <time>2017-06-11T10:33:37.000Z</time>
      </trkpt>
      <trkpt lat="45.16075" lon="5.51128">
        <ele>1327</ele>
        <time>2017-06-11T10:33:38.000Z</time>
      </trkpt>
      <trkpt lat="45.16081" lon="5.51131">
        <ele>1327</ele>
        <time>2017-06-11T10:33:39.000Z</time>
      </trkpt>
      <trkpt lat="45.16087" lon="5.51134">
        <ele>1333</ele>
        <time>2017-06-11T10:33:40.000Z</time>
      </trkpt>
      <trkpt lat="45.16098" lon="5.5114">
        <ele>1332</ele>
        <time>2017-06-11T10:33:42.000Z</time>
      </trkpt>
      <trkpt lat="45.16104" lon="5.51143">
        <ele>1332</ele>
        <time>2017-06-11T10:33:43.000Z</time>
      </trkpt>
      <trkpt lat="45.16109" lon="5.51148">
        <ele>1332</ele>
        <time>2017-06-11T10:33:44.000Z</time>
      </trkpt>
      <trkpt lat="45.16112" lon="5.51154">
        <ele>1332</ele>
        <time>2017-06-11T10:33:45.000Z</time>
      </trkpt>
      <trkpt lat="45.16115" lon="5.51161">
        <ele>1331</ele>
        <time>2017-06-11T10:33:46.000Z</time>
      </trkpt>
      <trkpt lat="45.16118" lon="5.51169">
        <ele>1316</ele>
        <time>2017-06-11T10:33:47.000Z</time>
      </trkpt>
      <trkpt lat="45.1612" lon="5.51178">
        <ele>1316</ele>
        <time>2017-06-11T10:33:48.000Z</time>
      </trkpt>
      <trkpt lat="45.16121" lon="5.51186">
        <ele>1315</ele>
        <time>2017-06-11T10:33:49.000Z</time>
      </trkpt>
      <trkpt lat="45.16122" lon="5.51194">
        <ele>1314</ele>
        <time>2017-06-11T10:33:50.000Z</time>
      </trkpt>
      <trkpt lat="45.16123" lon="5.51203">
        <ele>1313</ele>
        <time>2017-06-11T10:33:51.000Z</time>
      </trkpt>
      <trkpt lat="45.16127" lon="5.51219">
        <ele>1311</ele>
        <time>2017-06-11T10:33:53.000Z</time>
      </trkpt>
      <trkpt lat="45.16129" lon="5.51224">
        <ele>1310</ele>
        <time>2017-06-11T10:33:54.000Z</time>
      </trkpt>
      <trkpt lat="45.16131" lon="5.51228">
        <ele>1310</ele>
        <time>2017-06-11T10:33:55.000Z</time>
      </trkpt>
      <trkpt lat="45.16133" lon="5.51234">
        <ele>1309</ele>
        <time>2017-06-11T10:33:56.000Z</time>
      </trkpt>
      <trkpt lat="45.16136" lon="5.51241">
        <ele>1309</ele>
        <time>2017-06-11T10:33:57.000Z</time>
      </trkpt>
      <trkpt lat="45.1614" lon="5.51248">
        <ele>1308</ele>
        <time>2017-06-11T10:33:58.000Z</time>
      </trkpt>
      <trkpt lat="45.16145" lon="5.51255">
        <ele>1294</ele>
        <time>2017-06-11T10:33:59.000Z</time>
      </trkpt>
      <trkpt lat="45.1615" lon="5.51262">
        <ele>1294</ele>
        <time>2017-06-11T10:34:00.000Z</time>
      </trkpt>
      <trkpt lat="45.16155" lon="5.51268">
        <ele>1294</ele>
        <time>2017-06-11T10:34:01.000Z</time>
      </trkpt>
      <trkpt lat="45.16161" lon="5.51273">
        <ele>1293</ele>
        <time>2017-06-11T10:34:02.000Z</time>
      </trkpt>
      <trkpt lat="45.16166" lon="5.51277">
        <ele>1292</ele>
        <time>2017-06-11T10:34:03.000Z</time>
      </trkpt>
      <trkpt lat="45.16171" lon="5.5128">
        <ele>1299</ele>
        <time>2017-06-11T10:34:04.000Z</time>
      </trkpt>
      <trkpt lat="45.16177" lon="5.51283">
        <ele>1298</ele>
        <time>2017-06-11T10:34:11.000Z</time>
      </trkpt>
      <trkpt lat="45.1618" lon="5.51286">
        <ele>1298</ele>
        <time>2017-06-11T10:34:44.000Z</time>
      </trkpt>
      <trkpt lat="45.1619" lon="5.51294">
        <ele>1296</ele>
        <time>2017-06-11T10:34:46.000Z</time>
      </trkpt>
      <trkpt lat="45.16242" lon="5.51328">
        <ele>1293</ele>
        <time>2017-06-11T10:34:53.000Z</time>
      </trkpt>
      <trkpt lat="45.16257" lon="5.51334">
        <ele>1289</ele>
        <time>2017-06-11T10:34:55.000Z</time>
      </trkpt>
      <trkpt lat="45.16273" lon="5.51344">
        <ele>1288</ele>
        <time>2017-06-11T10:34:57.000Z</time>
      </trkpt>
      <trkpt lat="45.16279" lon="5.5135">
        <ele>1287</ele>
        <time>2017-06-11T10:34:58.000Z</time>
      </trkpt>
      <trkpt lat="45.16293" lon="5.51359">
        <ele>1287</ele>
        <time>2017-06-11T10:35:00.000Z</time>
      </trkpt>
      <trkpt lat="45.163" lon="5.51366">
        <ele>1287</ele>
        <time>2017-06-11T10:35:01.000Z</time>
      </trkpt>
      <trkpt lat="45.16306" lon="5.51377">
        <ele>1286</ele>
        <time>2017-06-11T10:35:02.000Z</time>
      </trkpt>
      <trkpt lat="45.16308" lon="5.51387">
        <ele>1285</ele>
        <time>2017-06-11T10:35:03.000Z</time>
      </trkpt>
      <trkpt lat="45.1631" lon="5.51397">
        <ele>1284</ele>
        <time>2017-06-11T10:35:04.000Z</time>
      </trkpt>
      <trkpt lat="45.16312" lon="5.51406">
        <ele>1284</ele>
        <time>2017-06-11T10:35:05.000Z</time>
      </trkpt>
      <trkpt lat="45.16314" lon="5.51414">
        <ele>1283</ele>
        <time>2017-06-11T10:35:06.000Z</time>
      </trkpt>
      <trkpt lat="45.16315" lon="5.51423">
        <ele>1274</ele>
        <time>2017-06-11T10:35:07.000Z</time>
      </trkpt>
      <trkpt lat="45.16316" lon="5.51433">
        <ele>1272</ele>
        <time>2017-06-11T10:35:08.000Z</time>
      </trkpt>
      <trkpt lat="45.16317" lon="5.51443">
        <ele>1271</ele>
        <time>2017-06-11T10:35:09.000Z</time>
      </trkpt>
      <trkpt lat="45.16319" lon="5.51453">
        <ele>1269</ele>
        <time>2017-06-11T10:35:10.000Z</time>
      </trkpt>
      <trkpt lat="45.16321" lon="5.51462">
        <ele>1268</ele>
        <time>2017-06-11T10:35:11.000Z</time>
      </trkpt>
      <trkpt lat="45.16322" lon="5.51472">
        <ele>1267</ele>
        <time>2017-06-11T10:35:12.000Z</time>
      </trkpt>
      <trkpt lat="45.16322" lon="5.5148">
        <ele>1266</ele>
        <time>2017-06-11T10:35:13.000Z</time>
      </trkpt>
      <trkpt lat="45.16319" lon="5.51485">
        <ele>1266</ele>
        <time>2017-06-11T10:35:14.000Z</time>
      </trkpt>
      <trkpt lat="45.16316" lon="5.51487">
        <ele>1266</ele>
        <time>2017-06-11T10:35:15.000Z</time>
      </trkpt>
      <trkpt lat="45.16303" lon="5.51491">
        <ele>1265</ele>
        <time>2017-06-11T10:35:24.000Z</time>
      </trkpt>
      <trkpt lat="45.163" lon="5.5149">
        <ele>1264</ele>
        <time>2017-06-11T10:35:25.000Z</time>
      </trkpt>
      <trkpt lat="45.16294" lon="5.51487">
        <ele>1264</ele>
        <time>2017-06-11T10:35:26.000Z</time>
      </trkpt>
      <trkpt lat="45.16284" lon="5.51481">
        <ele>1263</ele>
        <time>2017-06-11T10:35:28.000Z</time>
      </trkpt>
      <trkpt lat="45.16278" lon="5.5148">
        <ele>1263</ele>
        <time>2017-06-11T10:35:29.000Z</time>
      </trkpt>
      <trkpt lat="45.16272" lon="5.5148">
        <ele>1262</ele>
        <time>2017-06-11T10:35:30.000Z</time>
      </trkpt>
      <trkpt lat="45.16265" lon="5.5148">
        <ele>1261</ele>
        <time>2017-06-11T10:35:31.000Z</time>
      </trkpt>
      <trkpt lat="45.16258" lon="5.51481">
        <ele>1259</ele>
        <time>2017-06-11T10:35:32.000Z</time>
      </trkpt>
      <trkpt lat="45.16244" lon="5.51481">
        <ele>1252</ele>
        <time>2017-06-11T10:35:34.000Z</time>
      </trkpt>
      <trkpt lat="45.16228" lon="5.51476">
        <ele>1253</ele>
        <time>2017-06-11T10:35:36.000Z</time>
      </trkpt>
      <trkpt lat="45.16213" lon="5.51468">
        <ele>1253</ele>
        <time>2017-06-11T10:35:38.000Z</time>
      </trkpt>
      <trkpt lat="45.16197" lon="5.51463">
        <ele>1252</ele>
        <time>2017-06-11T10:35:40.000Z</time>
      </trkpt>
      <trkpt lat="45.1618" lon="5.51459">
        <ele>1252</ele>
        <time>2017-06-11T10:35:42.000Z</time>
      </trkpt>
      <trkpt lat="45.16155" lon="5.51448">
        <ele>1245</ele>
        <time>2017-06-11T10:35:46.000Z</time>
      </trkpt>
      <trkpt lat="45.16151" lon="5.51445">
        <ele>1245</ele>
        <time>2017-06-11T10:35:47.000Z</time>
      </trkpt>
      <trkpt lat="45.16146" lon="5.51442">
        <ele>1245</ele>
        <time>2017-06-11T10:35:48.000Z</time>
      </trkpt>
      <trkpt lat="45.16135" lon="5.51434">
        <ele>1244</ele>
        <time>2017-06-11T10:35:51.000Z</time>
      </trkpt>
      <trkpt lat="45.16131" lon="5.51433">
        <ele>1244</ele>
        <time>2017-06-11T10:35:52.000Z</time>
      </trkpt>
      <trkpt lat="45.16118" lon="5.5143">
        <ele>1243</ele>
        <time>2017-06-11T10:35:55.000Z</time>
      </trkpt>
      <trkpt lat="45.16113" lon="5.51429">
        <ele>1242</ele>
        <time>2017-06-11T10:35:56.000Z</time>
      </trkpt>
      <trkpt lat="45.16108" lon="5.51429">
        <ele>1242</ele>
        <time>2017-06-11T10:35:57.000Z</time>
      </trkpt>
      <trkpt lat="45.16105" lon="5.5143">
        <ele>1242</ele>
        <time>2017-06-11T10:35:58.000Z</time>
      </trkpt>
      <trkpt lat="45.16103" lon="5.51433">
        <ele>1241</ele>
        <time>2017-06-11T10:35:59.000Z</time>
      </trkpt>
      <trkpt lat="45.16101" lon="5.51437">
        <ele>1241</ele>
        <time>2017-06-11T10:36:00.000Z</time>
      </trkpt>
      <trkpt lat="45.16099" lon="5.51441">
        <ele>1240</ele>
        <time>2017-06-11T10:36:01.000Z</time>
      </trkpt>
      <trkpt lat="45.16096" lon="5.51443">
        <ele>1240</ele>
        <time>2017-06-11T10:36:02.000Z</time>
      </trkpt>
      <trkpt lat="45.16092" lon="5.51443">
        <ele>1240</ele>
        <time>2017-06-11T10:36:03.000Z</time>
      </trkpt>
      <trkpt lat="45.16088" lon="5.51443">
        <ele>1240</ele>
        <time>2017-06-11T10:36:04.000Z</time>
      </trkpt>
      <trkpt lat="45.16084" lon="5.51442">
        <ele>1240</ele>
        <time>2017-06-11T10:36:05.000Z</time>
      </trkpt>
      <trkpt lat="45.16081" lon="5.51441">
        <ele>1232</ele>
        <time>2017-06-11T10:36:06.000Z</time>
      </trkpt>
      <trkpt lat="45.16077" lon="5.51439">
        <ele>1233</ele>
        <time>2017-06-11T10:36:07.000Z</time>
      </trkpt>
      <trkpt lat="45.16073" lon="5.51436">
        <ele>1233</ele>
        <time>2017-06-11T10:36:08.000Z</time>
      </trkpt>
      <trkpt lat="45.16068" lon="5.51431">
        <ele>1233</ele>
        <time>2017-06-11T10:36:09.000Z</time>
      </trkpt>
      <trkpt lat="45.16062" lon="5.51428">
        <ele>1233</ele>
        <time>2017-06-11T10:36:10.000Z</time>
      </trkpt>
      <trkpt lat="45.16056" lon="5.51428">
        <ele>1231</ele>
        <time>2017-06-11T10:36:11.000Z</time>
      </trkpt>
      <trkpt lat="45.16051" lon="5.51429">
        <ele>1231</ele>
        <time>2017-06-11T10:36:12.000Z</time>
      </trkpt>
      <trkpt lat="45.16048" lon="5.51429">
        <ele>1230</ele>
        <time>2017-06-11T10:36:13.000Z</time>
      </trkpt>
      <trkpt lat="45.16045" lon="5.51427">
        <ele>1230</ele>
        <time>2017-06-11T10:36:14.000Z</time>
      </trkpt>
      <trkpt lat="45.16043" lon="5.51426">
        <ele>1230</ele>
        <time>2017-06-11T10:36:15.000Z</time>
      </trkpt>
      <trkpt lat="45.16042" lon="5.51425">
        <ele>1230</ele>
        <time>2017-06-11T10:36:16.000Z</time>
      </trkpt>
      <trkpt lat="45.1604" lon="5.51424">
        <ele>1230</ele>
        <time>2017-06-11T10:36:17.000Z</time>
      </trkpt>
      <trkpt lat="45.16039" lon="5.51424">
        <ele>1229</ele>
        <time>2017-06-11T10:36:18.000Z</time>
      </trkpt>
      <trkpt lat="45.16037" lon="5.51423">
        <ele>1229</ele>
        <time>2017-06-11T10:36:19.000Z</time>
      </trkpt>
      <trkpt lat="45.16035" lon="5.51422">
        <ele>1229</ele>
        <time>2017-06-11T10:36:20.000Z</time>
      </trkpt>
      <trkpt lat="45.16033" lon="5.51421">
        <ele>1229</ele>
        <time>2017-06-11T10:36:21.000Z</time>
      </trkpt>
      <trkpt lat="45.1603" lon="5.51419">
        <ele>1229</ele>
        <time>2017-06-11T10:36:22.000Z</time>
      </trkpt>
      <trkpt lat="45.16027" lon="5.51418">
        <ele>1229</ele>
        <time>2017-06-11T10:36:23.000Z</time>
      </trkpt>
      <trkpt lat="45.16025" lon="5.51417">
        <ele>1240</ele>
        <time>2017-06-11T10:36:24.000Z</time>
      </trkpt>
      <trkpt lat="45.16" lon="5.51402">
        <ele>1232</ele>
        <time>2017-06-11T10:36:37.000Z</time>
      </trkpt>
      <trkpt lat="45.15987" lon="5.51394">
        <ele>1234</ele>
        <time>2017-06-11T10:36:57.000Z</time>
      </trkpt>
      <trkpt lat="45.15969" lon="5.51386">
        <ele>1234</ele>
        <time>2017-06-11T10:37:03.000Z</time>
      </trkpt>
      <trkpt lat="45.15965" lon="5.51383">
        <ele>1234</ele>
        <time>2017-06-11T10:37:04.000Z</time>
      </trkpt>
      <trkpt lat="45.15961" lon="5.5138">
        <ele>1234</ele>
        <time>2017-06-11T10:37:05.000Z</time>
      </trkpt>
      <trkpt lat="45.15936" lon="5.51371">
        <ele>1233</ele>
        <time>2017-06-11T10:37:10.000Z</time>
      </trkpt>
      <trkpt lat="45.15932" lon="5.5137">
        <ele>1233</ele>
        <time>2017-06-11T10:37:11.000Z</time>
      </trkpt>
      <trkpt lat="45.15919" lon="5.51365">
        <ele>1234</ele>
        <time>2017-06-11T10:37:14.000Z</time>
      </trkpt>
      <trkpt lat="45.15914" lon="5.51365">
        <ele>1226</ele>
        <time>2017-06-11T10:37:15.000Z</time>
      </trkpt>
      <trkpt lat="45.15908" lon="5.51365">
        <ele>1226</ele>
        <time>2017-06-11T10:37:16.000Z</time>
      </trkpt>
      <trkpt lat="45.15901" lon="5.51365">
        <ele>1225</ele>
        <time>2017-06-11T10:37:17.000Z</time>
      </trkpt>
      <trkpt lat="45.15895" lon="5.51363">
        <ele>1225</ele>
        <time>2017-06-11T10:37:18.000Z</time>
      </trkpt>
      <trkpt lat="45.15888" lon="5.51362">
        <ele>1225</ele>
        <time>2017-06-11T10:37:19.000Z</time>
      </trkpt>
      <trkpt lat="45.15881" lon="5.51361">
        <ele>1224</ele>
        <time>2017-06-11T10:37:20.000Z</time>
      </trkpt>
      <trkpt lat="45.15874" lon="5.51362">
        <ele>1223</ele>
        <time>2017-06-11T10:37:21.000Z</time>
      </trkpt>
      <trkpt lat="45.15867" lon="5.51363">
        <ele>1223</ele>
        <time>2017-06-11T10:37:22.000Z</time>
      </trkpt>
      <trkpt lat="45.15856" lon="5.51367">
        <ele>1222</ele>
        <time>2017-06-11T10:37:24.000Z</time>
      </trkpt>
      <trkpt lat="45.15852" lon="5.51369">
        <ele>1221</ele>
        <time>2017-06-11T10:37:25.000Z</time>
      </trkpt>
      <trkpt lat="45.15849" lon="5.5137">
        <ele>1221</ele>
        <time>2017-06-11T10:37:27.000Z</time>
      </trkpt>
      <trkpt lat="45.15847" lon="5.51371">
        <ele>1221</ele>
        <time>2017-06-11T10:37:29.000Z</time>
      </trkpt>
      <trkpt lat="45.1584" lon="5.5139">
        <ele>1216</ele>
        <time>2017-06-11T10:37:35.000Z</time>
      </trkpt>
      <trkpt lat="45.15834" lon="5.51406">
        <ele>1209</ele>
        <time>2017-06-11T10:37:40.000Z</time>
      </trkpt>
      <trkpt lat="45.15833" lon="5.5141">
        <ele>1205</ele>
        <time>2017-06-11T10:37:41.000Z</time>
      </trkpt>
      <trkpt lat="45.1583" lon="5.51416">
        <ele>1203</ele>
        <time>2017-06-11T10:37:42.000Z</time>
      </trkpt>
      <trkpt lat="45.15823" lon="5.51429">
        <ele>1196</ele>
        <time>2017-06-11T10:37:44.000Z</time>
      </trkpt>
      <trkpt lat="45.15817" lon="5.51437">
        <ele>1194</ele>
        <time>2017-06-11T10:37:45.000Z</time>
      </trkpt>
      <trkpt lat="45.1579" lon="5.51467">
        <ele>1189</ele>
        <time>2017-06-11T10:37:49.000Z</time>
      </trkpt>
      <trkpt lat="45.15766" lon="5.51469">
        <ele>1187</ele>
        <time>2017-06-11T10:37:54.000Z</time>
      </trkpt>
      <trkpt lat="45.15734" lon="5.51449">
        <ele>1185</ele>
        <time>2017-06-11T10:38:06.000Z</time>
      </trkpt>
      <trkpt lat="45.15728" lon="5.51444">
        <ele>1186</ele>
        <time>2017-06-11T10:38:08.000Z</time>
      </trkpt>
      <trkpt lat="45.15721" lon="5.51436">
        <ele>1186</ele>
        <time>2017-06-11T10:38:10.000Z</time>
      </trkpt>
      <trkpt lat="45.15715" lon="5.51425">
        <ele>1186</ele>
        <time>2017-06-11T10:38:12.000Z</time>
      </trkpt>
      <trkpt lat="45.15712" lon="5.51421">
        <ele>1186</ele>
        <time>2017-06-11T10:38:13.000Z</time>
      </trkpt>
      <trkpt lat="45.15709" lon="5.51416">
        <ele>1199</ele>
        <time>2017-06-11T10:38:14.000Z</time>
      </trkpt>
      <trkpt lat="45.15706" lon="5.51411">
        <ele>1199</ele>
        <time>2017-06-11T10:38:15.000Z</time>
      </trkpt>
      <trkpt lat="45.15704" lon="5.51406">
        <ele>1199</ele>
        <time>2017-06-11T10:38:16.000Z</time>
      </trkpt>
      <trkpt lat="45.15701" lon="5.51402">
        <ele>1199</ele>
        <time>2017-06-11T10:38:17.000Z</time>
      </trkpt>
      <trkpt lat="45.15698" lon="5.51398">
        <ele>1199</ele>
        <time>2017-06-11T10:38:18.000Z</time>
      </trkpt>
      <trkpt lat="45.15693" lon="5.51394">
        <ele>1199</ele>
        <time>2017-06-11T10:38:19.000Z</time>
      </trkpt>
      <trkpt lat="45.15688" lon="5.51391">
        <ele>1199</ele>
        <time>2017-06-11T10:38:20.000Z</time>
      </trkpt>
      <trkpt lat="45.15678" lon="5.51385">
        <ele>1199</ele>
        <time>2017-06-11T10:38:22.000Z</time>
      </trkpt>
      <trkpt lat="45.15674" lon="5.51382">
        <ele>1199</ele>
        <time>2017-06-11T10:38:23.000Z</time>
      </trkpt>
      <trkpt lat="45.15669" lon="5.51379">
        <ele>1199</ele>
        <time>2017-06-11T10:38:24.000Z</time>
      </trkpt>
      <trkpt lat="45.15665" lon="5.51376">
        <ele>1192</ele>
        <time>2017-06-11T10:38:25.000Z</time>
      </trkpt>
      <trkpt lat="45.15662" lon="5.51373">
        <ele>1193</ele>
        <time>2017-06-11T10:38:26.000Z</time>
      </trkpt>
      <trkpt lat="45.15622" lon="5.51358">
        <ele>1192</ele>
        <time>2017-06-11T10:38:36.000Z</time>
      </trkpt>
      <trkpt lat="45.15618" lon="5.51356">
        <ele>1192</ele>
        <time>2017-06-11T10:38:37.000Z</time>
      </trkpt>
      <trkpt lat="45.15609" lon="5.51349">
        <ele>1192</ele>
        <time>2017-06-11T10:38:39.000Z</time>
      </trkpt>
      <trkpt lat="45.15605" lon="5.51346">
        <ele>1193</ele>
        <time>2017-06-11T10:38:40.000Z</time>
      </trkpt>
      <trkpt lat="45.15601" lon="5.51344">
        <ele>1193</ele>
        <time>2017-06-11T10:38:41.000Z</time>
      </trkpt>
      <trkpt lat="45.15597" lon="5.51341">
        <ele>1193</ele>
        <time>2017-06-11T10:38:42.000Z</time>
      </trkpt>
      <trkpt lat="45.15593" lon="5.51338">
        <ele>1194</ele>
        <time>2017-06-11T10:38:43.000Z</time>
      </trkpt>
      <trkpt lat="45.15588" lon="5.51335">
        <ele>1194</ele>
        <time>2017-06-11T10:38:44.000Z</time>
      </trkpt>
      <trkpt lat="45.15583" lon="5.5133">
        <ele>1197</ele>
        <time>2017-06-11T10:38:45.000Z</time>
      </trkpt>
      <trkpt lat="45.15579" lon="5.51325">
        <ele>1196</ele>
        <time>2017-06-11T10:38:46.000Z</time>
      </trkpt>
      <trkpt lat="45.15573" lon="5.51322">
        <ele>1197</ele>
        <time>2017-06-11T10:38:47.000Z</time>
      </trkpt>
      <trkpt lat="45.15566" lon="5.51321">
        <ele>1197</ele>
        <time>2017-06-11T10:38:48.000Z</time>
      </trkpt>
      <trkpt lat="45.1556" lon="5.51322">
        <ele>1197</ele>
        <time>2017-06-11T10:38:49.000Z</time>
      </trkpt>
      <trkpt lat="45.15554" lon="5.51324">
        <ele>1197</ele>
        <time>2017-06-11T10:38:50.000Z</time>
      </trkpt>
      <trkpt lat="45.15543" lon="5.51327">
        <ele>1196</ele>
        <time>2017-06-11T10:38:52.000Z</time>
      </trkpt>
      <trkpt lat="45.15539" lon="5.51327">
        <ele>1195</ele>
        <time>2017-06-11T10:38:53.000Z</time>
      </trkpt>
      <trkpt lat="45.1553" lon="5.51326">
        <ele>1194</ele>
        <time>2017-06-11T10:38:55.000Z</time>
      </trkpt>
      <trkpt lat="45.1552" lon="5.51328">
        <ele>1192</ele>
        <time>2017-06-11T10:38:57.000Z</time>
      </trkpt>
      <trkpt lat="45.15515" lon="5.51329">
        <ele>1191</ele>
        <time>2017-06-11T10:38:58.000Z</time>
      </trkpt>
      <trkpt lat="45.1551" lon="5.51332">
        <ele>1189</ele>
        <time>2017-06-11T10:38:59.000Z</time>
      </trkpt>
      <trkpt lat="45.15504" lon="5.51334">
        <ele>1183</ele>
        <time>2017-06-11T10:39:00.000Z</time>
      </trkpt>
      <trkpt lat="45.15498" lon="5.51335">
        <ele>1183</ele>
        <time>2017-06-11T10:39:01.000Z</time>
      </trkpt>
      <trkpt lat="45.15492" lon="5.51334">
        <ele>1180</ele>
        <time>2017-06-11T10:39:02.000Z</time>
      </trkpt>
      <trkpt lat="45.15486" lon="5.51333">
        <ele>1179</ele>
        <time>2017-06-11T10:39:03.000Z</time>
      </trkpt>
      <trkpt lat="45.15475" lon="5.5133">
        <ele>1185</ele>
        <time>2017-06-11T10:39:05.000Z</time>
      </trkpt>
      <trkpt lat="45.15453" lon="5.51296">
        <ele>1186</ele>
        <time>2017-06-11T10:39:11.000Z</time>
      </trkpt>
      <trkpt lat="45.1545" lon="5.51295">
        <ele>1186</ele>
        <time>2017-06-11T10:39:12.000Z</time>
      </trkpt>
      <trkpt lat="45.15445" lon="5.51287">
        <ele>1186</ele>
        <time>2017-06-11T10:39:20.000Z</time>
      </trkpt>
      <trkpt lat="45.15442" lon="5.51291">
        <ele>1186</ele>
        <time>2017-06-11T10:40:00.000Z</time>
      </trkpt>
      <trkpt lat="45.15438" lon="5.51284">
        <ele>1186</ele>
        <time>2017-06-11T10:40:27.000Z</time>
      </trkpt>
      <trkpt lat="45.15433" lon="5.51284">
        <ele>1186</ele>
        <time>2017-06-11T10:40:30.000Z</time>
      </trkpt>
      <trkpt lat="45.15407" lon="5.513">
        <ele>1178</ele>
        <time>2017-06-11T10:40:39.000Z</time>
      </trkpt>
      <trkpt lat="45.15392" lon="5.5131">
        <ele>1177</ele>
        <time>2017-06-11T10:40:44.000Z</time>
      </trkpt>
      <trkpt lat="45.15388" lon="5.51314">
        <ele>1177</ele>
        <time>2017-06-11T10:40:46.000Z</time>
      </trkpt>
      <trkpt lat="45.15387" lon="5.51317">
        <ele>1177</ele>
        <time>2017-06-11T10:40:47.000Z</time>
      </trkpt>
      <trkpt lat="45.15386" lon="5.51319">
        <ele>1176</ele>
        <time>2017-06-11T10:40:48.000Z</time>
      </trkpt>
      <trkpt lat="45.15384" lon="5.51321">
        <ele>1176</ele>
        <time>2017-06-11T10:40:50.000Z</time>
      </trkpt>
      <trkpt lat="45.15383" lon="5.51322">
        <ele>1176</ele>
        <time>2017-06-11T10:40:51.000Z</time>
      </trkpt>
      <trkpt lat="45.1538" lon="5.51324">
        <ele>1176</ele>
        <time>2017-06-11T10:40:52.000Z</time>
      </trkpt>
      <trkpt lat="45.15363" lon="5.51341">
        <ele>1165</ele>
        <time>2017-06-11T10:40:56.000Z</time>
      </trkpt>
      <trkpt lat="45.15358" lon="5.51346">
        <ele>1165</ele>
        <time>2017-06-11T10:40:57.000Z</time>
      </trkpt>
      <trkpt lat="45.15351" lon="5.51352">
        <ele>1165</ele>
        <time>2017-06-11T10:40:58.000Z</time>
      </trkpt>
      <trkpt lat="45.15345" lon="5.51356">
        <ele>1164</ele>
        <time>2017-06-11T10:40:59.000Z</time>
      </trkpt>
      <trkpt lat="45.1534" lon="5.51358">
        <ele>1164</ele>
        <time>2017-06-11T10:41:00.000Z</time>
      </trkpt>
      <trkpt lat="45.15333" lon="5.51358">
        <ele>1159</ele>
        <time>2017-06-11T10:41:01.000Z</time>
      </trkpt>
      <trkpt lat="45.15326" lon="5.51355">
        <ele>1160</ele>
        <time>2017-06-11T10:41:02.000Z</time>
      </trkpt>
      <trkpt lat="45.1532" lon="5.51352">
        <ele>1160</ele>
        <time>2017-06-11T10:41:03.000Z</time>
      </trkpt>
      <trkpt lat="45.15314" lon="5.51348">
        <ele>1159</ele>
        <time>2017-06-11T10:41:04.000Z</time>
      </trkpt>
      <trkpt lat="45.15308" lon="5.51343">
        <ele>1159</ele>
        <time>2017-06-11T10:41:05.000Z</time>
      </trkpt>
      <trkpt lat="45.15262" lon="5.51305">
        <ele>1166</ele>
        <time>2017-06-11T10:41:14.000Z</time>
      </trkpt>
      <trkpt lat="45.15251" lon="5.51297">
        <ele>1166</ele>
        <time>2017-06-11T10:41:17.000Z</time>
      </trkpt>
      <trkpt lat="45.15247" lon="5.51294">
        <ele>1164</ele>
        <time>2017-06-11T10:41:18.000Z</time>
      </trkpt>
      <trkpt lat="45.15236" lon="5.51285">
        <ele>1165</ele>
        <time>2017-06-11T10:41:20.000Z</time>
      </trkpt>
      <trkpt lat="45.15226" lon="5.51276">
        <ele>1165</ele>
        <time>2017-06-11T10:41:22.000Z</time>
      </trkpt>
      <trkpt lat="45.15221" lon="5.51273">
        <ele>1165</ele>
        <time>2017-06-11T10:41:27.000Z</time>
      </trkpt>
      <trkpt lat="45.15228" lon="5.51286">
        <ele>1164</ele>
        <time>2017-06-11T10:41:33.000Z</time>
      </trkpt>
      <trkpt lat="45.15231" lon="5.51299">
        <ele>1163</ele>
        <time>2017-06-11T10:41:35.000Z</time>
      </trkpt>
      <trkpt lat="45.15233" lon="5.51306">
        <ele>1163</ele>
        <time>2017-06-11T10:41:36.000Z</time>
      </trkpt>
      <trkpt lat="45.15241" lon="5.5135">
        <ele>1154</ele>
        <time>2017-06-11T10:41:41.000Z</time>
      </trkpt>
      <trkpt lat="45.15242" lon="5.51361">
        <ele>1153</ele>
        <time>2017-06-11T10:41:42.000Z</time>
      </trkpt>
      <trkpt lat="45.15244" lon="5.51372">
        <ele>1152</ele>
        <time>2017-06-11T10:41:43.000Z</time>
      </trkpt>
      <trkpt lat="45.15245" lon="5.51394">
        <ele>1149</ele>
        <time>2017-06-11T10:41:45.000Z</time>
      </trkpt>
      <trkpt lat="45.15243" lon="5.51405">
        <ele>1147</ele>
        <time>2017-06-11T10:41:46.000Z</time>
      </trkpt>
      <trkpt lat="45.15241" lon="5.51414">
        <ele>1146</ele>
        <time>2017-06-11T10:41:47.000Z</time>
      </trkpt>
      <trkpt lat="45.15237" lon="5.51424">
        <ele>1142</ele>
        <time>2017-06-11T10:41:48.000Z</time>
      </trkpt>
      <trkpt lat="45.15232" lon="5.51433">
        <ele>1141</ele>
        <time>2017-06-11T10:41:49.000Z</time>
      </trkpt>
      <trkpt lat="45.15226" lon="5.51441">
        <ele>1140</ele>
        <time>2017-06-11T10:41:50.000Z</time>
      </trkpt>
      <trkpt lat="45.1522" lon="5.51447">
        <ele>1140</ele>
        <time>2017-06-11T10:41:51.000Z</time>
      </trkpt>
      <trkpt lat="45.15205" lon="5.51461">
        <ele>1139</ele>
        <time>2017-06-11T10:41:54.000Z</time>
      </trkpt>
      <trkpt lat="45.15201" lon="5.51467">
        <ele>1139</ele>
        <time>2017-06-11T10:41:55.000Z</time>
      </trkpt>
      <trkpt lat="45.15198" lon="5.51473">
        <ele>1139</ele>
        <time>2017-06-11T10:41:56.000Z</time>
      </trkpt>
      <trkpt lat="45.15191" lon="5.51489">
        <ele>1138</ele>
        <time>2017-06-11T10:41:58.000Z</time>
      </trkpt>
      <trkpt lat="45.15188" lon="5.51497">
        <ele>1137</ele>
        <time>2017-06-11T10:41:59.000Z</time>
      </trkpt>
      <trkpt lat="45.15182" lon="5.51518">
        <ele>1130</ele>
        <time>2017-06-11T10:42:01.000Z</time>
      </trkpt>
      <trkpt lat="45.15181" lon="5.51529">
        <ele>1128</ele>
        <time>2017-06-11T10:42:02.000Z</time>
      </trkpt>
      <trkpt lat="45.1518" lon="5.5154">
        <ele>1127</ele>
        <time>2017-06-11T10:42:03.000Z</time>
      </trkpt>
      <trkpt lat="45.1518" lon="5.51549">
        <ele>1126</ele>
        <time>2017-06-11T10:42:04.000Z</time>
      </trkpt>
      <trkpt lat="45.15179" lon="5.51557">
        <ele>1125</ele>
        <time>2017-06-11T10:42:05.000Z</time>
      </trkpt>
      <trkpt lat="45.15177" lon="5.51564">
        <ele>1125</ele>
        <time>2017-06-11T10:42:06.000Z</time>
      </trkpt>
      <trkpt lat="45.15172" lon="5.51569">
        <ele>1124</ele>
        <time>2017-06-11T10:42:07.000Z</time>
      </trkpt>
      <trkpt lat="45.15166" lon="5.51574">
        <ele>1124</ele>
        <time>2017-06-11T10:42:08.000Z</time>
      </trkpt>
      <trkpt lat="45.15162" lon="5.51581">
        <ele>1123</ele>
        <time>2017-06-11T10:42:09.000Z</time>
      </trkpt>
      <trkpt lat="45.15158" lon="5.5159">
        <ele>1120</ele>
        <time>2017-06-11T10:42:10.000Z</time>
      </trkpt>
      <trkpt lat="45.15156" lon="5.51599">
        <ele>1119</ele>
        <time>2017-06-11T10:42:11.000Z</time>
      </trkpt>
      <trkpt lat="45.15149" lon="5.51619">
        <ele>1116</ele>
        <time>2017-06-11T10:42:13.000Z</time>
      </trkpt>
      <trkpt lat="45.15144" lon="5.51628">
        <ele>1116</ele>
        <time>2017-06-11T10:42:14.000Z</time>
      </trkpt>
      <trkpt lat="45.15121" lon="5.51661">
        <ele>1114</ele>
        <time>2017-06-11T10:42:18.000Z</time>
      </trkpt>
      <trkpt lat="45.15117" lon="5.51671">
        <ele>1107</ele>
        <time>2017-06-11T10:42:19.000Z</time>
      </trkpt>
      <trkpt lat="45.15113" lon="5.51679">
        <ele>1106</ele>
        <time>2017-06-11T10:42:20.000Z</time>
      </trkpt>
      <trkpt lat="45.1511" lon="5.51688">
        <ele>1106</ele>
        <time>2017-06-11T10:42:21.000Z</time>
      </trkpt>
      <trkpt lat="45.15107" lon="5.51696">
        <ele>1105</ele>
        <time>2017-06-11T10:42:22.000Z</time>
      </trkpt>
      <trkpt lat="45.15106" lon="5.51705">
        <ele>1105</ele>
        <time>2017-06-11T10:42:23.000Z</time>
      </trkpt>
      <trkpt lat="45.15104" lon="5.51712">
        <ele>1104</ele>
        <time>2017-06-11T10:42:24.000Z</time>
      </trkpt>
      <trkpt lat="45.15097" lon="5.51761">
        <ele>1096</ele>
        <time>2017-06-11T10:42:33.000Z</time>
      </trkpt>
      <trkpt lat="45.15091" lon="5.51779">
        <ele>1094</ele>
        <time>2017-06-11T10:42:38.000Z</time>
      </trkpt>
      <trkpt lat="45.15089" lon="5.51784">
        <ele>1094</ele>
        <time>2017-06-11T10:42:39.000Z</time>
      </trkpt>
      <trkpt lat="45.15074" lon="5.51819">
        <ele>1089</ele>
        <time>2017-06-11T10:42:49.000Z</time>
      </trkpt>
      <trkpt lat="45.15072" lon="5.51823">
        <ele>1089</ele>
        <time>2017-06-11T10:42:50.000Z</time>
      </trkpt>
      <trkpt lat="45.15066" lon="5.51835">
        <ele>1084</ele>
        <time>2017-06-11T10:42:52.000Z</time>
      </trkpt>
      <trkpt lat="45.15061" lon="5.51838">
        <ele>1082</ele>
        <time>2017-06-11T10:42:53.000Z</time>
      </trkpt>
      <trkpt lat="45.15055" lon="5.5184">
        <ele>1081</ele>
        <time>2017-06-11T10:42:54.000Z</time>
      </trkpt>
      <trkpt lat="45.15043" lon="5.51843">
        <ele>1079</ele>
        <time>2017-06-11T10:42:56.000Z</time>
      </trkpt>
      <trkpt lat="45.15037" lon="5.51845">
        <ele>1079</ele>
        <time>2017-06-11T10:42:57.000Z</time>
      </trkpt>
      <trkpt lat="45.15032" lon="5.51849">
        <ele>1078</ele>
        <time>2017-06-11T10:42:58.000Z</time>
      </trkpt>
      <trkpt lat="45.15027" lon="5.51851">
        <ele>1077</ele>
        <time>2017-06-11T10:42:59.000Z</time>
      </trkpt>
      <trkpt lat="45.15021" lon="5.51854">
        <ele>1077</ele>
        <time>2017-06-11T10:43:00.000Z</time>
      </trkpt>
      <trkpt lat="45.15016" lon="5.51858">
        <ele>1077</ele>
        <time>2017-06-11T10:43:01.000Z</time>
      </trkpt>
      <trkpt lat="45.15013" lon="5.51863">
        <ele>1076</ele>
        <time>2017-06-11T10:43:02.000Z</time>
      </trkpt>
      <trkpt lat="45.15012" lon="5.5187">
        <ele>1076</ele>
        <time>2017-06-11T10:43:03.000Z</time>
      </trkpt>
      <trkpt lat="45.15013" lon="5.51878">
        <ele>1075</ele>
        <time>2017-06-11T10:43:04.000Z</time>
      </trkpt>
      <trkpt lat="45.15014" lon="5.51895">
        <ele>1074</ele>
        <time>2017-06-11T10:43:06.000Z</time>
      </trkpt>
      <trkpt lat="45.15015" lon="5.51902">
        <ele>1073</ele>
        <time>2017-06-11T10:43:07.000Z</time>
      </trkpt>
      <trkpt lat="45.15019" lon="5.51919">
        <ele>1066</ele>
        <time>2017-06-11T10:43:14.000Z</time>
      </trkpt>
      <trkpt lat="45.15022" lon="5.51926">
        <ele>1065</ele>
        <time>2017-06-11T10:43:27.000Z</time>
      </trkpt>
      <trkpt lat="45.15028" lon="5.51951">
        <ele>1063</ele>
        <time>2017-06-11T10:43:36.000Z</time>
      </trkpt>
      <trkpt lat="45.15035" lon="5.51971">
        <ele>1062</ele>
        <time>2017-06-11T10:43:43.000Z</time>
      </trkpt>
      <trkpt lat="45.15035" lon="5.51974">
        <ele>1061</ele>
        <time>2017-06-11T10:43:44.000Z</time>
      </trkpt>
      <trkpt lat="45.15035" lon="5.51976">
        <ele>1061</ele>
        <time>2017-06-11T10:43:45.000Z</time>
      </trkpt>
      <trkpt lat="45.15036" lon="5.5198">
        <ele>1061</ele>
        <time>2017-06-11T10:43:46.000Z</time>
      </trkpt>
      <trkpt lat="45.15036" lon="5.51984">
        <ele>1060</ele>
        <time>2017-06-11T10:43:47.000Z</time>
      </trkpt>
      <trkpt lat="45.15037" lon="5.51989">
        <ele>1060</ele>
        <time>2017-06-11T10:43:48.000Z</time>
      </trkpt>
      <trkpt lat="45.15039" lon="5.51994">
        <ele>1060</ele>
        <time>2017-06-11T10:43:49.000Z</time>
      </trkpt>
      <trkpt lat="45.15042" lon="5.51999">
        <ele>1060</ele>
        <time>2017-06-11T10:43:50.000Z</time>
      </trkpt>
      <trkpt lat="45.15044" lon="5.52005">
        <ele>1049</ele>
        <time>2017-06-11T10:43:51.000Z</time>
      </trkpt>
      <trkpt lat="45.15048" lon="5.5201">
        <ele>1049</ele>
        <time>2017-06-11T10:43:52.000Z</time>
      </trkpt>
      <trkpt lat="45.15051" lon="5.52014">
        <ele>1049</ele>
        <time>2017-06-11T10:43:53.000Z</time>
      </trkpt>
      <trkpt lat="45.15054" lon="5.52019">
        <ele>1049</ele>
        <time>2017-06-11T10:43:54.000Z</time>
      </trkpt>
      <trkpt lat="45.15057" lon="5.52026">
        <ele>1048</ele>
        <time>2017-06-11T10:43:55.000Z</time>
      </trkpt>
      <trkpt lat="45.1506" lon="5.52034">
        <ele>1048</ele>
        <time>2017-06-11T10:43:56.000Z</time>
      </trkpt>
      <trkpt lat="45.1508" lon="5.52075">
        <ele>1042</ele>
        <time>2017-06-11T10:44:01.000Z</time>
      </trkpt>
      <trkpt lat="45.15086" lon="5.5208">
        <ele>1041</ele>
        <time>2017-06-11T10:44:02.000Z</time>
      </trkpt>
      <trkpt lat="45.15096" lon="5.52089">
        <ele>1035</ele>
        <time>2017-06-11T10:44:04.000Z</time>
      </trkpt>
      <trkpt lat="45.15102" lon="5.52092">
        <ele>1034</ele>
        <time>2017-06-11T10:44:05.000Z</time>
      </trkpt>
      <trkpt lat="45.15108" lon="5.52097">
        <ele>1032</ele>
        <time>2017-06-11T10:44:06.000Z</time>
      </trkpt>
      <trkpt lat="45.15113" lon="5.52102">
        <ele>1032</ele>
        <time>2017-06-11T10:44:07.000Z</time>
      </trkpt>
      <trkpt lat="45.15118" lon="5.52107">
        <ele>1031</ele>
        <time>2017-06-11T10:44:08.000Z</time>
      </trkpt>
      <trkpt lat="45.1512" lon="5.52112">
        <ele>1030</ele>
        <time>2017-06-11T10:44:09.000Z</time>
      </trkpt>
      <trkpt lat="45.15122" lon="5.52118">
        <ele>1029</ele>
        <time>2017-06-11T10:44:10.000Z</time>
      </trkpt>
      <trkpt lat="45.15121" lon="5.52123">
        <ele>1029</ele>
        <time>2017-06-11T10:44:11.000Z</time>
      </trkpt>
      <trkpt lat="45.15121" lon="5.52128">
        <ele>1028</ele>
        <time>2017-06-11T10:44:12.000Z</time>
      </trkpt>
      <trkpt lat="45.15117" lon="5.5215">
        <ele>1025</ele>
        <time>2017-06-11T10:44:16.000Z</time>
      </trkpt>
      <trkpt lat="45.15112" lon="5.52169">
        <ele>1011</ele>
        <time>2017-06-11T10:44:21.000Z</time>
      </trkpt>
      <trkpt lat="45.15111" lon="5.52173">
        <ele>1011</ele>
        <time>2017-06-11T10:44:22.000Z</time>
      </trkpt>
      <trkpt lat="45.15109" lon="5.52179">
        <ele>1011</ele>
        <time>2017-06-11T10:44:23.000Z</time>
      </trkpt>
      <trkpt lat="45.15107" lon="5.52184">
        <ele>1010</ele>
        <time>2017-06-11T10:44:24.000Z</time>
      </trkpt>
      <trkpt lat="45.15105" lon="5.52191">
        <ele>1010</ele>
        <time>2017-06-11T10:44:25.000Z</time>
      </trkpt>
      <trkpt lat="45.15098" lon="5.52205">
        <ele>1008</ele>
        <time>2017-06-11T10:44:27.000Z</time>
      </trkpt>
      <trkpt lat="45.15094" lon="5.52213">
        <ele>1007</ele>
        <time>2017-06-11T10:44:28.000Z</time>
      </trkpt>
      <trkpt lat="45.15088" lon="5.52219">
        <ele>1006</ele>
        <time>2017-06-11T10:44:29.000Z</time>
      </trkpt>
      <trkpt lat="45.1507" lon="5.5224">
        <ele>1001</ele>
        <time>2017-06-11T10:44:32.000Z</time>
      </trkpt>
      <trkpt lat="45.15066" lon="5.52246">
        <ele>1001</ele>
        <time>2017-06-11T10:44:33.000Z</time>
      </trkpt>
      <trkpt lat="45.15063" lon="5.52252">
        <ele>998</ele>
        <time>2017-06-11T10:44:34.000Z</time>
      </trkpt>
      <trkpt lat="45.15054" lon="5.52272">
        <ele>998</ele>
        <time>2017-06-11T10:44:42.000Z</time>
      </trkpt>
      <trkpt lat="45.15051" lon="5.52276">
        <ele>997</ele>
        <time>2017-06-11T10:44:56.000Z</time>
      </trkpt>
      <trkpt lat="45.15095" lon="5.52316">
        <ele>999</ele>
      </trkpt>
      <trkpt lat="45.15016" lon="5.52582">
        <ele>996</ele>
      </trkpt>
      <trkpt lat="45.1498" lon="5.52629">
        <ele>1004</ele>
      </trkpt>
      <trkpt lat="45.14901" lon="5.52642">
        <ele>1003</ele>
      </trkpt>
      <trkpt lat="45.14841" lon="5.52672">
        <ele>1004</ele>
      </trkpt>
      <trkpt lat="45.14629" lon="5.52642">
        <ele>1004</ele>
      </trkpt>
      <trkpt lat="45.14381" lon="5.52638">
        <ele>998</ele>
      </trkpt>
      <trkpt lat="45.14369" lon="5.52809">
        <ele>1016</ele>
      </trkpt>
      <trkpt lat="45.14423" lon="5.52981">
        <ele>1039</ele>
      </trkpt>
      <trkpt lat="45.14443" lon="5.53281">
        <ele>1028</ele>
      </trkpt>
      <trkpt lat="45.14325" lon="5.5359">
        <ele>1007</ele>
      </trkpt>
      <trkpt lat="45.14195" lon="5.53723">
        <ele>998</ele>
      </trkpt>
      <trkpt lat="45.14286" lon="5.53951">
        <ele>1004</ele>
      </trkpt>
      <trkpt lat="45.14298" lon="5.54165">
        <ele>1006</ele>
      </trkpt>
      <trkpt lat="45.14395" lon="5.54302">
        <ele>1001</ele>
      </trkpt>
      <trkpt lat="45.14328" lon="5.54581">
        <ele>1006</ele>
      </trkpt>
      <trkpt lat="45.14101" lon="5.54599">
        <ele>1018</ele>
      </trkpt>
      <trkpt lat="45.14026" lon="5.54538">
        <ele>1025</ele>
      </trkpt>
      <trkpt lat="45.13934" lon="5.54503">
        <ele>1028</ele>
        <time>2008-05-04T12:49:45Z</time>
      </trkpt>
      <trkpt lat="45.13942" lon="5.54538">
        <ele>1028</ele>
        <time>2008-05-04T12:50:01Z</time>
      </trkpt>
      <trkpt lat="45.13953" lon="5.5458">
        <ele>1028</ele>
        <time>2008-05-04T12:50:19Z</time>
      </trkpt>
      <trkpt lat="45.13961" lon="5.54614">
        <ele>1031</ele>
        <time>2008-05-04T12:50:34Z</time>
      </trkpt>
      <trkpt lat="45.13949" lon="5.54651">
        <ele>1033</ele>
        <time>2008-05-04T12:50:51Z</time>
      </trkpt>
      <trkpt lat="45.13941" lon="5.54662">
        <ele>1033</ele>
        <time>2008-05-04T12:50:58Z</time>
      </trkpt>
      <trkpt lat="45.13935" lon="5.54681">
        <ele>1038</ele>
        <time>2008-05-04T12:51:12Z</time>
      </trkpt>
      <trkpt lat="45.13936" lon="5.54683">
        <ele>1038</ele>
        <time>2008-05-04T12:51:28Z</time>
      </trkpt>
      <trkpt lat="45.13938" lon="5.54685">
        <ele>1038</ele>
        <time>2008-05-04T12:52:34Z</time>
      </trkpt>
      <trkpt lat="45.13936" lon="5.54688">
        <ele>1038</ele>
        <time>2008-05-04T12:53:08Z</time>
      </trkpt>
      <trkpt lat="45.13936" lon="5.54687">
        <ele>1038</ele>
        <time>2008-05-04T12:54:37Z</time>
      </trkpt>
      <trkpt lat="45.13934" lon="5.54687">
        <ele>1038</ele>
        <time>2008-05-04T12:54:52Z</time>
      </trkpt>
      <trkpt lat="45.13935" lon="5.54689">
        <ele>1038</ele>
        <time>2008-05-04T12:55:10Z</time>
      </trkpt>
      <trkpt lat="45.13934" lon="5.5469">
        <ele>1038</ele>
        <time>2008-05-04T12:55:36Z</time>
      </trkpt>
      <trkpt lat="45.13934" lon="5.5469">
        <ele>1038</ele>
        <time>2008-05-04T12:56:12Z</time>
      </trkpt>
      <trkpt lat="45.13933" lon="5.5469">
        <ele>1038</ele>
        <time>2008-05-04T12:56:37Z</time>
      </trkpt>
      <trkpt lat="45.13937" lon="5.54689">
        <ele>1038</ele>
        <time>2008-05-04T12:57:00Z</time>
      </trkpt>
      <trkpt lat="45.13939" lon="5.54687">
        <ele>1038</ele>
        <time>2008-05-04T12:57:15Z</time>
      </trkpt>
      <trkpt lat="45.13938" lon="5.54688">
        <ele>1038</ele>
        <time>2008-05-04T12:57:22Z</time>
      </trkpt>
      <trkpt lat="45.13935" lon="5.54693">
        <ele>1038</ele>
        <time>2008-05-04T12:57:26Z</time>
      </trkpt>
      <trkpt lat="45.13931" lon="5.54699">
        <ele>1039</ele>
        <time>2008-05-04T12:57:30Z</time>
      </trkpt>
      <trkpt lat="45.13929" lon="5.54703">
        <ele>1039</ele>
        <time>2008-05-04T12:57:33Z</time>
      </trkpt>
      <trkpt lat="45.13925" lon="5.54708">
        <ele>1039</ele>
        <time>2008-05-04T12:57:37Z</time>
      </trkpt>
      <trkpt lat="45.13899" lon="5.54734">
        <ele>1044</ele>
        <time>2008-05-04T12:57:57Z</time>
      </trkpt>
      <trkpt lat="45.13865" lon="5.5475">
        <ele>1046</ele>
        <time>2008-05-04T12:58:18Z</time>
      </trkpt>
      <trkpt lat="45.13841" lon="5.54753">
        <ele>1056</ele>
        <time>2008-05-04T12:58:36Z</time>
      </trkpt>
      <trkpt lat="45.1381" lon="5.54765">
        <ele>1060</ele>
        <time>2008-05-04T12:58:59Z</time>
      </trkpt>
      <trkpt lat="45.13791" lon="5.54776">
        <ele>1061</ele>
        <time>2008-05-04T12:59:16Z</time>
      </trkpt>
      <trkpt lat="45.13783" lon="5.54812">
        <ele>1066</ele>
        <time>2008-05-04T12:59:33Z</time>
      </trkpt>
      <trkpt lat="45.13764" lon="5.54839">
        <ele>1078</ele>
        <time>2008-05-04T12:59:52Z</time>
      </trkpt>
      <trkpt lat="45.13748" lon="5.54847">
        <ele>1079</ele>
        <time>2008-05-04T13:00:06Z</time>
      </trkpt>
      <trkpt lat="45.13731" lon="5.54857">
        <ele>1085</ele>
        <time>2008-05-04T13:00:21Z</time>
      </trkpt>
      <trkpt lat="45.13714" lon="5.54863">
        <ele>1087</ele>
        <time>2008-05-04T13:00:34Z</time>
      </trkpt>
      <trkpt lat="45.13707" lon="5.54865">
        <ele>1088</ele>
        <time>2008-05-04T13:00:40Z</time>
      </trkpt>
      <trkpt lat="45.13705" lon="5.5486">
        <ele>1087</ele>
        <time>2008-05-04T13:00:44Z</time>
      </trkpt>
      <trkpt lat="45.13701" lon="5.54858">
        <ele>1087</ele>
        <time>2008-05-04T13:00:47Z</time>
      </trkpt>
      <trkpt lat="45.13695" lon="5.54858">
        <ele>1087</ele>
        <time>2008-05-04T13:00:51Z</time>
      </trkpt>
      <trkpt lat="45.13676" lon="5.54853">
        <ele>1086</ele>
        <time>2008-05-04T13:01:05Z</time>
      </trkpt>
      <trkpt lat="45.1367" lon="5.54851">
        <ele>1086</ele>
        <time>2008-05-04T13:01:10Z</time>
      </trkpt>
      <trkpt lat="45.13659" lon="5.54847">
        <ele>1089</ele>
        <time>2008-05-04T13:01:20Z</time>
      </trkpt>
      <trkpt lat="45.13638" lon="5.54842">
        <ele>1092</ele>
        <time>2008-05-04T13:01:37Z</time>
      </trkpt>
      <trkpt lat="45.1362" lon="5.54842">
        <ele>1094</ele>
        <time>2008-05-04T13:01:52Z</time>
      </trkpt>
      <trkpt lat="45.13603" lon="5.54841">
        <ele>1094</ele>
        <time>2008-05-04T13:02:08Z</time>
      </trkpt>
      <trkpt lat="45.13577" lon="5.54845">
        <ele>1094</ele>
        <time>2008-05-04T13:02:27Z</time>
      </trkpt>
      <trkpt lat="45.13563" lon="5.54849">
        <ele>1096</ele>
        <time>2008-05-04T13:02:37Z</time>
      </trkpt>
      <trkpt lat="45.13546" lon="5.54859">
        <ele>1099</ele>
        <time>2008-05-04T13:02:51Z</time>
      </trkpt>
      <trkpt lat="45.13527" lon="5.54867">
        <ele>1099</ele>
        <time>2008-05-04T13:03:06Z</time>
      </trkpt>
      <trkpt lat="45.13511" lon="5.54876">
        <ele>1101</ele>
        <time>2008-05-04T13:03:19Z</time>
      </trkpt>
      <trkpt lat="45.13492" lon="5.54887">
        <ele>1100</ele>
        <time>2008-05-04T13:03:36Z</time>
      </trkpt>
      <trkpt lat="45.13476" lon="5.54899">
        <ele>1101</ele>
        <time>2008-05-04T13:03:54Z</time>
      </trkpt>
      <trkpt lat="45.13462" lon="5.54909">
        <ele>1100</ele>
        <time>2008-05-04T13:04:09Z</time>
      </trkpt>
      <trkpt lat="45.1346" lon="5.54915">
        <ele>1101</ele>
        <time>2008-05-04T13:04:26Z</time>
      </trkpt>
      <trkpt lat="45.13457" lon="5.54913">
        <ele>1100</ele>
        <time>2008-05-04T13:05:20Z</time>
      </trkpt>
      <trkpt lat="45.13454" lon="5.54921">
        <ele>1117</ele>
        <time>2008-05-04T13:06:08Z</time>
      </trkpt>
      <trkpt lat="45.1344" lon="5.54938">
        <ele>1117</ele>
        <time>2008-05-04T13:06:23Z</time>
      </trkpt>
      <trkpt lat="45.1343" lon="5.54947">
        <ele>1118</ele>
        <time>2008-05-04T13:06:32Z</time>
      </trkpt>
      <trkpt lat="45.13422" lon="5.5495">
        <ele>1118</ele>
        <time>2008-05-04T13:06:39Z</time>
      </trkpt>
      <trkpt lat="45.13405" lon="5.54962">
        <ele>1118</ele>
        <time>2008-05-04T13:06:55Z</time>
      </trkpt>
      <trkpt lat="45.13387" lon="5.54975">
        <ele>1119</ele>
        <time>2008-05-04T13:07:11Z</time>
      </trkpt>
      <trkpt lat="45.13378" lon="5.54977">
        <ele>1119</ele>
        <time>2008-05-04T13:07:19Z</time>
      </trkpt>
      <trkpt lat="45.13366" lon="5.54982">
        <ele>1120</ele>
        <time>2008-05-04T13:07:29Z</time>
      </trkpt>
      <trkpt lat="45.13354" lon="5.54986">
        <ele>1121</ele>
        <time>2008-05-04T13:07:42Z</time>
      </trkpt>
      <trkpt lat="45.13337" lon="5.5499">
        <ele>1125</ele>
        <time>2008-05-04T13:07:58Z</time>
      </trkpt>
      <trkpt lat="45.13324" lon="5.54992">
        <ele>1124</ele>
        <time>2008-05-04T13:08:12Z</time>
      </trkpt>
      <trkpt lat="45.13297" lon="5.55002">
        <ele>1140</ele>
        <time>2008-05-04T13:08:30Z</time>
      </trkpt>
      <trkpt lat="45.13279" lon="5.55004">
        <ele>1140</ele>
        <time>2008-05-04T13:08:45Z</time>
      </trkpt>
      <trkpt lat="45.13262" lon="5.55016">
        <ele>1140</ele>
        <time>2008-05-04T13:08:56Z</time>
      </trkpt>
      <trkpt lat="45.13252" lon="5.55022">
        <ele>1141</ele>
        <time>2008-05-04T13:09:04Z</time>
      </trkpt>
      <trkpt lat="45.13242" lon="5.55018">
        <ele>1146</ele>
        <time>2008-05-04T13:09:17Z</time>
      </trkpt>
      <trkpt lat="45.13238" lon="5.55017">
        <ele>1146</ele>
        <time>2008-05-04T13:09:20Z</time>
      </trkpt>
      <trkpt lat="45.13222" lon="5.55012">
        <ele>1149</ele>
        <time>2008-05-04T13:09:35Z</time>
      </trkpt>
      <trkpt lat="45.13222" lon="5.55012">
        <ele>1150</ele>
        <time>2008-05-04T13:09:36Z</time>
      </trkpt>
      <trkpt lat="45.13215" lon="5.55006">
        <ele>1151</ele>
        <time>2008-05-04T13:09:43Z</time>
      </trkpt>
      <trkpt lat="45.13211" lon="5.55004">
        <ele>1151</ele>
        <time>2008-05-04T13:09:47Z</time>
      </trkpt>
      <trkpt lat="45.13193" lon="5.5499">
        <ele>1137</ele>
        <time>2008-05-04T13:10:05Z</time>
      </trkpt>
      <trkpt lat="45.13179" lon="5.54974">
        <ele>1137</ele>
        <time>2008-05-04T13:10:22Z</time>
      </trkpt>
      <trkpt lat="45.13163" lon="5.54969">
        <ele>1145</ele>
        <time>2008-05-04T13:10:37Z</time>
      </trkpt>
      <trkpt lat="45.13157" lon="5.54963">
        <ele>1144</ele>
        <time>2008-05-04T13:10:46Z</time>
      </trkpt>
      <trkpt lat="45.1314" lon="5.54952">
        <ele>1143</ele>
        <time>2008-05-04T13:11:01Z</time>
      </trkpt>
      <trkpt lat="45.13123" lon="5.54947">
        <ele>1143</ele>
        <time>2008-05-04T13:11:17Z</time>
      </trkpt>
      <trkpt lat="45.13104" lon="5.54949">
        <ele>1144</ele>
        <time>2008-05-04T13:11:32Z</time>
      </trkpt>
      <trkpt lat="45.13089" lon="5.54947">
        <ele>1144</ele>
        <time>2008-05-04T13:11:45Z</time>
      </trkpt>
      <trkpt lat="45.13076" lon="5.54959">
        <ele>1154</ele>
        <time>2008-05-04T13:12:00Z</time>
      </trkpt>
      <trkpt lat="45.13062" lon="5.54979">
        <ele>1158</ele>
        <time>2008-05-04T13:12:19Z</time>
      </trkpt>
      <trkpt lat="45.1305" lon="5.5499">
        <ele>1159</ele>
        <time>2008-05-04T13:12:36Z</time>
      </trkpt>
      <trkpt lat="45.13049" lon="5.5499">
        <ele>1160</ele>
        <time>2008-05-04T13:12:37Z</time>
      </trkpt>
      <trkpt lat="45.13032" lon="5.54991">
        <ele>1161</ele>
        <time>2008-05-04T13:12:53Z</time>
      </trkpt>
      <trkpt lat="45.13023" lon="5.54994">
        <ele>1164</ele>
        <time>2008-05-04T13:13:09Z</time>
      </trkpt>
      <trkpt lat="45.13028" lon="5.54995">
        <ele>1163</ele>
        <time>2008-05-04T13:13:25Z</time>
      </trkpt>
      <trkpt lat="45.13028" lon="5.54994">
        <ele>1162</ele>
        <time>2008-05-04T13:13:27Z</time>
      </trkpt>
      <trkpt lat="45.13015" lon="5.55001">
        <ele>1179</ele>
        <time>2008-05-04T13:14:44Z</time>
      </trkpt>
      <trkpt lat="45.13014" lon="5.55001">
        <ele>1178</ele>
        <time>2008-05-04T13:14:46Z</time>
      </trkpt>
      <trkpt lat="45.13001" lon="5.54993">
        <ele>1170</ele>
        <time>2008-05-04T13:15:00Z</time>
      </trkpt>
      <trkpt lat="45.12991" lon="5.54986">
        <ele>1173</ele>
        <time>2008-05-04T13:15:10Z</time>
      </trkpt>
      <trkpt lat="45.1298" lon="5.54975">
        <ele>1172</ele>
        <time>2008-05-04T13:15:24Z</time>
      </trkpt>
      <trkpt lat="45.12966" lon="5.54964">
        <ele>1172</ele>
        <time>2008-05-04T13:15:41Z</time>
      </trkpt>
      <trkpt lat="45.12951" lon="5.54955">
        <ele>1172</ele>
        <time>2008-05-04T13:15:58Z</time>
      </trkpt>
      <trkpt lat="45.12936" lon="5.54949">
        <ele>1173</ele>
        <time>2008-05-04T13:16:12Z</time>
      </trkpt>
      <trkpt lat="45.12917" lon="5.54939">
        <ele>1172</ele>
        <time>2008-05-04T13:16:30Z</time>
      </trkpt>
      <trkpt lat="45.12909" lon="5.54934">
        <ele>1180</ele>
        <time>2008-05-04T13:16:42Z</time>
      </trkpt>
      <trkpt lat="45.12892" lon="5.54928">
        <ele>1183</ele>
        <time>2008-05-04T13:17:00Z</time>
      </trkpt>
      <trkpt lat="45.12883" lon="5.54926">
        <ele>1184</ele>
        <time>2008-05-04T13:17:15Z</time>
      </trkpt>
      <trkpt lat="45.12892" lon="5.54907">
        <ele>1164</ele>
        <time>2008-05-04T13:19:28Z</time>
      </trkpt>
      <trkpt lat="45.12885" lon="5.54932">
        <ele>1184</ele>
        <time>2008-05-04T13:20:13Z</time>
      </trkpt>
      <trkpt lat="45.12898" lon="5.5492">
        <ele>1180</ele>
        <time>2008-05-04T13:21:02Z</time>
      </trkpt>
      <trkpt lat="45.129" lon="5.54928">
        <ele>1181</ele>
        <time>2008-05-04T13:21:53Z</time>
      </trkpt>
      <trkpt lat="45.1289" lon="5.54935">
        <ele>1184</ele>
        <time>2008-05-04T13:22:25Z</time>
      </trkpt>
      <trkpt lat="45.1289" lon="5.54935">
        <ele>1184</ele>
        <time>2008-05-04T13:22:27Z</time>
      </trkpt>
      <trkpt lat="45.12889" lon="5.54932">
        <ele>1184</ele>
        <time>2008-05-04T13:23:22Z</time>
      </trkpt>
      <trkpt lat="45.12881" lon="5.54933">
        <ele>1185</ele>
        <time>2008-05-04T13:26:10Z</time>
      </trkpt>
      <trkpt lat="45.12889" lon="5.54929">
        <ele>1183</ele>
        <time>2008-05-04T13:26:24Z</time>
      </trkpt>
      <trkpt lat="45.12893" lon="5.54916">
        <ele>1165</ele>
        <time>2008-05-04T13:28:10Z</time>
      </trkpt>
      <trkpt lat="45.12895" lon="5.54918">
        <ele>1181</ele>
        <time>2008-05-04T13:28:36Z</time>
      </trkpt>
      <trkpt lat="45.12887" lon="5.54925">
        <ele>1183</ele>
        <time>2008-05-04T13:29:49Z</time>
      </trkpt>
      <trkpt lat="45.12899" lon="5.54907">
        <ele>1164</ele>
        <time>2008-05-04T13:30:21Z</time>
      </trkpt>
      <trkpt lat="45.12882" lon="5.54913">
        <ele>1165</ele>
        <time>2008-05-04T13:30:53Z</time>
      </trkpt>
      <trkpt lat="45.12877" lon="5.54918">
        <ele>1184</ele>
        <time>2008-05-04T13:31:23Z</time>
      </trkpt>
      <trkpt lat="45.12885" lon="5.54929">
        <ele>1184</ele>
        <time>2008-05-04T13:31:54Z</time>
      </trkpt>
      <trkpt lat="45.12895" lon="5.54913">
        <ele>1165</ele>
        <time>2008-05-04T13:34:12Z</time>
      </trkpt>
      <trkpt lat="45.12892" lon="5.54911">
        <ele>1164</ele>
        <time>2008-05-04T13:34:43Z</time>
      </trkpt>
      <trkpt lat="45.12871" lon="5.5492">
        <ele>1185</ele>
        <time>2008-05-04T13:35:03Z</time>
      </trkpt>
      <trkpt lat="45.12856" lon="5.54922">
        <ele>1186</ele>
        <time>2008-05-04T13:35:17Z</time>
      </trkpt>
      <trkpt lat="45.12837" lon="5.54926">
        <ele>1185</ele>
        <time>2008-05-04T13:35:34Z</time>
      </trkpt>
      <trkpt lat="45.12825" lon="5.54929">
        <ele>1191</ele>
        <time>2008-05-04T13:35:49Z</time>
      </trkpt>
      <trkpt lat="45.12819" lon="5.54932">
        <ele>1193</ele>
        <time>2008-05-04T13:35:54Z</time>
      </trkpt>
      <trkpt lat="45.12805" lon="5.54937">
        <ele>1196</ele>
        <time>2008-05-04T13:36:08Z</time>
      </trkpt>
      <trkpt lat="45.12792" lon="5.54947">
        <ele>1199</ele>
        <time>2008-05-04T13:36:22Z</time>
      </trkpt>
      <trkpt lat="45.12782" lon="5.54959">
        <ele>1201</ele>
        <time>2008-05-04T13:36:38Z</time>
      </trkpt>
      <trkpt lat="45.12771" lon="5.54969">
        <ele>1203</ele>
        <time>2008-05-04T13:36:55Z</time>
      </trkpt>
      <trkpt lat="45.1276" lon="5.54982">
        <ele>1207</ele>
        <time>2008-05-04T13:37:12Z</time>
      </trkpt>
      <trkpt lat="45.12756" lon="5.54982">
        <ele>1207</ele>
        <time>2008-05-04T13:37:18Z</time>
      </trkpt>
      <trkpt lat="45.12752" lon="5.54975">
        <ele>1206</ele>
        <time>2008-05-04T13:37:34Z</time>
      </trkpt>
      <trkpt lat="45.12749" lon="5.54965">
        <ele>1210</ele>
        <time>2008-05-04T13:37:45Z</time>
      </trkpt>
      <trkpt lat="45.12739" lon="5.54956">
        <ele>1209</ele>
        <time>2008-05-04T13:37:57Z</time>
      </trkpt>
      <trkpt lat="45.12719" lon="5.54957">
        <ele>1211</ele>
        <time>2008-05-04T13:38:14Z</time>
      </trkpt>
      <trkpt lat="45.12692" lon="5.54959">
        <ele>1214</ele>
        <time>2008-05-04T13:38:35Z</time>
      </trkpt>
      <trkpt lat="45.12675" lon="5.54962">
        <ele>1216</ele>
        <time>2008-05-04T13:38:51Z</time>
      </trkpt>
      <trkpt lat="45.12655" lon="5.54968">
        <ele>1223</ele>
        <time>2008-05-04T13:39:08Z</time>
      </trkpt>
      <trkpt lat="45.1264" lon="5.54973">
        <ele>1224</ele>
        <time>2008-05-04T13:39:22Z</time>
      </trkpt>
      <trkpt lat="45.12623" lon="5.54977">
        <ele>1224</ele>
        <time>2008-05-04T13:39:37Z</time>
      </trkpt>
      <trkpt lat="45.12609" lon="5.5498">
        <ele>1226</ele>
        <time>2008-05-04T13:39:52Z</time>
      </trkpt>
      <trkpt lat="45.1259" lon="5.54988">
        <ele>1229</ele>
        <time>2008-05-04T13:40:09Z</time>
      </trkpt>
      <trkpt lat="45.12572" lon="5.55009">
        <ele>1238</ele>
        <time>2008-05-04T13:40:27Z</time>
      </trkpt>
      <trkpt lat="45.12556" lon="5.55031">
        <ele>1241</ele>
        <time>2008-05-04T13:40:45Z</time>
      </trkpt>
      <trkpt lat="45.12542" lon="5.55048">
        <ele>1242</ele>
        <time>2008-05-04T13:41:02Z</time>
      </trkpt>
      <trkpt lat="45.12539" lon="5.55055">
        <ele>1243</ele>
        <time>2008-05-04T13:41:06Z</time>
      </trkpt>
      <trkpt lat="45.12522" lon="5.55072">
        <ele>1244</ele>
        <time>2008-05-04T13:41:24Z</time>
      </trkpt>
      <trkpt lat="45.12512" lon="5.55091">
        <ele>1248</ele>
        <time>2008-05-04T13:41:38Z</time>
      </trkpt>
      <trkpt lat="45.12498" lon="5.55127">
        <ele>1250</ele>
        <time>2008-05-04T13:41:58Z</time>
      </trkpt>
      <trkpt lat="45.12495" lon="5.55146">
        <ele>1250</ele>
        <time>2008-05-04T13:42:07Z</time>
      </trkpt>
      <trkpt lat="45.12488" lon="5.55151">
        <ele>1250</ele>
        <time>2008-05-04T13:42:13Z</time>
      </trkpt>
      <trkpt lat="45.12491" lon="5.55166">
        <ele>1250</ele>
        <time>2008-05-04T13:42:23Z</time>
      </trkpt>
      <trkpt lat="45.12498" lon="5.55172">
        <ele>1249</ele>
        <time>2008-05-04T13:42:28Z</time>
      </trkpt>
      <trkpt lat="45.125" lon="5.5518">
        <ele>1252</ele>
        <time>2008-05-04T13:42:32Z</time>
      </trkpt>
      <trkpt lat="45.12504" lon="5.5518">
        <ele>1252</ele>
        <time>2008-05-04T13:42:37Z</time>
      </trkpt>
      <trkpt lat="45.12495" lon="5.55166">
        <ele>1250</ele>
        <time>2008-05-04T13:42:44Z</time>
      </trkpt>
      <trkpt lat="45.12486" lon="5.55159">
        <ele>1250</ele>
        <time>2008-05-04T13:42:53Z</time>
      </trkpt>
      <trkpt lat="45.12486" lon="5.55158">
        <ele>1250</ele>
        <time>2008-05-04T13:43:00Z</time>
      </trkpt>
      <trkpt lat="45.12482" lon="5.55171">
        <ele>1250</ele>
        <time>2008-05-04T13:43:09Z</time>
      </trkpt>
      <trkpt lat="45.12482" lon="5.55193">
        <ele>1250</ele>
        <time>2008-05-04T13:43:18Z</time>
      </trkpt>
      <trkpt lat="45.12482" lon="5.55199">
        <ele>1250</ele>
        <time>2008-05-04T13:43:27Z</time>
      </trkpt>
      <trkpt lat="45.12482" lon="5.55199">
        <ele>1250</ele>
        <time>2008-05-04T13:43:29Z</time>
      </trkpt>
      <trkpt lat="45.12482" lon="5.55199">
        <ele>1250</ele>
        <time>2008-05-04T13:43:30Z</time>
      </trkpt>
      <trkpt lat="45.12482" lon="5.55199">
        <ele>1250</ele>
        <time>2008-05-04T13:43:32Z</time>
      </trkpt>
      <trkpt lat="45.12483" lon="5.55199">
        <ele>1250</ele>
        <time>2008-05-04T13:43:35Z</time>
      </trkpt>
      <trkpt lat="45.12482" lon="5.55198">
        <ele>1250</ele>
        <time>2008-05-04T13:44:04Z</time>
      </trkpt>
      <trkpt lat="45.12482" lon="5.55198">
        <ele>1250</ele>
        <time>2008-05-04T13:44:31Z</time>
      </trkpt>
      <trkpt lat="45.12487" lon="5.552">
        <ele>1250</ele>
        <time>2008-05-04T13:44:51Z</time>
      </trkpt>
      <trkpt lat="45.12492" lon="5.55186">
        <ele>1250</ele>
        <time>2008-05-04T13:44:59Z</time>
      </trkpt>
      <trkpt lat="45.12492" lon="5.55173">
        <ele>1250</ele>
        <time>2008-05-04T13:45:08Z</time>
      </trkpt>
      <trkpt lat="45.12492" lon="5.5517">
        <ele>1250</ele>
        <time>2008-05-04T13:45:16Z</time>
      </trkpt>
      <trkpt lat="45.12481" lon="5.55098">
        <ele>1250</ele>
        <time>2008-05-04T13:45:31Z</time>
      </trkpt>
      <trkpt lat="45.12476" lon="5.55054">
        <ele>1248</ele>
        <time>2008-05-04T13:45:44Z</time>
      </trkpt>
      <trkpt lat="45.12463" lon="5.55009">
        <ele>1247</ele>
        <time>2008-05-04T13:45:57Z</time>
      </trkpt>
      <trkpt lat="45.12422" lon="5.54983">
        <ele>1244</ele>
        <time>2008-05-04T13:46:11Z</time>
      </trkpt>
      <trkpt lat="45.12362" lon="5.54954">
        <ele>1247</ele>
        <time>2008-05-04T13:46:28Z</time>
      </trkpt>
      <trkpt lat="45.12297" lon="5.54928">
        <ele>1254</ele>
        <time>2008-05-04T13:46:46Z</time>
      </trkpt>
      <trkpt lat="45.12243" lon="5.54903">
        <ele>1253</ele>
        <time>2008-05-04T13:47:02Z</time>
      </trkpt>
      <trkpt lat="45.1221" lon="5.54887">
        <ele>1252</ele>
        <time>2008-05-04T13:47:15Z</time>
      </trkpt>
      <trkpt lat="45.12172" lon="5.54865">
        <ele>1252</ele>
        <time>2008-05-04T13:47:31Z</time>
      </trkpt>
      <trkpt lat="45.12118" lon="5.54845">
        <ele>1256</ele>
        <time>2008-05-04T13:47:52Z</time>
      </trkpt>
      <trkpt lat="45.12069" lon="5.54837">
        <ele>1255</ele>
        <time>2008-05-04T13:48:10Z</time>
      </trkpt>
      <trkpt lat="45.1202" lon="5.54864">
        <ele>1259</ele>
        <time>2008-05-04T13:48:28Z</time>
      </trkpt>
      <trkpt lat="45.11971" lon="5.54872">
        <ele>1263</ele>
        <time>2008-05-04T13:48:42Z</time>
      </trkpt>
      <trkpt lat="45.11959" lon="5.54838">
        <ele>1263</ele>
        <time>2008-05-04T13:48:53Z</time>
      </trkpt>
      <trkpt lat="45.1196" lon="5.54833">
        <ele>1257</ele>
        <time>2008-05-04T13:48:55Z</time>
      </trkpt>
      <trkpt lat="45.11958" lon="5.54817">
        <ele>1256</ele>
        <time>2008-05-04T13:49:00Z</time>
      </trkpt>
      <trkpt lat="45.11956" lon="5.54807">
        <ele>1256</ele>
        <time>2008-05-04T13:49:03Z</time>
      </trkpt>
      <trkpt lat="45.11941" lon="5.54785">
        <ele>1255</ele>
        <time>2008-05-04T13:49:12Z</time>
      </trkpt>
      <trkpt lat="45.1191" lon="5.54774">
        <ele>1258</ele>
        <time>2008-05-04T13:49:27Z</time>
      </trkpt>
      <trkpt lat="45.1188" lon="5.54777">
        <ele>1259</ele>
        <time>2008-05-04T13:49:41Z</time>
      </trkpt>
      <trkpt lat="45.11844" lon="5.54791">
        <ele>1261</ele>
        <time>2008-05-04T13:49:57Z</time>
      </trkpt>
      <trkpt lat="45.11808" lon="5.54805">
        <ele>1263</ele>
        <time>2008-05-04T13:50:12Z</time>
      </trkpt>
      <trkpt lat="45.11771" lon="5.54816">
        <ele>1264</ele>
        <time>2008-05-04T13:50:26Z</time>
      </trkpt>
      <trkpt lat="45.11735" lon="5.5482">
        <ele>1263</ele>
        <time>2008-05-04T13:50:39Z</time>
      </trkpt>
      <trkpt lat="45.11704" lon="5.5483">
        <ele>1261</ele>
        <time>2008-05-04T13:50:51Z</time>
      </trkpt>
      <trkpt lat="45.11672" lon="5.54847">
        <ele>1268</ele>
        <time>2008-05-04T13:51:02Z</time>
      </trkpt>
      <trkpt lat="45.11642" lon="5.54861">
        <ele>1268</ele>
        <time>2008-05-04T13:51:12Z</time>
      </trkpt>
      <trkpt lat="45.11597" lon="5.54873">
        <ele>1268</ele>
        <time>2008-05-04T13:51:26Z</time>
      </trkpt>
      <trkpt lat="45.11559" lon="5.54859">
        <ele>1270</ele>
        <time>2008-05-04T13:51:41Z</time>
      </trkpt>
      <trkpt lat="45.11536" lon="5.54849">
        <ele>1271</ele>
        <time>2008-05-04T13:51:53Z</time>
      </trkpt>
      <trkpt lat="45.11514" lon="5.54837">
        <ele>1273</ele>
        <time>2008-05-04T13:52:05Z</time>
      </trkpt>
      <trkpt lat="45.11487" lon="5.54827">
        <ele>1274</ele>
        <time>2008-05-04T13:52:19Z</time>
      </trkpt>
      <trkpt lat="45.11453" lon="5.54812">
        <ele>1272</ele>
        <time>2008-05-04T13:52:34Z</time>
      </trkpt>
      <trkpt lat="45.11411" lon="5.54798">
        <ele>1270</ele>
        <time>2008-05-04T13:52:50Z</time>
      </trkpt>
      <trkpt lat="45.11362" lon="5.54791">
        <ele>1269</ele>
        <time>2008-05-04T13:53:07Z</time>
      </trkpt>
      <trkpt lat="45.11306" lon="5.54784">
        <ele>1265</ele>
        <time>2008-05-04T13:53:23Z</time>
      </trkpt>
      <trkpt lat="45.11254" lon="5.5479">
        <ele>1264</ele>
        <time>2008-05-04T13:53:33Z</time>
      </trkpt>
      <trkpt lat="45.11228" lon="5.54792">
        <ele>1263</ele>
        <time>2008-05-04T13:53:37Z</time>
      </trkpt>
      <trkpt lat="45.11214" lon="5.54791">
        <ele>1263</ele>
        <time>2008-05-04T13:53:39Z</time>
      </trkpt>
      <trkpt lat="45.11123" lon="5.54775">
        <ele>1259</ele>
        <time>2008-05-04T13:53:51Z</time>
      </trkpt>
      <trkpt lat="45.1111" lon="5.5477">
        <ele>1258</ele>
        <time>2008-05-04T13:53:53Z</time>
      </trkpt>
      <trkpt lat="45.11077" lon="5.5477">
        <ele>1255</ele>
        <time>2008-05-04T13:53:58Z</time>
      </trkpt>
      <trkpt lat="45.11062" lon="5.54774">
        <ele>1256</ele>
        <time>2008-05-04T13:54:00Z</time>
      </trkpt>
      <trkpt lat="45.11047" lon="5.5478">
        <ele>1256</ele>
        <time>2008-05-04T13:54:02Z</time>
      </trkpt>
      <trkpt lat="45.11013" lon="5.54778">
        <ele>1256</ele>
        <time>2008-05-04T13:54:06Z</time>
      </trkpt>
      <trkpt lat="45.10986" lon="5.54772">
        <ele>1253</ele>
        <time>2008-05-04T13:54:09Z</time>
      </trkpt>
      <trkpt lat="45.10957" lon="5.54769">
        <ele>1251</ele>
        <time>2008-05-04T13:54:12Z</time>
      </trkpt>
      <trkpt lat="45.10919" lon="5.54768">
        <ele>1248</ele>
        <time>2008-05-04T13:54:16Z</time>
      </trkpt>
      <trkpt lat="45.10863" lon="5.54765">
        <ele>1242</ele>
        <time>2008-05-04T13:54:22Z</time>
      </trkpt>
      <trkpt lat="45.10854" lon="5.54763">
        <ele>1242</ele>
        <time>2008-05-04T13:54:23Z</time>
      </trkpt>
      <trkpt lat="45.10815" lon="5.54749">
        <ele>1233</ele>
        <time>2008-05-04T13:54:27Z</time>
      </trkpt>
      <trkpt lat="45.10805" lon="5.54745">
        <ele>1231</ele>
        <time>2008-05-04T13:54:28Z</time>
      </trkpt>
      <trkpt lat="45.10771" lon="5.54735">
        <ele>1229</ele>
        <time>2008-05-04T13:54:31Z</time>
      </trkpt>
      <trkpt lat="45.10735" lon="5.54726">
        <ele>1228</ele>
        <time>2008-05-04T13:54:34Z</time>
      </trkpt>
      <trkpt lat="45.10703" lon="5.54714">
        <ele>1226</ele>
        <time>2008-05-04T13:54:37Z</time>
      </trkpt>
      <trkpt lat="45.10666" lon="5.54702">
        <ele>1223</ele>
        <time>2008-05-04T13:54:41Z</time>
      </trkpt>
      <trkpt lat="45.10658" lon="5.54699">
        <ele>1223</ele>
        <time>2008-05-04T13:54:42Z</time>
      </trkpt>
      <trkpt lat="45.10625" lon="5.54664">
        <ele>1220</ele>
        <time>2008-05-04T13:54:47Z</time>
      </trkpt>
      <trkpt lat="45.10622" lon="5.54654">
        <ele>1220</ele>
        <time>2008-05-04T13:54:48Z</time>
      </trkpt>
      <trkpt lat="45.10612" lon="5.54621">
        <ele>1219</ele>
        <time>2008-05-04T13:54:52Z</time>
      </trkpt>
      <trkpt lat="45.1061" lon="5.54614">
        <ele>1219</ele>
        <time>2008-05-04T13:54:53Z</time>
      </trkpt>
      <trkpt lat="45.10603" lon="5.54587">
        <ele>1220</ele>
        <time>2008-05-04T13:54:58Z</time>
      </trkpt>
      <trkpt lat="45.10583" lon="5.54532">
        <ele>1222</ele>
        <time>2008-05-04T13:55:12Z</time>
      </trkpt>
      <trkpt lat="45.10574" lon="5.54513">
        <ele>1223</ele>
        <time>2008-05-04T13:55:23Z</time>
      </trkpt>
      <trkpt lat="45.10561" lon="5.54489">
        <ele>1226</ele>
        <time>2008-05-04T13:55:41Z</time>
      </trkpt>
      <trkpt lat="45.10545" lon="5.54467">
        <ele>1226</ele>
        <time>2008-05-04T13:55:56Z</time>
      </trkpt>
      <trkpt lat="45.10541" lon="5.54462">
        <ele>1227</ele>
        <time>2008-05-04T13:56:11Z</time>
      </trkpt>
      <trkpt lat="45.10538" lon="5.54461">
        <ele>1227</ele>
        <time>2008-05-04T13:56:37Z</time>
      </trkpt>
      <trkpt lat="45.10541" lon="5.5446">
        <ele>1227</ele>
        <time>2008-05-04T13:56:54Z</time>
      </trkpt>
      <trkpt lat="45.10537" lon="5.54458">
        <ele>1227</ele>
        <time>2008-05-04T13:57:11Z</time>
      </trkpt>
      <trkpt lat="45.10524" lon="5.54424">
        <ele>1229</ele>
        <time>2008-05-04T13:57:29Z</time>
      </trkpt>
      <trkpt lat="45.10506" lon="5.544">
        <ele>1230</ele>
        <time>2008-05-04T13:57:45Z</time>
      </trkpt>
      <trkpt lat="45.10474" lon="5.54374">
        <ele>1234</ele>
        <time>2008-05-04T13:58:07Z</time>
      </trkpt>
      <trkpt lat="45.10446" lon="5.54358">
        <ele>1235</ele>
        <time>2008-05-04T13:58:26Z</time>
      </trkpt>
      <trkpt lat="45.10426" lon="5.54343">
        <ele>1237</ele>
        <time>2008-05-04T13:58:40Z</time>
      </trkpt>
      <trkpt lat="45.10405" lon="5.54328">
        <ele>1241</ele>
        <time>2008-05-04T13:58:57Z</time>
      </trkpt>
      <trkpt lat="45.10382" lon="5.54313">
        <ele>1243</ele>
        <time>2008-05-04T13:59:12Z</time>
      </trkpt>
      <trkpt lat="45.10355" lon="5.54296">
        <ele>1244</ele>
        <time>2008-05-04T13:59:30Z</time>
      </trkpt>
      <trkpt lat="45.1033" lon="5.5428">
        <ele>1246</ele>
        <time>2008-05-04T13:59:49Z</time>
      </trkpt>
      <trkpt lat="45.10319" lon="5.54273">
        <ele>1246</ele>
        <time>2008-05-04T14:00:05Z</time>
      </trkpt>
      <trkpt lat="45.10317" lon="5.54271">
        <ele>1247</ele>
        <time>2008-05-04T14:00:28Z</time>
      </trkpt>
      <trkpt lat="45.10314" lon="5.54272">
        <ele>1246</ele>
        <time>2008-05-04T14:01:02Z</time>
      </trkpt>
      <trkpt lat="45.10314" lon="5.54272">
        <ele>1246</ele>
        <time>2008-05-04T14:01:03Z</time>
      </trkpt>
      <trkpt lat="45.10315" lon="5.54271">
        <ele>1247</ele>
        <time>2008-05-04T14:01:25Z</time>
      </trkpt>
      <trkpt lat="45.10315" lon="5.54271">
        <ele>1247</ele>
        <time>2008-05-04T14:01:27Z</time>
      </trkpt>
      <trkpt lat="45.10315" lon="5.54271">
        <ele>1247</ele>
        <time>2008-05-04T14:01:28Z</time>
      </trkpt>
      <trkpt lat="45.10315" lon="5.54274">
        <ele>1246</ele>
        <time>2008-05-04T14:01:52Z</time>
      </trkpt>
      <trkpt lat="45.10315" lon="5.54271">
        <ele>1246</ele>
        <time>2008-05-04T14:02:21Z</time>
      </trkpt>
      <trkpt lat="45.10315" lon="5.54272">
        <ele>1246</ele>
        <time>2008-05-04T14:02:28Z</time>
      </trkpt>
      <trkpt lat="45.1031" lon="5.54278">
        <ele>1246</ele>
        <time>2008-05-04T14:03:02Z</time>
      </trkpt>
      <trkpt lat="45.10312" lon="5.54278">
        <ele>1246</ele>
        <time>2008-05-04T14:03:09Z</time>
      </trkpt>
      <trkpt lat="45.10311" lon="5.54277">
        <ele>1246</ele>
        <time>2008-05-04T14:03:35Z</time>
      </trkpt>
      <trkpt lat="45.10306" lon="5.54281">
        <ele>1246</ele>
        <time>2008-05-04T14:04:06Z</time>
      </trkpt>
      <trkpt lat="45.10276" lon="5.54276">
        <ele>1247</ele>
        <time>2008-05-04T14:04:23Z</time>
      </trkpt>
      <trkpt lat="45.10243" lon="5.5428">
        <ele>1247</ele>
        <time>2008-05-04T14:04:41Z</time>
      </trkpt>
      <trkpt lat="45.10199" lon="5.54282">
        <ele>1247</ele>
        <time>2008-05-04T14:04:59Z</time>
      </trkpt>
      <trkpt lat="45.1016" lon="5.54279">
        <ele>1248</ele>
        <time>2008-05-04T14:05:14Z</time>
      </trkpt>
      <trkpt lat="45.10108" lon="5.54276">
        <ele>1249</ele>
        <time>2008-05-04T14:05:33Z</time>
      </trkpt>
      <trkpt lat="45.1008" lon="5.54265">
        <ele>1252</ele>
        <time>2008-05-04T14:05:47Z</time>
      </trkpt>
      <trkpt lat="45.10044" lon="5.54248">
        <ele>1254</ele>
        <time>2008-05-04T14:06:03Z</time>
      </trkpt>
      <trkpt lat="45.10011" lon="5.5423">
        <ele>1254</ele>
        <time>2008-05-04T14:06:22Z</time>
      </trkpt>
      <trkpt lat="45.09983" lon="5.54226">
        <ele>1257</ele>
        <time>2008-05-04T14:06:37Z</time>
      </trkpt>
      <trkpt lat="45.09949" lon="5.5422">
        <ele>1258</ele>
        <time>2008-05-04T14:06:55Z</time>
      </trkpt>
      <trkpt lat="45.09927" lon="5.54214">
        <ele>1259</ele>
        <time>2008-05-04T14:07:10Z</time>
      </trkpt>
      <trkpt lat="45.09907" lon="5.54209">
        <ele>1264</ele>
        <time>2008-05-04T14:07:26Z</time>
      </trkpt>
      <trkpt lat="45.09891" lon="5.54204">
        <ele>1265</ele>
        <time>2008-05-04T14:07:42Z</time>
      </trkpt>
      <trkpt lat="45.09874" lon="5.54198">
        <ele>1266</ele>
        <time>2008-05-04T14:07:57Z</time>
      </trkpt>
      <trkpt lat="45.09872" lon="5.54203">
        <ele>1266</ele>
        <time>2008-05-04T14:09:10Z</time>
      </trkpt>
      <trkpt lat="45.09861" lon="5.54198">
        <ele>1267</ele>
        <time>2008-05-04T14:09:25Z</time>
      </trkpt>
      <trkpt lat="45.09846" lon="5.54192">
        <ele>1268</ele>
        <time>2008-05-04T14:09:41Z</time>
      </trkpt>
      <trkpt lat="45.09825" lon="5.54188">
        <ele>1276</ele>
        <time>2008-05-04T14:09:58Z</time>
      </trkpt>
      <trkpt lat="45.09803" lon="5.54188">
        <ele>1278</ele>
        <time>2008-05-04T14:10:11Z</time>
      </trkpt>
      <trkpt lat="45.09785" lon="5.54193">
        <ele>1280</ele>
        <time>2008-05-04T14:10:25Z</time>
      </trkpt>
      <trkpt lat="45.09766" lon="5.54198">
        <ele>1282</ele>
        <time>2008-05-04T14:10:39Z</time>
      </trkpt>
      <trkpt lat="45.09745" lon="5.54201">
        <ele>1292</ele>
        <time>2008-05-04T14:10:57Z</time>
      </trkpt>
      <trkpt lat="45.09729" lon="5.54203">
        <ele>1292</ele>
        <time>2008-05-04T14:11:15Z</time>
      </trkpt>
      <trkpt lat="45.0972" lon="5.54202">
        <ele>1293</ele>
        <time>2008-05-04T14:11:21Z</time>
      </trkpt>
      <trkpt lat="45.09703" lon="5.54199">
        <ele>1294</ele>
        <time>2008-05-04T14:11:40Z</time>
      </trkpt>
      <trkpt lat="45.09693" lon="5.542">
        <ele>1295</ele>
        <time>2008-05-04T14:11:58Z</time>
      </trkpt>
      <trkpt lat="45.0968" lon="5.54199">
        <ele>1296</ele>
        <time>2008-05-04T14:12:12Z</time>
      </trkpt>
      <trkpt lat="45.09666" lon="5.54195">
        <ele>1302</ele>
        <time>2008-05-04T14:12:25Z</time>
      </trkpt>
      <trkpt lat="45.09651" lon="5.54194">
        <ele>1302</ele>
        <time>2008-05-04T14:12:42Z</time>
      </trkpt>
      <trkpt lat="45.09637" lon="5.54191">
        <ele>1303</ele>
        <time>2008-05-04T14:12:57Z</time>
      </trkpt>
      <trkpt lat="45.09623" lon="5.5419">
        <ele>1303</ele>
        <time>2008-05-04T14:13:12Z</time>
      </trkpt>
      <trkpt lat="45.09606" lon="5.54187">
        <ele>1304</ele>
        <time>2008-05-04T14:13:27Z</time>
      </trkpt>
      <trkpt lat="45.09592" lon="5.54182">
        <ele>1306</ele>
        <time>2008-05-04T14:13:41Z</time>
      </trkpt>
      <trkpt lat="45.09573" lon="5.54175">
        <ele>1310</ele>
        <time>2008-05-04T14:13:59Z</time>
      </trkpt>
      <trkpt lat="45.09554" lon="5.54166">
        <ele>1317</ele>
        <time>2008-05-04T14:14:17Z</time>
      </trkpt>
      <trkpt lat="45.09538" lon="5.54159">
        <ele>1319</ele>
        <time>2008-05-04T14:14:32Z</time>
      </trkpt>
      <trkpt lat="45.09531" lon="5.54158">
        <ele>1319</ele>
        <time>2008-05-04T14:14:49Z</time>
      </trkpt>
      <trkpt lat="45.09525" lon="5.54156">
        <ele>1319</ele>
        <time>2008-05-04T14:15:11Z</time>
      </trkpt>
      <trkpt lat="45.09517" lon="5.54157">
        <ele>1319</ele>
        <time>2008-05-04T14:15:31Z</time>
      </trkpt>
      <trkpt lat="45.09516" lon="5.54157">
        <ele>1319</ele>
        <time>2008-05-04T14:15:35Z</time>
      </trkpt>
      <trkpt lat="45.09507" lon="5.54154">
        <ele>1319</ele>
        <time>2008-05-04T14:15:48Z</time>
      </trkpt>
      <trkpt lat="45.09501" lon="5.54148">
        <ele>1320</ele>
        <time>2008-05-04T14:15:55Z</time>
      </trkpt>
      <trkpt lat="45.09491" lon="5.54134">
        <ele>1324</ele>
        <time>2008-05-04T14:16:12Z</time>
      </trkpt>
      <trkpt lat="45.09479" lon="5.54122">
        <ele>1326</ele>
        <time>2008-05-04T14:16:27Z</time>
      </trkpt>
      <trkpt lat="45.09468" lon="5.54111">
        <ele>1327</ele>
        <time>2008-05-04T14:16:41Z</time>
      </trkpt>
      <trkpt lat="45.09453" lon="5.54096">
        <ele>1328</ele>
        <time>2008-05-04T14:17:00Z</time>
      </trkpt>
      <trkpt lat="45.09427" lon="5.54096">
        <ele>1330</ele>
        <time>2008-05-04T14:17:17Z</time>
      </trkpt>
      <trkpt lat="45.09399" lon="5.54097">
        <ele>1332</ele>
      </trkpt>
      <trkpt lat="45.0937" lon="5.54098">
        <ele>1333</ele>
      </trkpt>
      <trkpt lat="45.09377" lon="5.54123">
        <ele>1331</ele>
        <time>2018-08-11T14:55:55Z</time>
      </trkpt>
      <trkpt lat="45.09377" lon="5.54123">
        <ele>1331</ele>
        <time>2018-08-11T14:55:55Z</time>
      </trkpt>
      <trkpt lat="45.09391" lon="5.54145">
        <ele>1329</ele>
        <time>2018-08-11T14:55:59Z</time>
      </trkpt>
      <trkpt lat="45.09404" lon="5.54163">
        <ele>1327</ele>
        <time>2018-08-11T14:56:03Z</time>
      </trkpt>
      <trkpt lat="45.09424" lon="5.54174">
        <ele>1321</ele>
        <time>2018-08-11T14:56:07Z</time>
      </trkpt>
      <trkpt lat="45.09441" lon="5.54192">
        <ele>1317</ele>
        <time>2018-08-11T14:56:10Z</time>
      </trkpt>
      <trkpt lat="45.09459" lon="5.54201">
        <ele>1315</ele>
        <time>2018-08-11T14:56:13Z</time>
      </trkpt>
      <trkpt lat="45.09481" lon="5.54208">
        <ele>1314</ele>
        <time>2018-08-11T14:56:17Z</time>
      </trkpt>
      <trkpt lat="45.095" lon="5.54218">
        <ele>1312</ele>
        <time>2018-08-11T14:56:21Z</time>
      </trkpt>
      <trkpt lat="45.09507" lon="5.54242">
        <ele>1305</ele>
        <time>2018-08-11T14:56:27Z</time>
      </trkpt>
      <trkpt lat="45.09515" lon="5.54265">
        <ele>1296</ele>
        <time>2018-08-11T14:56:31Z</time>
      </trkpt>
      <trkpt lat="45.09527" lon="5.54291">
        <ele>1292</ele>
        <time>2018-08-11T14:56:38Z</time>
      </trkpt>
      <trkpt lat="45.09544" lon="5.543">
        <ele>1291</ele>
        <time>2018-08-11T14:56:42Z</time>
      </trkpt>
      <trkpt lat="45.09559" lon="5.54323">
        <ele>1288</ele>
        <time>2018-08-11T14:56:48Z</time>
      </trkpt>
      <trkpt lat="45.09579" lon="5.54327">
        <ele>1284</ele>
        <time>2018-08-11T14:56:53Z</time>
      </trkpt>
      <trkpt lat="45.09599" lon="5.54343">
        <ele>1277</ele>
        <time>2018-08-11T14:56:57Z</time>
      </trkpt>
      <trkpt lat="45.09616" lon="5.54354">
        <ele>1274</ele>
        <time>2018-08-11T14:57:01Z</time>
      </trkpt>
      <trkpt lat="45.09628" lon="5.54375">
        <ele>1272</ele>
        <time>2018-08-11T14:57:06Z</time>
      </trkpt>
      <trkpt lat="45.09635" lon="5.54399">
        <ele>1270</ele>
        <time>2018-08-11T14:57:14Z</time>
      </trkpt>
      <trkpt lat="45.09645" lon="5.54422">
        <ele>1258</ele>
        <time>2018-08-11T14:57:20Z</time>
      </trkpt>
      <trkpt lat="45.09648" lon="5.54448">
        <ele>1255</ele>
        <time>2018-08-11T14:57:25Z</time>
      </trkpt>
      <trkpt lat="45.09645" lon="5.54478">
        <ele>1251</ele>
        <time>2018-08-11T14:57:29Z</time>
      </trkpt>
      <trkpt lat="45.09644" lon="5.54507">
        <ele>1239</ele>
        <time>2018-08-11T14:57:33Z</time>
      </trkpt>
      <trkpt lat="45.09643" lon="5.54536">
        <ele>1235</ele>
        <time>2018-08-11T14:57:37Z</time>
      </trkpt>
      <trkpt lat="45.09647" lon="5.54567">
        <ele>1231</ele>
        <time>2018-08-11T14:57:42Z</time>
      </trkpt>
      <trkpt lat="45.0965" lon="5.54596">
        <ele>1220</ele>
        <time>2018-08-11T14:57:46Z</time>
      </trkpt>
      <trkpt lat="45.09664" lon="5.54616">
        <ele>1218</ele>
        <time>2018-08-11T14:57:51Z</time>
      </trkpt>
      <trkpt lat="45.09685" lon="5.54616">
        <ele>1218</ele>
        <time>2018-08-11T14:57:58Z</time>
      </trkpt>
      <trkpt lat="45.09701" lon="5.5463">
        <ele>1216</ele>
        <time>2018-08-11T14:58:06Z</time>
      </trkpt>
      <trkpt lat="45.09715" lon="5.54648">
        <ele>1214</ele>
        <time>2018-08-11T14:58:11Z</time>
      </trkpt>
      <trkpt lat="45.09729" lon="5.54665">
        <ele>1212</ele>
        <time>2018-08-11T14:58:16Z</time>
      </trkpt>
      <trkpt lat="45.09747" lon="5.54683">
        <ele>1203</ele>
        <time>2018-08-11T14:58:20Z</time>
      </trkpt>
      <trkpt lat="45.09765" lon="5.54697">
        <ele>1197</ele>
        <time>2018-08-11T14:58:27Z</time>
      </trkpt>
      <trkpt lat="45.09778" lon="5.54719">
        <ele>1193</ele>
        <time>2018-08-11T14:58:32Z</time>
      </trkpt>
      <trkpt lat="45.0979" lon="5.5474">
        <ele>1190</ele>
        <time>2018-08-11T14:58:39Z</time>
      </trkpt>
      <trkpt lat="45.09794" lon="5.54767">
        <ele>1174</ele>
        <time>2018-08-11T14:58:46Z</time>
      </trkpt>
      <trkpt lat="45.09781" lon="5.54792">
        <ele>1172</ele>
        <time>2018-08-11T14:58:50Z</time>
      </trkpt>
      <trkpt lat="45.09768" lon="5.54816">
        <ele>1168</ele>
        <time>2018-08-11T14:58:55Z</time>
      </trkpt>
      <trkpt lat="45.0975" lon="5.54834">
        <ele>1163</ele>
        <time>2018-08-11T14:59:01Z</time>
      </trkpt>
      <trkpt lat="45.0973" lon="5.54851">
        <ele>1158</ele>
        <time>2018-08-11T14:59:05Z</time>
      </trkpt>
      <trkpt lat="45.09714" lon="5.54871">
        <ele>1155</ele>
        <time>2018-08-11T14:59:09Z</time>
      </trkpt>
      <trkpt lat="45.09698" lon="5.5489">
        <ele>1152</ele>
        <time>2018-08-11T14:59:13Z</time>
      </trkpt>
      <trkpt lat="45.09686" lon="5.5491">
        <ele>1149</ele>
        <time>2018-08-11T14:59:16Z</time>
      </trkpt>
      <trkpt lat="45.09694" lon="5.54887">
        <ele>1153</ele>
        <time>2018-08-11T15:00:25Z</time>
      </trkpt>
      <trkpt lat="45.09713" lon="5.54891">
        <ele>1152</ele>
        <time>2018-08-11T15:00:30Z</time>
      </trkpt>
      <trkpt lat="45.09731" lon="5.54897">
        <ele>1151</ele>
        <time>2018-08-11T15:00:37Z</time>
      </trkpt>
      <trkpt lat="45.0973" lon="5.54923">
        <ele>1137</ele>
        <time>2018-08-11T15:00:42Z</time>
      </trkpt>
      <trkpt lat="45.09726" lon="5.5495">
        <ele>1133</ele>
        <time>2018-08-11T15:00:48Z</time>
      </trkpt>
      <trkpt lat="45.09738" lon="5.5497">
        <ele>1129</ele>
        <time>2018-08-11T15:00:55Z</time>
      </trkpt>
      <trkpt lat="45.09757" lon="5.54963">
        <ele>1127</ele>
        <time>2018-08-11T15:01:05Z</time>
      </trkpt>
      <trkpt lat="45.09774" lon="5.5498">
        <ele>1124</ele>
        <time>2018-08-11T15:01:11Z</time>
      </trkpt>
      <trkpt lat="45.09768" lon="5.55005">
        <ele>1113</ele>
        <time>2018-08-11T15:01:17Z</time>
      </trkpt>
      <trkpt lat="45.0978" lon="5.55025">
        <ele>1109</ele>
        <time>2018-08-11T15:01:24Z</time>
      </trkpt>
      <trkpt lat="45.09783" lon="5.55054">
        <ele>1105</ele>
        <time>2018-08-11T15:01:34Z</time>
      </trkpt>
      <trkpt lat="45.09775" lon="5.55085">
        <ele>1095</ele>
        <time>2018-08-11T15:01:38Z</time>
      </trkpt>
      <trkpt lat="45.09776" lon="5.55113">
        <ele>1091</ele>
        <time>2018-08-11T15:01:42Z</time>
      </trkpt>
      <trkpt lat="45.09777" lon="5.55142">
        <ele>1088</ele>
        <time>2018-08-11T15:01:51Z</time>
      </trkpt>
      <trkpt lat="45.09766" lon="5.55169">
        <ele>1079</ele>
        <time>2018-08-11T15:01:56Z</time>
      </trkpt>
      <trkpt lat="45.09773" lon="5.55195">
        <ele>1074</ele>
        <time>2018-08-11T15:02:04Z</time>
      </trkpt>
      <trkpt lat="45.09791" lon="5.55209">
        <ele>1071</ele>
        <time>2018-08-11T15:02:12Z</time>
      </trkpt>
      <trkpt lat="45.09805" lon="5.5523">
        <ele>1068</ele>
        <time>2018-08-11T15:02:20Z</time>
      </trkpt>
      <trkpt lat="45.09796" lon="5.5526">
        <ele>1056</ele>
        <time>2018-08-11T15:02:26Z</time>
      </trkpt>
      <trkpt lat="45.098" lon="5.55288">
        <ele>1053</ele>
        <time>2018-08-11T15:02:34Z</time>
      </trkpt>
      <trkpt lat="45.09787" lon="5.55315">
        <ele>1051</ele>
        <time>2018-08-11T15:02:38Z</time>
      </trkpt>
      <trkpt lat="45.09784" lon="5.55345">
        <ele>1038</ele>
        <time>2018-08-11T15:02:44Z</time>
      </trkpt>
      <trkpt lat="45.09784" lon="5.55372">
        <ele>1035</ele>
        <time>2018-08-11T15:02:48Z</time>
      </trkpt>
      <trkpt lat="45.09791" lon="5.55397">
        <ele>1031</ele>
        <time>2018-08-11T15:02:51Z</time>
      </trkpt>
      <trkpt lat="45.09803" lon="5.55422">
        <ele>1019</ele>
        <time>2018-08-11T15:02:55Z</time>
      </trkpt>
      <trkpt lat="45.09815" lon="5.55445">
        <ele>1018</ele>
        <time>2018-08-11T15:03:00Z</time>
      </trkpt>
      <trkpt lat="45.09836" lon="5.55446">
        <ele>1022</ele>
        <time>2018-08-11T15:03:04Z</time>
      </trkpt>
      <trkpt lat="45.09853" lon="5.55457">
        <ele>1023</ele>
        <time>2018-08-11T15:03:07Z</time>
      </trkpt>
      <trkpt lat="45.09863" lon="5.5548">
        <ele>1022</ele>
        <time>2018-08-11T15:03:10Z</time>
      </trkpt>
      <trkpt lat="45.0987" lon="5.55505">
        <ele>1016</ele>
        <time>2018-08-11T15:03:13Z</time>
      </trkpt>
      <trkpt lat="45.09872" lon="5.55531">
        <ele>1016</ele>
        <time>2018-08-11T15:03:16Z</time>
      </trkpt>
      <trkpt lat="45.09873" lon="5.55557">
        <ele>1015</ele>
        <time>2018-08-11T15:03:19Z</time>
      </trkpt>
      <trkpt lat="45.09872" lon="5.55592">
        <ele>1009</ele>
        <time>2018-08-11T15:03:23Z</time>
      </trkpt>
      <trkpt lat="45.09871" lon="5.55619">
        <ele>1008</ele>
        <time>2018-08-11T15:03:26Z</time>
      </trkpt>
      <trkpt lat="45.09867" lon="5.55646">
        <ele>1007</ele>
        <time>2018-08-11T15:03:30Z</time>
      </trkpt>
      <trkpt lat="45.09877" lon="5.55674">
        <ele>1001</ele>
        <time>2018-08-11T15:03:34Z</time>
      </trkpt>
      <trkpt lat="45.09869" lon="5.55701">
        <ele>999</ele>
        <time>2018-08-11T15:03:37Z</time>
      </trkpt>
      <trkpt lat="45.09853" lon="5.55721">
        <ele>998</ele>
        <time>2018-08-11T15:03:40Z</time>
      </trkpt>
      <trkpt lat="45.09834" lon="5.55735">
        <ele>996</ele>
        <time>2018-08-11T15:03:43Z</time>
      </trkpt>
      <trkpt lat="45.09837" lon="5.55768">
        <ele>991</ele>
        <time>2018-08-11T15:03:47Z</time>
      </trkpt>
      <trkpt lat="45.09851" lon="5.55784">
        <ele>988</ele>
        <time>2018-08-11T15:03:50Z</time>
      </trkpt>
      <trkpt lat="45.09429" lon="5.55674">
        <ele>982</ele>
      </trkpt>
      <trkpt lat="45.09272" lon="5.55635">
        <ele>980</ele>
      </trkpt>
      <trkpt lat="45.09148" lon="5.55738">
        <ele>981</ele>
      </trkpt>
      <trkpt lat="45.0919" lon="5.55807">
        <ele>987</ele>
      </trkpt>
      <trkpt lat="45.09148" lon="5.56022">
        <ele>1005</ele>
      </trkpt>
      <trkpt lat="45.09078" lon="5.56022">
        <ele>1007</ele>
      </trkpt>
      <trkpt lat="45.09081" lon="5.56129">
        <ele>1011</ele>
      </trkpt>
      <trkpt lat="45.08766" lon="5.56781">
        <ele>1028</ele>
      </trkpt>
      <trkpt lat="45.08739" lon="5.56897">
        <ele>1029</ele>
      </trkpt>
      <trkpt lat="45.08705" lon="5.56966">
        <ele>1030</ele>
      </trkpt>
      <trkpt lat="45.08705" lon="5.56931">
        <ele>1029</ele>
      </trkpt>
      <trkpt lat="45.08651" lon="5.56979">
        <ele>1025</ele>
      </trkpt>
      <trkpt lat="45.08584" lon="5.57022">
        <ele>1026</ele>
      </trkpt>
      <trkpt lat="45.08499" lon="5.56996">
        <ele>1025</ele>
      </trkpt>
      <trkpt lat="45.08442" lon="5.56871">
        <ele>1030</ele>
      </trkpt>
      <trkpt lat="45.0841" lon="5.56796">
        <ele>1032</ele>
      </trkpt>
      <trkpt lat="45.08313" lon="5.5683">
        <ele>1027</ele>
      </trkpt>
      <trkpt lat="45.08313" lon="5.5671">
        <ele>1025</ele>
      </trkpt>
      <trkpt lat="45.08229" lon="5.56599">
        <ele>1025</ele>
      </trkpt>
      <trkpt lat="45.08227" lon="5.5658">
        <ele>1024</ele>
      </trkpt>
      <trkpt lat="45.08178" lon="5.56481">
        <ele>1019</ele>
      </trkpt>
      <trkpt lat="45.08202" lon="5.56416">
        <ele>1016</ele>
      </trkpt>
      <trkpt lat="45.08172" lon="5.56219">
        <ele>1020</ele>
      </trkpt>
      <trkpt lat="45.08027" lon="5.56095">
        <ele>1027</ele>
      </trkpt>
      <trkpt lat="45.07957" lon="5.55987">
        <ele>1024</ele>
      </trkpt>
      <trkpt lat="45.0776" lon="5.56528">
        <ele>1034</ele>
      </trkpt>
      <trkpt lat="45.0772" lon="5.56511">
        <ele>1029</ele>
      </trkpt>
      <trkpt lat="45.07681" lon="5.56592">
        <ele>1032</ele>
      </trkpt>
      <trkpt lat="45.07563" lon="5.56656">
        <ele>1019</ele>
      </trkpt>
      <trkpt lat="45.07475" lon="5.56583">
        <ele>1012</ele>
      </trkpt>
      <trkpt lat="45.07429" lon="5.56472">
        <ele>1021</ele>
      </trkpt>
      <trkpt lat="45.07284" lon="5.56408">
        <ele>1037</ele>
      </trkpt>
      <trkpt lat="45.07393" lon="5.56369">
        <ele>1032</ele>
      </trkpt>
      <trkpt lat="45.07402" lon="5.56163">
        <ele>1034</ele>
      </trkpt>
    </trkseg>
  </trk>
</gpx>